[[{"header":{"parameterUnit":"m.s-1","parameterCategory":1,"la1":31.0,"la2":29.5877,"lo1":-88.7671,"lo2":-86.6584,"dx":0.0162,"dy":0.0185,"nx":115,"ny":88,"refTime":"2023-02-14T06:00:00:Z","depth":0,"parameterNumber":2,"parameterNumberName":"U-component_of_WINDS"},"data":[0.0,0.0,0.0,0.0,0.0,0.0,0.0,0.0,0.0,0.0,0.0,0.0,0.0,0.0,0.0,0.0,0.0,0.0,0.0,0.0,0.0,0.0,0.0,0.0,0.0,0.0,0.0,0.0,0.0,0.0,0.0,0.0,0.0,0.0,0.0,0.0,0.0,0.0,0.0,0.0,0.0,0.0,0.0,0.0,0.0,0.0,0.0,0.0,0.0,0.0,0.0,0.0,0.0,0.0,0.0,0.0,0.0,0.0,0.0,0.0,0.0,0.0,0.0,0.0,0.0,0.0,0.0,0.0,0.0,0.0,0.0,0.0,0.0,0.0,0.0,0.0,0.0,0.0,0.0,0.0,0.0,0.0,0.0,0.0,0.0,0.0,0.0,0.0,0.0,0.0,0.0,0.0,0.0,0.0,0.0,0.0,0.0,0.0,0.0,0.0,0.0,0.0,0.0,0.0,0.0,0.0,0.0,0.0,0.0,0.0,0.0,0.0,0.0,0.0,0.0,0.0,0.0,0.0,0.0,0.0,0.0,0.0,0.0,0.0,0.0,0.0,0.0,0.0,0.0,0.0,0.0,0.0,0.0,0.0,0.0,0.0,0.0,0.0,0.0,0.0,0.0,0.0,0.0,0.0,0.0,0.0,0.0,0.0,0.0,0.0,0.0,0.0,0.0,0.0,0.0,0.0,0.0,0.0,0.0,0.0,0.0,0.0,0.0,0.0,0.0,0.0,0.0,0.0,0.0,0.0,0.0,0.0,0.0,0.0,0.0,0.0,0.0,0.0,0.0,0.0,0.0,0.0,0.0,0.0,0.0,0.0,0.0,0.0,0.0,0.0,0.0,0.0,0.0,0.0,0.0,0.0,0.0,0.0,0.0,0.0,0.0,0.0,0.0,0.0,0.0,0.0,0.0,0.0,0.0,0.0,0.0,0.0,0.0,0.0,0.0,0.0,0.0,0.0,0.0,0.0,0.0,0.0,0.0,0.0,0.0,0.0,0.0,0.0,0.0,0.0,0.0,0.0,0.0,0.0,0.0,0.0,0.0,0.0,0.0,0.0,0.0,0.0,0.0,0.0,0.0,0.0,0.0,0.0,0.0,0.0,0.0,0.0,0.0,0.0,0.0,0.0,0.0,0.0,0.0,0.0,0.0,0.0,0.0,0.0,0.0,0.0,0.0,0.0,0.0,0.0,0.0,0.0,0.0,0.0,0.0,0.0,0.0,0.0,0.0,0.0,0.0,0.0,0.0,0.0,0.0,0.0,0.0,0.0,0.0,0.0,0.0,0.0,0.0,0.0,0.0,0.0,0.0,0.0,0.0,0.0,0.0,0.0,0.0,0.0,0.0,0.0,0.0,0.0,0.0,0.0,0.0,0.0,0.0,0.0,0.0,0.0,0.0,0.0,0.0,0.0,0.0,0.0,0.0,0.0,0.0,0.0,0.0,0.0,0.0,0.0,0.0,0.0,0.0,0.0,0.0,0.0,0.0,0.0,0.0,0.0,0.0,0.0,0.0,0.0,0.0,0.0,0.0,0.0,0.0,0.0,0.0,0.0,0.0,0.0,0.0,0.0,0.0,0.0,0.0,0.0,0.0,0.0,0.0,0.0,0.0,0.0,0.0,0.0,0.0,0.0,0.0,0.0,0.0,0.0,0.0,0.0,0.0,0.0,0.0,0.0,0.0,0.0,0.0,0.0,0.0,0.0,0.0,0.0,0.0,0.0,0.0,0.0,0.0,0.0,0.0,0.0,0.0,0.0,0.0,0.0,0.0,0.0,0.0,0.0,0.0,0.0,0.0,0.0,0.0,0.0,0.0,0.0,0.0,0.0,0.0,0.0,0.0,0.0,0.0,0.0,0.0,0.0,0.0,0.0,0.0,0.0,0.0,0.0,0.0,0.0,0.0,0.0,0.0,0.0,0.0,0.0,0.0,0.0,0.0,0.0,0.0,0.0,0.0,0.0,0.0,0.0,0.0,0.0,0.0,0.0,0.0,0.0,0.0,0.0,0.0,0.0,0.0,0.0,0.0,0.0,0.0,0.0,0.0,0.0,0.0,0.0,0.0,0.0,0.0,0.0,0.0,0.0,0.0,0.0,0.0,0.0,0.0,0.0,0.0,0.0,0.0,0.0,0.0,0.0,0.0,0.0,0.0,0.0,0.0,0.0,0.0,0.0,0.0,0.0,0.0,0.0,0.0,0.0,0.0,0.0,0.0,0.0,0.0,0.0,0.0,0.0,0.0,0.0,0.0,0.0,0.0,0.0,0.0,0.0,0.0,0.0,0.0,0.0,0.0,0.0,0.0,0.0,0.0,0.0,0.0,0.0,0.0,0.0,0.0,0.0,0.0,0.0,0.0,0.0,0.0,0.0,0.0,0.0,0.0,0.0,0.0,0.0,0.0,0.0,0.0,0.0,0.0,0.0,0.0,0.0,0.0,0.0,0.0,0.0,0.0,0.0,0.0,0.0,0.0,0.0,0.0,0.0,0.0,0.0,0.0,0.0,0.0,0.0,0.0,0.0,0.0,0.0,0.0,0.0,0.0,0.0,0.0,0.0,0.0,0.0,0.0,0.0,0.0,0.0,0.0,0.0,0.0,0.0,0.0,0.0,0.0,0.0,0.0,0.0,0.0,0.0,0.0,0.0,0.0,0.0,0.0,0.0,0.0,0.0,0.0,0.0,0.0,0.0,0.0,0.0,0.0,0.0,0.0,0.0,0.0,0.0,0.0,0.0,0.0,0.0,0.0,0.0,0.0,0.0,0.0,0.0,0.0,0.0,0.0,0.0,0.0,0.0,0.0,0.0,0.0,0.0,0.0,0.0,0.0,0.0,0.0,0.0,0.0,0.0,0.0,0.0,0.0,0.0,0.0,0.0,0.0,0.0,0.0,0.0,0.0,0.0,0.0,0.0,0.0,0.0,0.0,0.0,0.0,0.0,0.0,0.0,0.0,0.0,0.0,0.0,0.0,0.0,0.0,0.0,0.0,0.0,0.0,0.0,0.0,0.0,0.0,0.0,0.0,0.0,0.0,0.0,0.0,0.0,0.0,0.0,0.0,0.0,0.0,0.0,0.0,0.0,0.0,0.0,0.0,0.0,0.0,0.0,0.0,0.0,0.0,0.0,0.0,0.0,0.0,0.0,0.0,0.0,0.0,0.0,0.0,0.0,0.0,0.0,0.0,0.0,0.0,0.0,0.0,0.0,0.0,0.0,0.0,0.0,0.0,0.0,0.0,0.0,0.0,0.0,0.0,0.0,0.0,0.0,0.0,0.0,0.0,0.0,0.0,0.0,0.0,0.0,0.0,0.0,0.0,0.0,0.0,0.0,0.0,0.0,0.0,0.0,0.0,0.0,0.0,0.0,0.0,0.0,0.0,0.0,0.0,0.0,0.0,0.0,0.0,0.0,0.0,0.0,0.0,0.0,0.0,0.0,0.0,0.0,0.0,0.0,0.0,0.0,0.0,0.0,0.0,0.0,0.0,0.0,0.0,0.0,0.0,0.0,0.0,0.0,0.0,0.0,0.0,0.0,0.0,0.0,0.0,0.0,0.0,0.0,0.0,0.0,0.0,0.0,0.0,0.0,0.0,0.0,0.0,0.0,0.0,0.0,0.0,0.0,0.0,0.0,0.0,0.0,0.0,0.0,0.0,0.0,0.0,0.0,0.0,0.0,0.0,0.0,0.0,0.0,0.0,0.0,0.0,0.0,0.0,0.0,0.0,0.0,0.0,0.0,0.0,0.0,0.0,0.0,0.0,0.0,0.0,0.0,0.0,0.0,0.0,0.0,0.0,0.0,0.0,0.0,0.0,0.0,0.0,0.0,0.0,0.0,0.0,0.0,0.0,0.0,0.0,0.0,0.0,0.0,0.0,0.0,0.0,0.0,0.0,0.0,0.0,0.0,0.0,0.0,0.0,0.0,0.0,0.0,0.0,0.0,0.0,0.0,0.0,0.0,0.0,0.0,0.0,0.0,0.0,0.0,0.0,0.0,0.0,0.0,0.0,0.0,0.0,0.0,0.0,0.0,0.0,0.0,0.0,0.0,0.0,0.0,0.0,0.0,0.0,0.0,0.0,0.0,0.0,0.0,0.0,0.0,0.0,0.0,0.0,0.0,0.0,0.0,0.0,0.0,0.0,0.0,0.0,0.0,0.0,0.0,0.0,0.0,0.0,0.0,0.0,0.0,0.0,0.0,0.0,0.0,0.0,0.0,0.0,0.0,0.0,0.0,0.0,0.0,0.0,0.0,0.0,0.0,0.0,0.0,0.0,0.0,-6.1089,0.0,0.0,0.0,0.0,0.0,0.0,0.0,0.0,0.0,0.0,0.0,0.0,0.0,0.0,0.0,0.0,0.0,0.0,0.0,0.0,0.0,0.0,0.0,0.0,0.0,0.0,0.0,0.0,0.0,0.0,0.0,0.0,0.0,0.0,0.0,0.0,0.0,0.0,0.0,0.0,0.0,0.0,0.0,0.0,0.0,0.0,0.0,0.0,0.0,0.0,0.0,0.0,0.0,0.0,0.0,0.0,0.0,0.0,0.0,0.0,0.0,0.0,0.0,0.0,0.0,0.0,0.0,0.0,0.0,0.0,0.0,0.0,0.0,0.0,0.0,0.0,0.0,0.0,0.0,0.0,0.0,0.0,0.0,0.0,0.0,0.0,0.0,0.0,0.0,0.0,0.0,0.0,0.0,0.0,0.0,0.0,0.0,0.0,0.0,0.0,0.0,0.0,0.0,0.0,0.0,0.0,0.0,0.0,0.0,0.0,-6.1032,-6.1002,-6.1051,-6.1118,-6.1079,0.0,0.0,0.0,0.0,0.0,0.0,0.0,0.0,0.0,0.0,0.0,0.0,0.0,0.0,0.0,0.0,0.0,0.0,0.0,0.0,0.0,0.0,0.0,0.0,0.0,0.0,0.0,0.0,0.0,0.0,0.0,0.0,0.0,0.0,0.0,0.0,0.0,0.0,0.0,0.0,0.0,0.0,0.0,0.0,0.0,0.0,0.0,0.0,0.0,0.0,0.0,0.0,0.0,0.0,0.0,0.0,0.0,0.0,0.0,0.0,0.0,0.0,0.0,0.0,0.0,0.0,0.0,0.0,0.0,0.0,0.0,0.0,0.0,0.0,0.0,0.0,0.0,0.0,0.0,0.0,0.0,0.0,0.0,0.0,0.0,0.0,0.0,0.0,0.0,0.0,0.0,0.0,0.0,0.0,0.0,0.0,0.0,0.0,0.0,0.0,0.0,0.0,0.0,0.0,0.0,0.0,0.0,0.0,0.0,0.0,0.0,0.0,-6.1032,-6.0915,-6.0499,0.0,0.0,0.0,0.0,0.0,0.0,0.0,0.0,0.0,0.0,0.0,0.0,0.0,0.0,0.0,0.0,0.0,0.0,0.0,0.0,0.0,0.0,0.0,0.0,0.0,0.0,0.0,0.0,0.0,0.0,0.0,0.0,0.0,0.0,0.0,0.0,0.0,0.0,0.0,0.0,0.0,0.0,0.0,0.0,0.0,0.0,0.0,0.0,0.0,0.0,0.0,0.0,0.0,0.0,0.0,0.0,0.0,0.0,0.0,0.0,0.0,0.0,0.0,0.0,0.0,0.0,0.0,0.0,0.0,0.0,0.0,0.0,0.0,0.0,0.0,0.0,0.0,0.0,0.0,0.0,0.0,0.0,0.0,0.0,0.0,0.0,0.0,0.0,0.0,0.0,0.0,0.0,0.0,0.0,0.0,0.0,0.0,0.0,0.0,0.0,0.0,0.0,0.0,0.0,0.0,0.0,0.0,0.0,0.0,0.0,-6.0976,-6.0933,-6.0962,0.0,-5.8913,0.0,0.0,0.0,0.0,0.0,0.0,0.0,0.0,0.0,0.0,0.0,0.0,0.0,0.0,0.0,0.0,0.0,0.0,0.0,0.0,0.0,0.0,0.0,0.0,0.0,0.0,0.0,0.0,0.0,0.0,0.0,0.0,0.0,0.0,0.0,0.0,0.0,0.0,0.0,0.0,0.0,0.0,0.0,0.0,0.0,0.0,0.0,0.0,0.0,0.0,0.0,0.0,0.0,0.0,0.0,0.0,0.0,0.0,0.0,0.0,0.0,0.0,0.0,0.0,0.0,0.0,0.0,0.0,0.0,0.0,0.0,0.0,0.0,0.0,0.0,0.0,0.0,0.0,0.0,0.0,0.0,0.0,0.0,0.0,0.0,0.0,0.0,0.0,0.0,0.0,0.0,0.0,0.0,0.0,0.0,0.0,0.0,0.0,0.0,0.0,0.0,0.0,0.0,0.0,0.0,0.0,0.0,0.0,0.0,0.0,-6.0933,-6.0911,-6.0457,-5.9659,0.0,0.0,0.0,0.0,0.0,0.0,0.0,0.0,0.0,0.0,0.0,0.0,0.0,0.0,0.0,0.0,0.0,0.0,0.0,0.0,0.0,0.0,0.0,0.0,0.0,0.0,0.0,0.0,0.0,0.0,0.0,0.0,0.0,0.0,0.0,0.0,0.0,0.0,0.0,0.0,0.0,0.0,0.0,0.0,0.0,0.0,0.0,0.0,0.0,0.0,0.0,0.0,0.0,0.0,0.0,0.0,0.0,0.0,0.0,0.0,0.0,0.0,0.0,0.0,0.0,0.0,0.0,0.0,0.0,0.0,0.0,0.0,0.0,0.0,0.0,0.0,0.0,0.0,0.0,0.0,0.0,0.0,0.0,0.0,0.0,0.0,0.0,0.0,0.0,0.0,0.0,0.0,0.0,0.0,0.0,0.0,0.0,0.0,0.0,0.0,0.0,0.0,0.0,0.0,0.0,0.0,0.0,0.0,0.0,0.0,-5.986,-6.0206,-6.014,-5.9605,-5.8904,-5.8104,0.0,0.0,0.0,0.0,0.0,0.0,0.0,0.0,0.0,0.0,0.0,0.0,0.0,0.0,0.0,0.0,0.0,0.0,0.0,0.0,0.0,0.0,0.0,0.0,0.0,0.0,0.0,0.0,0.0,0.0,0.0,0.0,0.0,0.0,0.0,0.0,0.0,0.0,0.0,0.0,0.0,0.0,0.0,0.0,0.0,0.0,0.0,0.0,0.0,0.0,0.0,0.0,0.0,0.0,0.0,0.0,0.0,0.0,0.0,0.0,0.0,0.0,0.0,0.0,0.0,0.0,0.0,0.0,0.0,0.0,0.0,0.0,0.0,0.0,0.0,0.0,0.0,0.0,0.0,0.0,0.0,0.0,0.0,0.0,0.0,0.0,0.0,0.0,0.0,0.0,0.0,0.0,0.0,0.0,0.0,0.0,0.0,0.0,0.0,0.0,0.0,0.0,0.0,0.0,0.0,0.0,0.0,0.0,-5.834,-5.8391,-5.8429,-5.8445,-5.8368,-5.8014,0.0,0.0,0.0,0.0,0.0,0.0,0.0,0.0,0.0,0.0,0.0,0.0,0.0,0.0,0.0,0.0,0.0,0.0,0.0,0.0,0.0,0.0,0.0,0.0,0.0,0.0,0.0,0.0,0.0,0.0,0.0,0.0,0.0,0.0,0.0,0.0,0.0,0.0,0.0,0.0,0.0,0.0,0.0,0.0,0.0,0.0,0.0,0.0,0.0,0.0,0.0,0.0,0.0,0.0,0.0,0.0,0.0,0.0,0.0,0.0,0.0,0.0,0.0,0.0,0.0,0.0,0.0,0.0,0.0,0.0,0.0,0.0,0.0,0.0,0.0,0.0,0.0,0.0,0.0,0.0,0.0,0.0,0.0,0.0,0.0,0.0,0.0,0.0,0.0,0.0,0.0,0.0,0.0,0.0,0.0,0.0,0.0,0.0,0.0,0.0,0.0,0.0,0.0,0.0,0.0,0.0,0.0,0.0,0.0,-5.7478,-5.8022,-5.8292,-5.8275,-5.7775,-5.7362,0.0,0.0,0.0,0.0,0.0,0.0,0.0,0.0,0.0,0.0,0.0,0.0,0.0,0.0,0.0,0.0,0.0,0.0,0.0,0.0,0.0,0.0,0.0,0.0,0.0,0.0,0.0,0.0,0.0,0.0,0.0,0.0,0.0,0.0,0.0,0.0,0.0,0.0,0.0,0.0,0.0,0.0,0.0,0.0,0.0,0.0,0.0,0.0,0.0,0.0,0.0,0.0,0.0,0.0,0.0,0.0,0.0,0.0,0.0,0.0,0.0,0.0,0.0,0.0,0.0,0.0,0.0,0.0,0.0,0.0,0.0,0.0,0.0,0.0,0.0,0.0,0.0,0.0,0.0,0.0,0.0,0.0,0.0,0.0,0.0,0.0,0.0,0.0,0.0,0.0,0.0,0.0,0.0,0.0,0.0,0.0,0.0,0.0,0.0,0.0,0.0,0.0,0.0,0.0,0.0,0.0,0.0,0.0,0.0,-5.6544,0.0,-5.772,-5.7439,-5.7165,-5.6868,0.0,0.0,0.0,0.0,0.0,0.0,0.0,0.0,0.0,0.0,0.0,0.0,0.0,0.0,0.0,0.0,0.0,0.0,0.0,0.0,0.0,0.0,0.0,0.0,0.0,0.0,0.0,0.0,0.0,0.0,0.0,0.0,0.0,0.0,0.0,0.0,0.0,0.0,0.0,0.0,0.0,0.0,0.0,0.0,0.0,0.0,0.0,0.0,0.0,0.0,0.0,0.0,0.0,0.0,0.0,0.0,0.0,0.0,0.0,0.0,0.0,0.0,0.0,0.0,0.0,0.0,0.0,0.0,0.0,0.0,0.0,0.0,0.0,0.0,0.0,0.0,0.0,0.0,0.0,0.0,0.0,0.0,0.0,0.0,0.0,0.0,0.0,0.0,0.0,0.0,0.0,0.0,0.0,0.0,0.0,0.0,0.0,0.0,0.0,0.0,0.0,0.0,0.0,0.0,0.0,0.0,0.0,0.0,-5.5649,-5.5573,-5.6399,-5.651,-5.5692,-5.6527,-5.656,0.0,0.0,0.0,0.0,0.0,0.0,0.0,0.0,0.0,0.0,0.0,0.0,0.0,0.0,0.0,0.0,0.0,0.0,0.0,0.0,0.0,0.0,0.0,0.0,0.0,0.0,0.0,0.0,0.0,0.0,0.0,0.0,0.0,0.0,0.0,0.0,0.0,0.0,0.0,0.0,0.0,0.0,0.0,0.0,0.0,0.0,0.0,0.0,0.0,0.0,0.0,0.0,0.0,0.0,0.0,0.0,0.0,0.0,0.0,0.0,0.0,0.0,0.0,0.0,0.0,0.0,0.0,0.0,0.0,0.0,0.0,0.0,0.0,0.0,0.0,0.0,0.0,0.0,0.0,0.0,0.0,0.0,0.0,0.0,0.0,0.0,0.0,0.0,0.0,0.0,0.0,0.0,0.0,0.0,0.0,0.0,0.0,0.0,0.0,0.0,0.0,0.0,0.0,0.0,0.0,0.0,0.0,0.0,0.0,-5.5523,-5.5777,-5.5838,-5.5615,-5.5868,-5.5929,0.0,0.0,0.0,0.0,0.0,0.0,0.0,0.0,0.0,0.0,0.0,0.0,0.0,0.0,0.0,0.0,0.0,0.0,0.0,0.0,0.0,0.0,0.0,0.0,0.0,0.0,0.0,0.0,0.0,0.0,0.0,0.0,0.0,0.0,0.0,0.0,0.0,0.0,0.0,0.0,0.0,0.0,0.0,0.0,0.0,0.0,0.0,0.0,0.0,0.0,0.0,0.0,0.0,0.0,0.0,0.0,0.0,0.0,0.0,0.0,0.0,0.0,0.0,0.0,0.0,0.0,0.0,0.0,0.0,0.0,0.0,0.0,0.0,0.0,0.0,0.0,0.0,0.0,0.0,0.0,0.0,0.0,0.0,0.0,0.0,0.0,0.0,0.0,0.0,0.0,0.0,0.0,0.0,0.0,0.0,0.0,0.0,0.0,0.0,0.0,0.0,0.0,0.0,0.0,0.0,0.0,0.0,0.0,0.0,-5.5823,-5.5923,-5.5818,-5.5508,-5.59,-5.5934,-5.5671,0.0,0.0,0.0,0.0,0.0,0.0,0.0,0.0,0.0,0.0,0.0,0.0,0.0,0.0,0.0,0.0,0.0,0.0,0.0,0.0,0.0,0.0,0.0,0.0,0.0,0.0,0.0,0.0,0.0,0.0,0.0,0.0,0.0,0.0,0.0,0.0,0.0,0.0,0.0,0.0,0.0,0.0,0.0,0.0,0.0,0.0,0.0,0.0,0.0,0.0,0.0,0.0,0.0,0.0,0.0,0.0,0.0,0.0,0.0,0.0,0.0,0.0,0.0,0.0,0.0,0.0,0.0,0.0,0.0,0.0,0.0,0.0,0.0,0.0,0.0,0.0,0.0,0.0,0.0,0.0,0.0,0.0,0.0,0.0,0.0,0.0,0.0,0.0,0.0,0.0,0.0,0.0,0.0,0.0,0.0,0.0,0.0,0.0,0.0,0.0,0.0,0.0,0.0,0.0,0.0,0.0,0.0,0.0,-5.6466,-5.6639,-5.6371,-5.5606,-5.6494,-5.6564,0.0,0.0,0.0,0.0,0.0,0.0,0.0,0.0,0.0,0.0,0.0,0.0,0.0,0.0,0.0,0.0,0.0,0.0,0.0,0.0,0.0,0.0,0.0,0.0,0.0,0.0,0.0,0.0,0.0,0.0,0.0,0.0,0.0,0.0,0.0,0.0,0.0,0.0,0.0,0.0,0.0,0.0,0.0,0.0,0.0,0.0,0.0,0.0,0.0,0.0,0.0,0.0,0.0,0.0,0.0,0.0,0.0,0.0,0.0,0.0,0.0,0.0,0.0,0.0,0.0,0.0,0.0,0.0,0.0,0.0,0.0,0.0,0.0,0.0,0.0,0.0,0.0,0.0,0.0,0.0,0.0,0.0,0.0,0.0,0.0,0.0,0.0,0.0,0.0,0.0,0.0,0.0,0.0,0.0,0.0,0.0,0.0,0.0,0.0,0.0,0.0,0.0,0.0,0.0,0.0,0.0,0.0,0.0,0.0,-5.6359,-5.7049,-5.7309,-5.7187,-5.7532,-5.7364,0.0,0.0,0.0,0.0,0.0,0.0,0.0,0.0,0.0,0.0,0.0,0.0,0.0,0.0,0.0,0.0,0.0,0.0,0.0,0.0,0.0,0.0,0.0,0.0,0.0,0.0,0.0,0.0,0.0,0.0,0.0,0.0,0.0,0.0,0.0,0.0,0.0,0.0,0.0,0.0,0.0,0.0,0.0,0.0,0.0,0.0,0.0,0.0,0.0,0.0,0.0,0.0,0.0,0.0,0.0,0.0,0.0,0.0,0.0,0.0,0.0,0.0,0.0,0.0,0.0,0.0,0.0,0.0,0.0,0.0,0.0,0.0,0.0,0.0,0.0,0.0,0.0,0.0,0.0,0.0,0.0,0.0,0.0,0.0,0.0,0.0,0.0,0.0,0.0,0.0,0.0,0.0,0.0,0.0,0.0,0.0,0.0,0.0,0.0,0.0,0.0,0.0,0.0,0.0,0.0,0.0,0.0,0.0,-5.4378,-5.6679,-5.7241,-5.787,-5.8682,-5.8547,-5.794,0.0,0.0,0.0,0.0,0.0,0.0,0.0,0.0,0.0,0.0,0.0,0.0,0.0,0.0,0.0,0.0,0.0,0.0,0.0,0.0,0.0,0.0,0.0,0.0,0.0,0.0,0.0,0.0,0.0,0.0,0.0,0.0,0.0,0.0,0.0,0.0,0.0,0.0,0.0,0.0,0.0,0.0,0.0,0.0,0.0,0.0,0.0,0.0,0.0,0.0,0.0,0.0,0.0,0.0,0.0,0.0,0.0,0.0,0.0,0.0,0.0,0.0,0.0,0.0,0.0,0.0,0.0,0.0,0.0,0.0,0.0,0.0,0.0,0.0,0.0,0.0,0.0,0.0,0.0,0.0,0.0,0.0,0.0,0.0,0.0,0.0,0.0,0.0,0.0,0.0,0.0,0.0,0.0,0.0,0.0,0.0,0.0,0.0,0.0,0.0,0.0,0.0,0.0,0.0,0.0,0.0,0.0,0.0,-5.3967,-5.7089,-5.7321,-5.8164,-5.9755,-5.9458,-5.8446,0.0,0.0,0.0,0.0,0.0,0.0,0.0,0.0,0.0,0.0,0.0,0.0,0.0,0.0,0.0,0.0,0.0,0.0,0.0,0.0,0.0,0.0,0.0,0.0,0.0,0.0,0.0,0.0,0.0,0.0,0.0,0.0,0.0,0.0,0.0,0.0,0.0,0.0,0.0,0.0,0.0,0.0,0.0,0.0,0.0,0.0,0.0,0.0,0.0,0.0,0.0,0.0,0.0,0.0,0.0,0.0,0.0,0.0,0.0,0.0,0.0,0.0,0.0,0.0,0.0,0.0,0.0,0.0,0.0,0.0,0.0,0.0,0.0,0.0,0.0,0.0,0.0,0.0,0.0,0.0,0.0,0.0,0.0,0.0,0.0,0.0,0.0,0.0,0.0,0.0,0.0,0.0,0.0,0.0,0.0,0.0,0.0,0.0,0.0,0.0,0.0,0.0,0.0,0.0,0.0,0.0,0.0,0.0,-5.444,-5.7045,-5.7175,-5.7968,-5.963,-5.9924,-5.9269,0.0,0.0,0.0,0.0,0.0,0.0,0.0,0.0,0.0,0.0,0.0,0.0,0.0,0.0,0.0,0.0,0.0,0.0,0.0,0.0,0.0,0.0,0.0,0.0,0.0,0.0,0.0,0.0,0.0,0.0,0.0,0.0,0.0,0.0,0.0,0.0,0.0,0.0,0.0,0.0,0.0,0.0,0.0,0.0,0.0,0.0,0.0,0.0,-5.0627,0.0,0.0,0.0,0.0,0.0,0.0,0.0,0.0,0.0,0.0,0.0,0.0,0.0,0.0,0.0,0.0,0.0,0.0,0.0,0.0,0.0,0.0,0.0,0.0,0.0,0.0,0.0,0.0,0.0,0.0,0.0,0.0,0.0,0.0,0.0,0.0,0.0,0.0,0.0,0.0,0.0,0.0,0.0,0.0,0.0,0.0,0.0,0.0,0.0,0.0,0.0,0.0,0.0,0.0,0.0,0.0,0.0,0.0,0.0,-5.4418,-5.6825,-5.6972,-5.7797,-5.9379,-5.9885,-5.9322,0.0,0.0,0.0,0.0,0.0,0.0,0.0,0.0,0.0,0.0,0.0,0.0,0.0,0.0,0.0,0.0,0.0,0.0,0.0,0.0,0.0,0.0,0.0,0.0,0.0,0.0,0.0,0.0,0.0,0.0,0.0,0.0,0.0,0.0,0.0,0.0,0.0,0.0,0.0,0.0,0.0,0.0,0.0,0.0,0.0,0.0,0.0,0.0,0.0,0.0,0.0,0.0,0.0,0.0,0.0,0.0,0.0,0.0,0.0,0.0,0.0,0.0,0.0,0.0,0.0,0.0,0.0,0.0,0.0,0.0,0.0,0.0,0.0,0.0,0.0,0.0,0.0,0.0,0.0,0.0,0.0,0.0,0.0,0.0,0.0,0.0,0.0,0.0,0.0,0.0,0.0,0.0,0.0,0.0,0.0,0.0,0.0,0.0,0.0,0.0,0.0,0.0,0.0,0.0,0.0,0.0,0.0,-5.2853,-5.4328,-5.6574,-5.6797,-5.7639,-5.9234,-5.9499,-5.8943,-5.7522,0.0,0.0,0.0,0.0,0.0,0.0,0.0,0.0,0.0,0.0,0.0,0.0,0.0,0.0,0.0,0.0,0.0,0.0,0.0,0.0,0.0,0.0,0.0,0.0,0.0,0.0,0.0,0.0,0.0,0.0,0.0,0.0,0.0,0.0,0.0,0.0,0.0,0.0,-4.8573,-4.9806,0.0,0.0,0.0,0.0,0.0,0.0,0.0,0.0,-5.0846,0.0,0.0,0.0,0.0,0.0,0.0,0.0,0.0,0.0,0.0,0.0,0.0,0.0,0.0,0.0,0.0,0.0,0.0,0.0,0.0,0.0,0.0,0.0,0.0,0.0,0.0,0.0,0.0,0.0,0.0,0.0,0.0,0.0,0.0,0.0,0.0,0.0,0.0,0.0,0.0,0.0,0.0,0.0,0.0,0.0,0.0,0.0,0.0,0.0,0.0,0.0,0.0,0.0,0.0,0.0,0.0,-5.1979,-5.3348,-5.4909,-5.6557,-5.6631,-5.7473,-5.914,-5.867,-5.8021,-5.7311,0.0,0.0,0.0,0.0,0.0,0.0,0.0,0.0,0.0,0.0,0.0,0.0,0.0,0.0,0.0,0.0,0.0,0.0,0.0,0.0,0.0,0.0,0.0,0.0,0.0,0.0,0.0,0.0,0.0,0.0,0.0,0.0,0.0,0.0,0.0,0.0,0.0,0.0,0.0,-5.0529,-5.0693,0.0,0.0,0.0,0.0,0.0,0.0,0.0,0.0,-5.0846,0.0,0.0,0.0,0.0,0.0,0.0,0.0,0.0,0.0,0.0,0.0,0.0,0.0,0.0,0.0,0.0,0.0,0.0,0.0,0.0,0.0,0.0,0.0,0.0,0.0,0.0,0.0,0.0,0.0,0.0,0.0,0.0,0.0,0.0,0.0,0.0,0.0,0.0,0.0,0.0,0.0,0.0,0.0,0.0,0.0,0.0,0.0,0.0,0.0,0.0,0.0,0.0,0.0,0.0,0.0,-5.2006,-5.3409,-5.4931,-5.6443,-5.648,-5.7283,-5.8947,-5.8428,-5.7803,0.0,0.0,0.0,0.0,0.0,0.0,0.0,0.0,0.0,0.0,0.0,0.0,0.0,0.0,0.0,0.0,0.0,0.0,0.0,0.0,0.0,0.0,0.0,0.0,0.0,0.0,0.0,0.0,0.0,0.0,0.0,0.0,0.0,0.0,0.0,0.0,0.0,0.0,0.0,0.0,-5.1048,-5.1327,-5.1308,0.0,0.0,0.0,0.0,0.0,0.0,-5.0961,-5.0892,0.0,0.0,0.0,0.0,0.0,0.0,0.0,0.0,0.0,0.0,0.0,0.0,0.0,0.0,0.0,0.0,0.0,0.0,0.0,0.0,0.0,0.0,0.0,0.0,0.0,0.0,0.0,0.0,0.0,0.0,0.0,0.0,0.0,0.0,0.0,0.0,0.0,0.0,0.0,0.0,0.0,0.0,0.0,0.0,0.0,0.0,0.0,0.0,0.0,0.0,0.0,0.0,0.0,0.0,0.0,-5.1882,-5.332,-5.482,-5.629,-5.6364,-5.7203,-5.8825,-5.8184,-5.7543,0.0,0.0,0.0,0.0,0.0,0.0,0.0,0.0,0.0,0.0,0.0,0.0,0.0,0.0,0.0,0.0,0.0,0.0,0.0,0.0,0.0,0.0,0.0,0.0,0.0,0.0,0.0,0.0,0.0,0.0,0.0,0.0,0.0,0.0,0.0,0.0,0.0,0.0,0.0,0.0,0.0,-5.1875,-5.1875,-5.2058,0.0,0.0,0.0,0.0,-5.1891,-5.1373,0.0,0.0,0.0,0.0,0.0,0.0,0.0,0.0,0.0,0.0,0.0,0.0,0.0,0.0,0.0,0.0,0.0,0.0,0.0,0.0,0.0,0.0,0.0,0.0,0.0,0.0,0.0,0.0,0.0,0.0,0.0,0.0,0.0,0.0,0.0,0.0,0.0,0.0,0.0,0.0,0.0,0.0,0.0,0.0,0.0,0.0,0.0,0.0,0.0,0.0,0.0,0.0,0.0,0.0,0.0,0.0,-5.1714,-5.3287,-5.482,-5.6229,-5.6303,-5.7124,-5.8825,-5.7526,-5.6799,0.0,0.0,0.0,0.0,0.0,0.0,0.0,0.0,0.0,0.0,0.0,0.0,0.0,0.0,0.0,0.0,0.0,0.0,0.0,0.0,0.0,0.0,0.0,0.0,0.0,0.0,0.0,0.0,0.0,0.0,0.0,0.0,0.0,0.0,0.0,0.0,0.0,0.0,0.0,0.0,0.0,-5.1823,-5.1823,-5.2434,-5.29,0.0,0.0,-5.2746,-5.2839,-5.2121,0.0,0.0,0.0,0.0,0.0,0.0,0.0,0.0,0.0,0.0,0.0,0.0,0.0,0.0,0.0,0.0,0.0,0.0,0.0,0.0,0.0,0.0,0.0,0.0,0.0,0.0,0.0,0.0,0.0,0.0,0.0,0.0,0.0,0.0,0.0,0.0,0.0,0.0,0.0,0.0,0.0,0.0,0.0,0.0,0.0,0.0,0.0,0.0,0.0,0.0,0.0,0.0,0.0,0.0,0.0,-5.1554,-5.1643,-5.2821,-5.4373,-5.6209,-5.632,-5.686,-5.8053,-5.7056,-5.637,0.0,0.0,0.0,0.0,0.0,0.0,0.0,0.0,0.0,0.0,0.0,0.0,0.0,0.0,0.0,0.0,0.0,0.0,0.0,0.0,0.0,0.0,0.0,0.0,0.0,0.0,0.0,0.0,0.0,0.0,0.0,0.0,0.0,0.0,0.0,0.0,0.0,0.0,0.0,0.0,0.0,0.0,-5.2543,-5.3218,0.0,0.0,0.0,-5.3123,-5.3551,0.0,0.0,0.0,0.0,0.0,0.0,0.0,0.0,0.0,0.0,0.0,0.0,0.0,0.0,0.0,0.0,0.0,0.0,0.0,0.0,0.0,0.0,0.0,0.0,0.0,0.0,0.0,0.0,0.0,0.0,0.0,0.0,0.0,0.0,0.0,0.0,0.0,0.0,0.0,0.0,0.0,0.0,0.0,0.0,0.0,0.0,0.0,0.0,0.0,0.0,0.0,0.0,0.0,0.0,0.0,0.0,0.0,-5.1588,-5.2447,-5.3907,-5.5874,-5.6172,-5.658,-5.7175,-5.668,0.0,0.0,0.0,0.0,0.0,0.0,0.0,0.0,0.0,0.0,0.0,0.0,0.0,0.0,0.0,0.0,0.0,0.0,0.0,0.0,0.0,0.0,0.0,0.0,0.0,0.0,0.0,-4.6837,0.0,0.0,0.0,0.0,0.0,0.0,0.0,0.0,0.0,0.0,0.0,0.0,0.0,0.0,-5.3163,-5.3333,-5.4055,-5.4571,0.0,0.0,-5.3793,-5.4345,-5.3221,-5.2426,0.0,0.0,0.0,0.0,0.0,0.0,0.0,0.0,0.0,0.0,0.0,0.0,0.0,0.0,0.0,0.0,0.0,0.0,0.0,0.0,0.0,0.0,0.0,0.0,0.0,0.0,0.0,0.0,0.0,0.0,0.0,0.0,0.0,0.0,0.0,0.0,0.0,0.0,0.0,0.0,0.0,0.0,0.0,0.0,0.0,0.0,0.0,0.0,0.0,0.0,0.0,0.0,0.0,0.0,-5.1186,-5.1605,-5.2485,-5.3609,-5.5057,-5.5874,-5.632,-5.6357,-5.6382,-5.6031,0.0,0.0,0.0,0.0,0.0,0.0,0.0,0.0,0.0,0.0,0.0,0.0,0.0,0.0,0.0,0.0,0.0,0.0,0.0,0.0,0.0,0.0,0.0,0.0,0.0,0.0,0.0,0.0,0.0,0.0,0.0,0.0,0.0,0.0,0.0,0.0,0.0,0.0,0.0,0.0,0.0,-5.3276,-5.4023,-5.4842,-5.5339,0.0,-5.525,-5.525,-5.5288,-5.4537,-5.3708,-5.3004,0.0,0.0,0.0,0.0,0.0,0.0,0.0,0.0,0.0,0.0,0.0,0.0,0.0,0.0,0.0,0.0,0.0,0.0,0.0,0.0,0.0,0.0,0.0,0.0,0.0,0.0,0.0,0.0,0.0,0.0,0.0,0.0,0.0,0.0,0.0,0.0,0.0,0.0,0.0,0.0,0.0,0.0,0.0,0.0,0.0,0.0,0.0,0.0,0.0,0.0,0.0,0.0,0.0,-5.065,-5.1588,-5.1924,-5.3049,-5.4909,-5.5295,-5.5461,-5.5503,-5.552,-5.5151,0.0,0.0,0.0,0.0,0.0,0.0,0.0,0.0,0.0,0.0,0.0,0.0,0.0,0.0,0.0,0.0,0.0,0.0,0.0,0.0,0.0,0.0,0.0,0.0,0.0,0.0,0.0,0.0,-4.7826,-4.8189,-4.8698,0.0,0.0,0.0,0.0,0.0,0.0,0.0,0.0,0.0,0.0,-5.323,-5.4075,-5.4906,0.0,0.0,-5.539,-5.539,-5.539,-5.4218,-5.3199,-5.2879,-5.1732,0.0,0.0,0.0,0.0,0.0,0.0,0.0,0.0,0.0,0.0,0.0,0.0,0.0,0.0,0.0,0.0,0.0,0.0,0.0,0.0,0.0,0.0,0.0,0.0,0.0,0.0,0.0,0.0,0.0,0.0,0.0,0.0,0.0,0.0,0.0,0.0,0.0,0.0,0.0,0.0,0.0,0.0,0.0,0.0,0.0,0.0,0.0,0.0,0.0,0.0,0.0,0.0,-5.0319,-5.1588,-5.1591,-5.2566,-5.459,-5.4828,-5.4808,-5.4627,-5.4808,-5.4608,0.0,0.0,0.0,0.0,0.0,0.0,0.0,0.0,0.0,0.0,0.0,0.0,0.0,0.0,0.0,0.0,0.0,0.0,0.0,0.0,0.0,0.0,0.0,0.0,0.0,0.0,0.0,0.0,-4.835,-4.8569,-4.9105,0.0,0.0,0.0,0.0,0.0,0.0,0.0,0.0,0.0,0.0,-5.331,-5.4395,-5.5046,-5.539,-5.539,-5.539,-5.539,-5.539,-5.4371,-5.3492,-5.3225,0.0,0.0,0.0,0.0,0.0,0.0,0.0,0.0,0.0,0.0,0.0,0.0,0.0,0.0,0.0,0.0,0.0,0.0,0.0,0.0,0.0,0.0,0.0,0.0,0.0,0.0,0.0,-5.5313,0.0,0.0,-5.5075,0.0,0.0,0.0,0.0,0.0,0.0,0.0,0.0,0.0,0.0,0.0,0.0,0.0,0.0,0.0,0.0,0.0,0.0,0.0,0.0,0.0,0.0,-5.0356,-5.1588,-5.1558,-5.2233,-5.3714,-5.4491,-5.4509,-5.3825,-5.4472,-5.4531,-5.3831,0.0,0.0,0.0,0.0,0.0,0.0,0.0,0.0,0.0,0.0,0.0,0.0,0.0,0.0,0.0,0.0,0.0,0.0,0.0,0.0,0.0,0.0,0.0,0.0,0.0,0.0,-4.9188,-4.9067,-4.9071,0.0,0.0,0.0,0.0,0.0,0.0,0.0,0.0,0.0,-5.2633,-5.2889,-5.3477,-5.5148,-5.5403,-5.539,-5.539,-5.539,-5.539,-5.539,-5.5326,-5.5059,0.0,0.0,0.0,0.0,0.0,0.0,0.0,0.0,0.0,0.0,0.0,0.0,0.0,0.0,0.0,0.0,0.0,0.0,0.0,0.0,0.0,0.0,0.0,0.0,0.0,0.0,0.0,-5.514,-5.5181,0.0,0.0,0.0,0.0,0.0,0.0,0.0,0.0,0.0,0.0,0.0,-5.3394,-5.3095,0.0,0.0,0.0,0.0,0.0,0.0,0.0,0.0,0.0,0.0,0.0,0.0,-5.0772,-5.1551,-5.208,-5.2754,-5.3676,-5.3857,-5.3894,-5.3694,-5.3857,-5.3657,-5.3014,0.0,0.0,0.0,0.0,0.0,0.0,0.0,0.0,0.0,0.0,0.0,0.0,0.0,0.0,0.0,0.0,0.0,0.0,0.0,0.0,0.0,0.0,0.0,0.0,0.0,-5.0275,0.0,0.0,0.0,0.0,0.0,0.0,0.0,0.0,0.0,0.0,-5.0187,-5.0991,-5.2612,-5.2841,-5.3441,-5.5174,-5.539,-5.539,0.0,0.0,0.0,0.0,0.0,0.0,0.0,0.0,0.0,0.0,0.0,0.0,0.0,0.0,-5.3895,-5.2817,-5.2601,-5.2511,-5.2245,0.0,0.0,0.0,0.0,0.0,0.0,0.0,0.0,0.0,0.0,0.0,0.0,0.0,0.0,-5.4927,-5.4985,-5.5,0.0,0.0,0.0,0.0,0.0,0.0,0.0,0.0,-5.4,-5.3721,-5.3199,-5.2938,-5.2508,-5.1984,-5.1775,-5.1303,0.0,0.0,0.0,0.0,0.0,0.0,0.0,0.0,-5.0921,-5.1573,-5.2287,-5.2958,-5.358,-5.3558,-5.3558,-5.3654,-5.3617,-5.3288,-5.2642,-5.214,-5.1448,0.0,0.0,0.0,0.0,0.0,0.0,0.0,0.0,0.0,0.0,0.0,0.0,0.0,0.0,0.0,0.0,0.0,0.0,0.0,0.0,0.0,0.0,0.0,-5.0356,0.0,0.0,0.0,0.0,0.0,0.0,0.0,0.0,0.0,-4.9901,-5.0397,-5.1276,-5.2614,-5.3072,-5.376,-5.5212,0.0,0.0,0.0,0.0,0.0,0.0,0.0,-5.4537,-5.4434,-5.3899,-5.363,-5.3826,-5.4344,-5.4952,-5.575,0.0,0.0,-5.3726,-5.3408,-5.3318,-5.3052,-5.3428,-5.3689,-5.3299,-5.3671,-5.4012,0.0,0.0,0.0,0.0,-5.7054,0.0,0.0,0.0,-5.4673,-5.472,0.0,-5.4799,0.0,0.0,0.0,0.0,-5.4109,-5.4037,0.0,0.0,-5.3794,-5.3794,-5.3757,-5.3014,-5.268,-5.2679,-5.1989,-5.1596,-5.1588,-5.1206,0.0,0.0,0.0,0.0,0.0,0.0,-5.082,-5.1505,-5.2271,-5.2956,-5.3464,-5.3501,-5.3501,-5.3538,-5.3678,-5.3404,-5.2717,-5.2605,-5.1899,-5.0425,-5.0464,0.0,0.0,0.0,0.0,0.0,0.0,0.0,0.0,0.0,0.0,0.0,0.0,0.0,0.0,0.0,0.0,0.0,0.0,0.0,0.0,-5.0283,0.0,0.0,0.0,0.0,0.0,0.0,0.0,0.0,0.0,-5.0092,-4.9454,-5.0627,-5.1926,-5.2728,0.0,0.0,0.0,0.0,-5.539,-5.539,-5.539,-5.539,-5.5441,-5.5441,-5.5377,-5.5311,0.0,0.0,-5.6088,-5.6209,-5.6452,-5.7232,-5.7324,-5.6922,-5.5365,-5.5017,-5.4769,-5.4086,-5.511,-5.5837,-5.523,-5.5971,-5.6981,-5.9346,0.0,0.0,0.0,0.0,-5.6538,-5.6108,-5.5919,-5.5515,-5.5354,-5.54,-5.4953,0.0,0.0,0.0,0.0,0.0,0.0,-5.3926,-5.3794,-5.3794,-5.3794,-5.3794,-5.3571,-5.3479,-5.346,-5.3237,-5.2865,-5.2325,-5.2245,-5.154,-5.0284,0.0,0.0,0.0,0.0,-5.1297,-5.158,-5.2791,-5.3532,-5.3637,-5.3637,-5.3617,-5.3617,-5.3754,-5.3683,-5.346,-5.2902,-5.2159,-5.1207,-5.0695,0.0,0.0,0.0,0.0,0.0,0.0,0.0,0.0,0.0,0.0,0.0,0.0,0.0,0.0,0.0,0.0,0.0,0.0,0.0,-5.0224,-5.0224,-5.0224,0.0,0.0,0.0,0.0,0.0,0.0,0.0,0.0,0.0,-5.1697,-5.1658,-5.2117,0.0,0.0,-5.4409,-5.5288,-5.539,-5.539,-5.539,-5.539,0.0,-5.6167,-5.6243,-5.6446,-5.6951,-5.6916,-5.6861,-5.702,-5.7043,-5.7118,-5.7384,-5.7422,-5.7248,-5.6846,-5.6679,-5.6588,-5.6436,-5.6739,-5.6989,-5.6705,-5.703,-5.7262,-6.0004,-5.9032,-5.7877,-5.7394,-5.732,-5.66,-5.6325,-5.6385,-5.6033,-5.5805,-5.559,-5.5136,-5.4723,-5.4388,-5.4306,0.0,0.0,0.0,-5.3888,-5.3794,-5.3794,-5.3794,-5.3794,-5.3794,-5.3794,-5.3794,-5.3794,-5.3571,-5.3088,-5.281,-5.2213,-5.133,0.0,-5.0181,-5.0223,-5.1372,-5.1971,-5.1972,-5.3144,-5.3774,-5.3714,-5.3694,-5.3694,-5.3714,-5.3774,-5.3794,-5.3794,-5.3348,-5.2587,-5.1526,-5.1056,-5.0409,0.0,0.0,0.0,0.0,0.0,0.0,0.0,0.0,0.0,0.0,0.0,-5.0248,-5.0126,0.0,0.0,0.0,-5.0214,-5.0238,-5.0188,-5.0163,0.0,0.0,0.0,0.0,0.0,0.0,0.0,-5.1964,-5.2079,-5.2384,-5.3187,-5.2881,-5.2957,-5.3989,-5.4409,-5.483,-5.5326,0.0,-5.5517,-5.5823,-5.5899,-5.6167,-5.6969,-5.7122,-5.7262,-5.7714,-5.7639,-5.765,-5.7985,-5.7954,-5.8037,-5.8341,-5.8439,-5.8369,-5.8369,-5.8369,-5.8104,-5.7535,-5.7687,-5.7883,-5.7802,-5.8051,-5.8245,-6.102,-5.9403,-5.7943,-5.7263,-5.7137,-5.6541,-5.631,-5.6375,-5.6476,-5.6182,-5.5583,-5.5416,-5.493,-5.429,-5.4111,0.0,-5.3794,-5.3794,-5.3831,-5.3794,-5.3813,-5.3813,-5.3794,-5.385,-5.3794,-5.3794,-5.3794,-5.3794,-5.3757,-5.3088,-5.2679,-5.2679,-5.2062,-5.1705,-5.1542,-5.2269,-5.2642,-5.2605,-5.3385,-5.3774,-5.3714,-5.3714,-5.3714,-5.3714,-5.3774,-5.3794,-5.3794,-5.3794,-5.3088,-5.1602,-5.1507,-5.0847,-4.9498,0.0,0.0,0.0,0.0,0.0,0.0,0.0,0.0,0.0,0.0,0.0,0.0,0.0,0.0,0.0,-5.0076,0.0,-5.0175,-5.0126,0.0,0.0,0.0,-5.0644,-5.1493,-5.1646,-5.2002,-5.2805,0.0,0.0,-5.4104,-5.4218,-5.4218,-5.4295,-5.4944,-5.539,-5.5479,-5.5517,-5.5785,-5.6587,-5.6715,-5.7008,-5.7848,-5.8077,-5.8165,-5.8172,-5.7911,-5.8172,-5.8828,-5.8935,-5.9231,-5.9763,-5.9928,-5.988,-5.988,-5.9804,-5.9463,-5.7984,-5.8271,-5.877,-5.8667,-5.9164,-5.9622,-6.1422,-6.0402,-5.9427,-5.8607,-5.7929,-5.7876,-5.7873,-5.7925,-5.7595,-5.706,-5.6295,-5.5787,-5.502,-5.4127,-5.4037,-5.3926,-5.3794,-5.3907,-5.3944,-5.3944,-5.4,-5.3981,-5.3944,-5.3944,-5.3907,-5.3794,-5.3794,-5.3794,-5.3794,-5.3608,-5.3534,-5.3497,-5.3349,-5.2661,-5.149,-5.2233,-5.2624,-5.2605,-5.3385,-5.3812,-5.3793,-5.3793,-5.3793,-5.3793,-5.3812,-5.3794,-5.3794,-5.3794,-5.3348,-5.2382,-5.1786,-5.1074,-5.0185,-4.961,0.0,0.0,0.0,0.0,0.0,0.0,0.0,0.0,0.0,-4.9876,-4.9778,0.0,-4.9903,0.0,-5.0025,-5.0076,-5.0038,-5.0063,0.0,0.0,-5.0773,-5.128,-5.157,-5.2155,-5.2843,-5.3683,-5.3798,-5.4142,-5.4982,-5.5097,-5.5326,-5.5899,-5.567,-5.5632,-5.6167,-5.6282,-5.6625,-5.739,-5.7581,-5.7886,-5.8689,-5.9376,-5.9745,-5.9736,-5.9669,-5.9701,-5.9794,-5.9817,-5.984,-6.003,-6.0053,-6.0038,-6.0038,-6.0038,-5.9962,-5.9528,-5.9564,-5.962,-5.9566,-5.9739,-5.9853,-6.2119,-6.126,-6.0529,-5.9716,-5.8939,-5.8671,-5.8551,-5.854,-5.8418,-5.7883,-5.7118,-5.6012,-5.5207,-5.4614,-5.4223,-5.3981,-5.3926,-5.4037,-5.4055,-5.4055,-5.4073,-5.4073,-5.4055,-5.4055,-5.4019,-5.3926,-5.3926,-5.3907,-5.3907,-5.3907,-5.3869,-5.3794,-5.3794,-5.3385,-5.2531,-5.2902,-5.3125,-5.3125,-5.3571,-5.3794,-5.3794,-5.3794,-5.3794,-5.3794,-5.3794,-5.3794,-5.3794,-5.3794,-5.346,-5.2642,-5.2196,-5.1487,-5.0437,-4.9998,-4.9701,0.0,0.0,0.0,0.0,0.0,0.0,0.0,0.0,0.0,0.0,0.0,-4.9807,-4.9917,-4.9946,-5.0164,-5.0608,-5.0646,-5.0786,-5.1231,-5.1726,-5.2196,-5.2639,-5.311,-5.3722,-5.4562,-5.4677,-5.4868,-5.5365,-5.5708,-5.6091,-5.6549,-5.6549,-5.6664,-5.7046,-5.716,-5.7466,-5.8307,-5.8421,-5.8727,-5.9568,-6.0064,-6.0408,-6.0352,-6.0352,-6.0323,-6.0256,-6.0212,-6.0182,-6.0182,-6.0152,-6.0099,-6.0099,-6.0099,-6.0099,-6.0084,-6.0022,-5.9998,-5.995,-5.995,-5.9934,-6.2937,-6.2031,-6.133,-6.0624,-5.9892,-5.9074,-5.8739,-5.876,-5.8925,-5.8614,-5.7829,-5.6349,-5.562,-5.5417,-5.4632,-5.4258,-5.4258,-5.4146,-5.4127,-5.4127,-5.4145,-5.4145,-5.4145,-5.4127,-5.4127,-5.4091,-5.4091,-5.4092,-5.4019,-5.4019,-5.3963,-5.3832,-5.3832,-5.3832,-5.3832,-5.3832,-5.3813,-5.3794,-5.3794,-5.3794,-5.3794,-5.3794,-5.3794,-5.3794,-5.3794,-5.3794,-5.3794,-5.3794,-5.3497,-5.2791,-5.2679,-5.201,-5.0686,-5.0474,-5.0127,0.0,-4.9543,0.0,0.0,0.0,0.0,0.0,0.0,0.0,0.0,-4.9648,-4.9788,-5.0003,-5.0069,-5.0478,-5.1446,-5.1483,-5.18,-5.2577,-5.2819,-5.3239,-5.3976,-5.418,-5.4562,-5.5326,-5.539,-5.5441,-5.5594,-5.6205,-5.66,-5.7008,-5.7581,-5.8039,-5.823,-5.8154,-5.8345,-5.9147,-5.9262,-5.9529,-6.0141,-6.0384,-6.0408,-6.0384,-6.037,-6.0384,-6.037,-6.0352,-6.0308,-6.0294,-6.0212,-6.0129,-6.0129,-6.0167,-6.0129,-6.0144,-6.0129,-6.0099,-6.0022,-6.0029,-6.0013,-6.3267,-6.2448,-6.1715,-6.0957,-6.0177,-5.9435,-5.9041,-5.8945,-5.91,-5.8765,-5.8015,-5.7057,-5.6553,-5.6387,-5.5601,-5.5191,-5.5062,-5.4517,-5.4288,-5.4357,-5.4405,-5.4405,-5.4357,-5.432,-5.4251,-5.4109,-5.4091,-5.4091,-5.4073,-5.4073,-5.4073,-5.4036,-5.4036,-5.4036,-5.4036,0.0,0.0,0.0,-5.3794,-5.3794,-5.3794,-5.3794,-5.3794,-5.3794,-5.3794,0.0,-5.3794,-5.3794,-5.3757,-5.3571,-5.294,0.0,0.0,0.0,0.0,0.0,0.0,0.0,0.0,0.0,0.0,0.0,-4.9521,-4.9536,-4.9521,-4.9642,-4.9971,-5.0656,-5.087,-5.1309,-5.2202,-5.2332,-5.2462,-5.2692,-5.3404,-5.39,-5.4104,-5.4715,-5.525,-5.5352,-5.539,-5.567,-5.6282,-5.6511,-5.7122,-5.8345,-5.8751,-5.9185,-5.9797,-5.9262,-5.9224,-5.995,-6.0064,-6.0179,-6.0384,-6.0384,-6.0384,-6.0384,-6.0384,-6.0384,-6.0384,-6.0408,-6.0394,-6.0394,-6.0342,-6.0328,-6.0328,-6.038,-6.0328,-6.0328,-6.0328,-6.0285,-6.0099,-6.0068,-6.0068,-6.3606,-6.3195,-6.2463,-6.1759,0.0,-6.0266,-5.9703,-5.929,-5.9328,-5.9158,-5.8779,-5.7968,-5.7612,-5.7484,-5.6657,-5.6264,-5.6174,-5.585,-5.5714,-5.5747,-5.576,-5.576,-5.571,-5.5333,-5.5095,-5.4972,-5.4614,-5.4337,-5.4233,-5.4271,-5.4198,-5.4109,-5.4091,-5.4091,-5.4091,-5.4091,-5.4055,-5.3944,-5.3944,-5.3944,-5.3944,-5.3944,-5.3926,-5.3907,-5.3907,0.0,0.0,0.0,0.0,0.0,0.0,0.0,0.0,-5.1596,0.0,-5.0546,-4.9808,-4.9443,-4.949,-4.949,-4.949,-4.949,-4.9865,-4.9903,-4.9527,-4.9981,-5.0462,-5.0877,-5.1452,-5.2199,-5.3079,-5.3223,-5.3493,-5.3964,-5.446,-5.4753,-5.4791,-5.5135,-5.5556,-5.5938,-5.5976,-5.632,-5.716,-5.7619,-5.8154,-5.8994,-5.9491,-5.9911,-6.0255,-6.0026,-5.995,-6.0346,-6.0384,-6.0384,-6.0384,-6.0384,-6.0384,-6.0384,-6.0384,-6.0384,-6.0384,-6.0384,-6.0384,-6.0384,-6.0384,-6.0384,-6.0384,-6.0384,-6.0384,-6.0384,-6.0384,-6.0356,-6.027,-6.0226,-6.0182,-6.3937,-6.3904,-6.3242,-6.263,-6.1995,-6.1112,-6.0337,-5.9633,-5.9545,0.0,0.0,-5.8899,-5.8614,-5.8559,-5.7691,-5.7314,-5.7314,-5.7163,-5.7088,-5.7104,-5.7159,-5.7142,-5.7104,-5.6463,-5.6047,-5.588,-5.5239,-5.4759,-5.446,-5.446,-5.4392,-5.4216,-5.4198,-5.4198,-5.4198,-5.4198,-5.4198,-5.4198,-5.4145,-5.4091,-5.4091,-5.4091,-5.4055,-5.4019,-5.4019,-5.3982,-5.3851,-5.3851,-5.3851,-5.3851,-5.3851,-5.3591,-5.2975,-5.2225,-5.1585,-5.1033,-5.0177,-4.97,-4.9715,-4.9565,-4.9565,-4.9693,-5.0498,-5.061,-4.9768,-5.0583,-5.1216,-5.1345,-5.2191,-5.309,-5.4009,-5.4204,-5.4536,-5.5313,-5.539,-5.539,-5.5403,-5.5556,-5.5899,-5.6486,-5.6702,-5.7174,-5.8028,-5.8639,-5.9213,-5.9404,-5.9966,-6.045,-6.0412,-6.0373,-6.0373,-6.0425,-6.0477,-6.0464,-6.0412,-6.0464,-6.0412,-6.0425,-6.0425,-6.045,-6.0436,-6.0436,-6.0422,-6.0384,-6.0384,-6.0384,-6.0384,-6.0384,-6.0384,-6.0422,-6.0523,-6.0599,-6.0599,-6.0695,-6.0751,-6.4125,-6.4169,-6.3462,-6.3182,-6.305,-6.1522,-6.0443,-5.9794,-5.9633,-5.9598,-5.9578,-5.9502,-5.9427,-5.9389,-5.8559,-5.8237,-5.8161,-5.7427,-5.7159,-5.7278,-5.7278,-5.7278,-5.7241,-5.7165,-5.67,-5.5956,-5.5805,-5.5373,-5.4732,-5.4657,-5.4641,-5.4608,-5.4608,-5.4608,-5.4608,-5.4608,-5.4608,-5.4608,-5.4268,-5.4091,-5.4091,-5.4091,-5.4091,-5.4091,-5.4091,-5.4073,-5.4055,-5.4055,-5.4055,-5.4055,-5.4055,-5.3998,-5.3886,-5.3137,-5.2686,-5.2623,-5.1253,-5.0461,-5.0504,-4.9903,-4.9821,-5.056,-5.1403,-5.1516,-5.0726,-5.148,-5.2326,-5.3044,-5.3395,-5.3978,-5.4808,-5.4966,-5.5109,-5.5352,-5.539,-5.539,-5.5441,-5.6052,-5.6511,-5.6715,-5.7275,-5.8028,-5.8846,-5.9127,-5.9574,-6.0188,-6.0418,-6.0584,-6.0661,-6.0506,-6.0493,-6.0571,-6.0597,-6.0597,-6.0648,-6.0584,-6.0737,-6.0559,-6.0661,-6.0749,-6.0709,-6.0696,-6.0682,-6.0474,-6.0589,-6.0537,-6.0499,-6.0384,-6.0537,-6.0651,-6.1019,-6.1402,-6.1478,-6.196,-6.2251,-6.4423,-6.4424,-6.4105,-6.3766,-6.3329,-6.1719,-6.0808,-6.0463,-5.9975,-5.977,-5.977,-5.977,-5.977,-5.9732,-5.9353,-5.9202,-5.9202,-5.8786,-5.8667,-5.87,-5.8748,-5.8764,-5.8726,-5.8356,-5.7939,-5.7475,-5.6557,-5.5882,-5.5457,-5.4994,-5.472,-5.4726,-5.5126,-5.5352,-5.539,-5.5767,-5.601,-5.5956,-5.494,-5.4426,-5.4337,-5.432,-5.4285,-5.4218,-5.4218,-5.4182,-5.4109,-5.4091,-5.4091,-5.4091,-5.4091,-5.4127,-5.4163,-5.3432,-5.298,-5.3065,-5.1978,-5.1351,-5.1447,-5.1155,-5.1126,-5.1533,-5.2325,-5.2642,-5.2311,-5.2643,-5.312,-5.3587,-5.4112,-5.468,-5.513,-5.5248,-5.5326,-5.539,-5.5785,-5.6052,-5.6129,-5.6778,-5.7479,-5.7939,-5.8373,-5.8935,-5.9843,-5.9971,-6.0048,-6.0533,-6.0623,-6.0789,-6.1288,-6.1301,-6.1121,-6.0738,-6.1006,-6.1275,-6.1313,-6.1697,-6.1888,-6.1965,-6.1978,-6.1952,-6.1887,-6.1887,-6.1874,-6.1847,-6.1847,-6.1858,-6.1792,-6.1816,-6.1802,-6.1784,-6.1975,-6.228,-6.2395,-6.3006,-6.3388,-6.4615,-6.4634,-6.4634,-6.4198,-6.3419,-6.2235,-6.151,-6.1093,-6.0465,-6.014,-5.995,-5.9918,-5.9902,-5.9918,-5.9918,-5.9934,-5.995,-5.995,-5.9912,-5.995,-6.0013,-6.0007,-5.9969,-5.9422,-5.9071,-5.8805,-5.749,-5.6747,-5.6383,-5.5739,-5.5428,-5.5404,-5.5993,-5.6295,-5.6295,-5.69,-5.7203,-5.7127,-5.5971,-5.5189,-5.4839,-5.4802,-5.4698,-5.4412,-5.4412,-5.434,-5.4233,-5.4233,-5.4233,-5.4233,-5.4233,-5.4288,-5.4357,-5.3774,-5.3433,-5.3424,-5.2709,-5.2215,-5.2128,-5.2356,-5.2477,-5.2492,-5.3263,-5.3785,-5.3823,-5.3853,-5.3882,-5.4054,-5.4676,-5.513,-5.5222,-5.5517,-5.567,-5.5708,-5.6409,-5.6919,-5.6996,-5.7697,-5.8463,-5.9128,-5.9396,-5.9805,-6.0393,-6.061,-6.0725,-6.0904,-6.0942,-6.1301,-6.208,-6.2285,-6.1953,-6.1608,-6.1787,-6.2171,-6.2247,-6.2669,-6.3028,-6.313,-6.3092,-6.2976,-6.3002,-6.3078,-6.3065,-6.2975,-6.3,-6.2949,-6.2971,-6.2957,-6.2891,-6.2811,-6.2988,-6.3288,-6.3541,-6.4,-6.4473,-6.4615,-6.4689,-6.4707,-6.4251,-6.362,-6.3533,-6.2656,-6.1381,-6.1254,-6.0791,-6.0091,-5.9966,-5.9934,-5.9998,-5.9998,-6.0045,-6.0068,-6.0068,-6.0068,-6.0068,-6.0084,-6.0084,-6.0122,-6.0023,-5.9604,-5.8995,-5.869,-5.8143,-5.7481,-5.7315,-5.7315,-5.7353,-5.7391,-5.7452,-5.7452,-5.7543,-5.7581,-5.7581,-5.7391,-5.6823,-5.5842,-5.5751,-5.5411,-5.4694,-5.4678,-5.4641,-5.4662,-5.4641,-5.4641,-5.4641,-5.4625,-5.4641,-5.4641,-5.4565,-5.4544,-5.4506,-5.3714,-5.2959,-5.2349,-5.2862,-5.3323,-5.3437,-5.4178,-5.4745,-5.4819,-5.489,-5.4943,-5.4966,-5.5102,-5.5246,-5.5273,-5.5988,-5.6486,-5.6562,-5.7302,-5.7864,-5.7992,-5.8655,-5.9192,-5.9281,-5.9958,-6.0521,-6.0673,-6.0762,-6.1094,-6.1861,-6.1937,-6.2245,-6.2988,-6.318,-6.3218,-6.3065,-6.318,-6.3168,-6.3206,-6.3218,-6.3475,-6.3437,-6.3334,-6.3463,-6.3502,-6.3412,-6.3207,-6.3629,-6.3334,-6.3372,-6.3321,-6.3115,-6.323,-6.3496,-6.3824,-6.4341,-6.4932,-6.5146,-6.5184,-6.4799,-6.4835,-6.485,-6.4748,-6.4529,-6.4068,-6.3172,-6.2069,-6.1568,-6.0898,-6.016,-6.006,-6.006,-6.0038,-6.0091,-6.0068,-6.0084,-6.0099,-6.0099,-6.0099,-6.0182,-6.0197,-6.0212,-6.0256,-6.0094,-5.9736,-5.925,-5.8763,-5.8382,-5.7882,-5.7587,-5.7663,-5.8081,-5.8386,-5.8386,-5.8843,-5.9071,-5.9071,-5.9071,-5.8616,-5.7734,-5.7072,-5.6598,-5.6123,-5.5654,-5.539,-5.5352,-5.4953,-5.4689,-5.4689,-5.4689,-5.4689,-5.4689,-5.4689,-5.4689,-5.4689,-5.4418,-5.4087,-5.3808,-5.4155,-5.4366,-5.4439,-5.4772,-5.5042,-5.5071,-5.5597,-5.593,-5.5916,-5.5919,-5.5973,-5.6089,-5.6881,-5.7455,-5.7545,-5.8247,-5.8783,-5.8783,-5.9537,-6.0061,-6.0149,-6.0418,-6.0673,-6.081,-6.1207,-6.1873,-6.2589,-6.282,-6.3166,-6.3897,-6.4089,-6.432,-6.4705,-6.4859,-6.4589,-6.4243,-6.4551,-6.4705,-6.482,-6.482,-6.4808,-6.4718,-6.4782,-6.477,-6.4706,-6.4616,-6.4603,-6.4768,-6.4678,-6.4703,-6.4625,-6.4632,-6.5135,-6.5412,-6.5405,-6.539,-6.4996,-6.5014,-6.5044,-6.5111,-6.5139,-6.4546,-6.3785,-6.2909,-6.2124,-6.1302,-6.054,-6.0273,-6.0159,-6.0197,-6.0182,-6.0167,-6.0159,-6.0197,-6.0159,-6.0212,-6.0294,-6.0323,-6.0337,-6.038,-6.0384,-6.0293,-5.9717,-5.9383,-5.9307,-5.8754,-5.8382,-5.8497,-5.8992,-5.9297,-5.9359,-5.993,-6.0197,-6.0159,-6.0197,-5.9892,-5.9276,-5.8578,-5.787,-5.7251,-5.6668,-5.6365,-5.6327,-5.5608,-5.517,-5.517,-5.4927,-5.4829,-5.4814,-5.4829,-5.4814,-5.4829,-5.486,-5.492,-5.4941,-5.5,-5.5057,-5.5113,-5.5317,-5.5497,-5.5611,-5.6328,-5.6864,-5.6929,-5.712,-5.7223,-5.7072,-5.7826,-5.8323,-5.8413,-5.9153,-5.9664,-5.974,-6.0278,-6.0622,-6.0748,-6.0952,-6.1195,-6.15,-6.205,-6.2743,-6.3474,-6.3666,-6.3974,-6.4705,-6.4974,-6.5166,-6.582,-6.5859,-6.5628,-6.5128,-6.5359,-6.5859,-6.5897,-6.5743,-6.5705,-6.5897,-6.5859,-6.5859,-6.5359,-6.5743,-6.5808,-6.55,-6.5628,-6.5717,-6.5649,-6.5594,-6.5499,-6.5494,-6.545,-6.5405,-6.5199,-6.5199,-6.5161,-6.5215,-6.5177,-6.522,-6.4718,-6.3802,-6.3138,-6.2342,-6.1411,-6.0738,-6.0394,-6.0356,-6.0323,-6.0323,-6.0356,-6.0356,-6.0356,-6.0356,-6.037,-6.0408,-6.0408,-6.0408,-6.0384,-6.0398,-6.0321,-6.0269,-6.0269,-6.0255,-6.0293,-6.0217,-6.0217,-6.0293,-6.0293,-6.0332,-6.037,-6.037,-6.0408,-6.0328,-6.0232,-6.0127,-5.9244,-5.7877,-5.7558,-5.7505,-5.7429,-5.6759,-5.6302,-5.6316,-5.5617,-5.5161,-5.5123,-5.5161,-5.5199,-5.5161,-5.5123,-5.5137,-5.5175,-5.5265,-5.5241,-5.5293,-5.6033,-5.6442,-5.6494,-5.7325,-5.7837,-5.794,-5.8553,-5.8719,-5.8234,-5.8783,-5.9243,-5.9281,-6.0034,-6.0531,-6.0659,-6.0772,-6.0808,-6.1012,-6.1577,-6.2269,-6.3012,-6.3192,-6.3666,-6.4282,-6.4551,-6.482,-6.5474,-6.5743,-6.582,-6.582,-6.5897,-6.5859,-6.582,-6.582,-6.5859,-6.5897,-6.5897,-6.5897,-6.5897,-6.5897,-6.5897,-6.5897,-6.5897,-6.5897,-6.5897,-6.5885,-6.5859,-6.5807,-6.578,-6.5688,-6.5604,-6.5523,-6.5556,-6.5232,-6.5242,-6.528,-6.5274,-6.5337,-6.5368,-6.4909,-6.4123,-6.3832,-6.293,-6.1707,-6.1287,-6.0895,-6.0439,-6.045,-6.0436,-6.0384,-6.0384,-6.0436,-6.0477,-6.0477,-6.0466,-6.0506,-6.0545,-6.0506,-6.0506,-6.0506,-6.0545,-6.0506,-6.0506,-6.0545,-6.0506,-6.0545,-6.0506,-6.0506,-6.0545,-6.0506,-6.0506,-6.0506,-6.0531,-6.0504,-6.0504,-6.0147,-5.9546,-5.8792,-5.8424,-5.8424,-5.7625,-5.7168,-5.7168,-5.6825,-5.6711,-5.6711,-5.6711,-5.6711,-5.6673,-5.6673,-5.674,-5.682,-5.6834,-5.6848,-5.6889,-5.7223,-5.7454,-5.7634,-5.8246,-5.8796,-5.8975,-5.9639,-5.9932,-5.9894,-6.0034,-6.02,-6.0238,-6.0517,-6.1015,-6.145,-6.1615,-6.182,-6.2281,-6.2704,-6.3205,-6.3897,-6.4128,-6.4474,-6.5243,-6.5436,-6.5551,-6.5782,-6.5897,-6.5936,-6.5897,-6.5897,-6.5897,-6.5897,-6.5859,-6.5897,-6.5897,-6.5897,-6.5897,-6.5897,-6.5897,-6.5897,-6.5897,-6.5897,-6.5897,-6.5897,-6.6013,-6.5987,-6.5987,-6.5948,-6.6139,-6.5688,-6.5977,-6.6112,-6.5274,-6.5321,-6.5321,-6.5352,-6.5413,-6.5405,-6.5153,-6.4579,-6.4379,-6.359,-6.2619,-6.2199,-6.1781,-6.1401,-6.1324,-6.1297,-6.118,-6.0759,-6.0504,-6.0545,-6.0826,-6.0967,-6.1006,-6.1006,-6.1006,-6.0968,-6.0738,-6.0623,-6.0623,-6.0623,-6.0623,-6.061,-6.0623,-6.0623,-6.0623,-6.0623,-6.0623,-6.0623,-6.0623,-6.0623,-6.0623,-6.0623,-6.0623,-6.0482,-5.9863,-5.9431,-5.9417,-5.8549,-5.8078,-5.8039,-5.7849,-5.7711,-5.7739,-5.7766,-5.778,-5.7742,-5.7742,-5.7794,-5.7886,-5.7886,-5.7875,-5.7991,-5.8272,-5.8413,-5.8489,-5.9217,-5.9677,-5.9894,-6.0238,-6.0736,-6.1067,-6.1144,-6.1144,-6.1156,-6.118,-6.155,-6.2358,-6.2474,-6.2897,-6.3474,-6.3705,-6.4128,-6.482,-6.4974,-6.5282,-6.5859,-6.5897,-6.5897,-6.5897,-6.6167,-6.6282,-6.632,-6.6667,-6.6821,-6.6936,-6.7013,-6.632,-6.6167,-6.6128,-6.6051,-6.609,-6.6051,-6.6013,-6.5974,-6.5936,-6.5897,-6.5974,-6.6128,-6.6244,-6.6282,-6.6756,-6.714,-6.6855,-6.6674,-6.6873,-6.5413,-6.5413,-6.5413,-6.5413,-6.539,-6.5465,-6.5494,-6.5317,-6.4723,-6.4353,-6.397,-6.3422,-6.3,-6.2975,-6.2784,-6.2975,-6.263,-6.1467,-6.0891,-6.093,-6.1582,-6.1901,-6.1914,-6.1914,-6.1914,-6.1876,-6.1096,-6.0751,-6.0879,-6.093,-6.0891,-6.0751,-6.0891,-6.0981,-6.0713,-6.0815,-6.0725,-6.0725,-6.0738,-6.0636,-6.0623,-6.0636,-6.0636,-6.0636,-6.0495,-6.0456,-6.0403,-5.957,-5.9109,-5.9033,-5.8421,-5.7989,-5.8208,-5.826,-5.8207,-5.8297,-5.8207,-5.8169,-5.8207,-5.8272,-5.8348,-5.8437,-5.8897,-5.9332,-5.9434,-6.0022,-6.0559,-6.0724,-6.0774,-6.1106,-6.1923,-6.2089,-6.2089,-6.2101,-6.2089,-6.2435,-6.3089,-6.3358,-6.3666,-6.4397,-6.4628,-6.4974,-6.559,-6.5743,-6.5782,-6.582,-6.5974,-6.6051,-6.6167,-6.6667,-6.7051,-6.7257,-6.7539,-6.777,-6.8065,-6.8244,-6.7282,-6.6564,-6.6474,-6.6397,-6.6551,-6.659,-6.6667,-6.6667,-6.6667,-6.6667,-6.6744,-6.6898,-6.709,-6.7244,-6.7718,-6.7974,-6.7755,-6.7599,-6.7878,-6.5413,-6.5429,-6.5435,-6.5465,-6.5465,-6.5537,-6.5566,-6.5527,-6.5326,-6.4918,-6.4419,-6.4112,-6.3679,-6.3258,-6.3156,-6.322,-6.3181,-6.2643,-6.2426,-6.2465,-6.2695,-6.2836,-6.2861,-6.2874,-6.2874,-6.2848,-6.2654,-6.2524,-6.2486,-6.2521,-6.2594,-6.2594,-6.2544,-6.2594,-6.2467,-6.2017,-6.1697,-6.1659,-6.1074,-6.0819,-6.0781,-6.0784,-6.076,-6.076,-6.0685,-6.0648,-6.0623,-6.0291,-6.0136,-6.0098,-5.9907,-5.9766,-5.9779,-5.9805,-5.9818,-5.9818,-5.9818,-5.9818,-5.9818,-5.9792,-5.9792,-5.9869,-6.0098,-6.0238,-6.0289,-6.0582,-6.1067,-6.1527,-6.168,-6.2,-6.2704,-6.2935,-6.2935,-6.2935,-6.2935,-6.3281,-6.4089,-6.4705,-6.5166,-6.5397,-6.5513,-6.5628,-6.582,-6.5936,-6.5974,-6.609,-6.6397,-6.6718,-6.6872,-6.7488,-6.8001,-6.8116,-6.8424,-6.8719,-6.8873,-6.8976,-6.8475,-6.7757,-6.7462,-6.7128,-6.7167,-6.7244,-6.7321,-6.7359,-6.7398,-6.7436,-6.7513,-6.7705,-6.7936,-6.8052,-6.8308,-6.841,-6.8358,-6.8575,-6.8842,-6.5435,-6.5465,-6.5509,-6.5537,-6.5552,-6.5646,-6.5674,-6.5688,-6.5742,-6.5461,-6.5051,-6.4987,-6.4757,-6.4294,-6.4217,-6.428,-6.4304,-6.4304,-6.4292,-6.4179,-6.3846,-6.3794,-6.3854,-6.3854,-6.3623,-6.343,-6.3438,-6.3411,-6.3461,-6.3494,-6.3516,-6.3516,-6.3516,-6.3467,-6.3477,-6.3014,-6.2667,-6.2579,-6.2161,-6.1869,-6.1869,-6.1835,-6.1824,-6.1813,-6.1755,-6.1692,-6.1719,-6.1658,-6.1288,-6.0751,-6.0649,-6.0623,-6.0661,-6.0648,-6.066,-6.066,-6.066,-6.066,-6.066,-6.0584,-6.0852,-6.1057,-6.1209,-6.1387,-6.1579,-6.1731,-6.205,-6.2435,-6.2551,-6.2897,-6.3589,-6.3769,-6.3897,-6.4243,-6.3974,-6.4205,-6.4974,-6.5551,-6.582,-6.5859,-6.5859,-6.6013,-6.6244,-6.6359,-6.6513,-6.6782,-6.7269,-6.7641,-6.7795,-6.8398,-6.877,-6.9116,-6.9501,-6.9642,-6.9589,-6.9577,-6.9552,-6.9117,-6.8732,-6.827,-6.8013,-6.7975,-6.8013,-6.7975,-6.8013,-6.7936,-6.8013,-6.8552,-6.8898,-6.8936,-6.9052,-6.9423,-6.9654,-6.9577,-6.9781,-6.5537,-6.5594,-6.5608,-6.5608,-6.5622,-6.5742,-6.582,-6.5833,-6.5947,-6.5958,-6.5931,-6.5839,-6.5874,-6.5924,-6.5708,-6.572,-6.5974,-6.5809,-6.5743,-6.5589,-6.518,-6.4833,-6.4844,-6.4844,-6.4497,-6.393,-6.3836,-6.3808,-6.3973,-6.3945,-6.3692,-6.3907,-6.3956,-6.3731,-6.3907,-6.3692,-6.3587,-6.3576,-6.345,-6.3323,-6.3323,-6.3351,-6.3351,-6.3351,-6.3257,-6.3184,-6.3134,-6.3036,-6.2374,-6.1045,-6.1057,-6.112,-6.094,-6.0899,-6.1115,-6.1154,-6.0973,-6.1077,-6.1012,-6.118,-6.1423,-6.2038,-6.2154,-6.2435,-6.2923,-6.2962,-6.3077,-6.3358,-6.3397,-6.3743,-6.4436,-6.4666,-6.5013,-6.5551,-6.5089,-6.5089,-6.5705,-6.5897,-6.5936,-6.6013,-6.6013,-6.6282,-6.7064,-6.718,-6.7526,-6.8001,-6.836,-6.8551,-6.8757,-6.9244,-6.9794,-7.0153,-7.0385,-7.0447,-7.0355,-7.037,-7.0308,-7.0129,-6.9797,-6.9438,-6.904,-6.8988,-6.8975,-6.8898,-6.8757,-6.8629,-6.8821,-6.9436,-6.9744,-6.9783,-7.0129,-7.0706,-7.0744,-7.0475,-7.036,-6.558,-6.5608,-6.5701,-6.5755,-6.5769,-6.5884,-6.5933,-6.597,-6.6005,-6.6029,-6.6029,-6.6001,-6.6024,-6.6013,-6.6013,-6.6036,-6.6069,-6.608,-6.6134,-6.6195,-6.6041,-6.5803,-6.5727,-6.5666,-6.5572,-6.5346,-6.5283,-6.5546,-6.5596,-6.5461,-6.5519,-6.5654,-6.548,-6.5548,-6.5519,-6.489,-6.4638,-6.4482,-6.39,-6.3657,-6.3647,-6.3615,-6.3516,-6.3516,-6.3533,-6.3522,-6.3483,-6.3426,-6.3202,-6.2694,-6.2629,-6.2603,-6.2526,-6.2538,-6.2474,-6.2512,-6.2551,-6.2627,-6.2589,-6.2551,-6.2743,-6.2935,-6.3012,-6.3089,-6.3231,-6.3308,-6.3628,-6.4051,-6.4282,-6.4589,-6.532,-6.5551,-6.5705,-6.582,-6.5743,-6.5705,-6.5859,-6.5897,-6.609,-6.6641,-6.6795,-6.7218,-6.7808,-6.8142,-6.8283,-6.8603,-6.9116,-6.9512,-6.9705,-7.0064,-7.0602,-7.0792,-7.0996,-7.1097,-7.1147,-7.1124,-7.1062,-7.0973,-7.0771,-7.0619,-7.0375,-7.0246,-7.0296,-7.0321,-7.0015,-6.9823,-7.0065,-7.0514,-7.0552,-7.0425,-7.0643,-7.0912,-7.0898,-7.0744,-7.0706,-6.5728,-6.5743,-6.5872,-6.5884,-6.5907,-6.5982,-6.6029,-6.6047,-6.608,-6.6102,-6.6123,-6.6155,-6.6155,-6.6155,-6.6165,-6.6214,-6.6205,-6.6244,-6.6284,-6.6322,-6.6292,-6.6245,-6.6175,-6.6155,-6.6175,-6.6205,-6.6274,-6.6264,-6.6301,-6.6367,-6.6424,-6.6338,-6.6424,-6.6367,-6.6263,-6.5914,-6.5595,-6.5519,-6.5025,-6.4784,-6.4774,-6.4734,-6.4714,-6.4693,-6.4623,-6.458,-6.4547,-6.4513,-6.4197,-6.3561,-6.3294,-6.3308,-6.3308,-6.3308,-6.3308,-6.3308,-6.3308,-6.3269,-6.3308,-6.3308,-6.3462,-6.3743,-6.3858,-6.4089,-6.432,-6.4397,-6.4705,-6.5051,-6.5128,-6.5397,-6.5782,-6.6167,-6.6397,-6.6474,-6.6705,-6.6782,-6.6474,-6.6782,-6.7141,-6.7552,-6.7718,-6.8039,-6.8899,-6.9065,-6.9282,-6.9603,-7.0153,-7.037,-7.0498,-7.0934,-7.119,-7.1213,-7.1236,-7.1297,-7.1336,-7.1363,-7.1545,-7.1495,-7.1769,-7.162,-7.1377,-7.1274,-7.1107,-7.1056,-7.1017,-7.1056,-7.1171,-7.1158,-7.0902,-7.0825,-7.0952,-7.1002,-7.1027,-7.1091,-7.1052,-6.5897,-6.6008,-6.6008,-6.6005,-6.6024,-6.6024,-6.6069,-6.6134,-6.6185,-6.6225,-6.6303,-6.6367,-6.6367,-6.6394,-6.6367,-6.6394,-6.6403,-6.6403,-6.6411,-6.6428,-6.6428,-6.6411,-6.6411,-6.6367,-6.6376,-6.6394,-6.6403,-6.6411,-6.6437,-6.6428,-6.6536,-6.667,-6.6661,-6.6597,-6.6674,-6.6549,-6.6502,-6.6299,-6.6174,-6.6048,-6.6039,-6.6012,-6.5954,-6.5935,-6.5866,-6.5831,-6.5826,-6.5793,-6.5257,-6.3785,-6.3599,-6.3741,-6.369,-6.3652,-6.369,-6.3767,-6.3856,-6.3818,-6.369,-6.3856,-6.396,-6.4588,-6.4742,-6.5025,-6.5538,-6.5615,-6.5653,-6.5705,-6.5859,-6.5897,-6.6218,-6.6756,-6.7192,-6.7385,-6.7962,-6.8078,-6.7731,-6.8026,-6.8475,-6.8629,-6.8641,-6.909,-6.9705,-7.0076,-7.0269,-7.0358,-7.0792,-7.0865,-7.0915,-7.112,-7.1247,-7.1269,-7.1319,-7.1369,-7.1446,-7.1562,-7.1783,-7.1977,-7.2484,-7.2542,-7.2158,-7.1928,-7.1672,-7.1621,-7.1981,-7.202,-7.184,-7.1685,-7.1531,-7.1609,-7.1968,-7.1659,-7.1349,-7.1412,-7.1398,-6.597,-6.6029,-6.6029,-6.6058,-6.6144,-6.6144,-6.6205,-6.6331,-6.6349,-6.6358,-6.6376,-6.6411,-6.6389,-6.6398,-6.6469,-6.6501,-6.6485,-6.6485,-6.6507,-6.6574,-6.6542,-6.6574,-6.6592,-6.6571,-6.6516,-6.6547,-6.6492,-6.6546,-6.6606,-6.6793,-6.6924,-6.75,-6.7541,-6.7487,-6.7495,-6.7432,-6.7041,-6.6549,-6.6463,-6.6549,-6.6588,-6.657,-6.6523,-6.6513,-6.6419,-6.6283,-6.6155,-6.6102,-6.5887,-6.5622,-6.5473,-6.5388,-6.5261,-6.5261,-6.5261,-6.5223,-6.53,-6.535,-6.5388,-6.5261,-6.5427,-6.5531,-6.5596,-6.5801,-6.5907,-6.6023,-6.5998,-6.5923,-6.5897,-6.6295,-6.6846,-6.7692,-6.8103,-6.8385,-6.8988,-6.9475,-6.9256,-6.8834,-6.8937,-6.9372,-6.9628,-6.9898,-7.0681,-7.078,-7.0985,-7.119,-7.1224,-7.1269,-7.128,-7.128,-7.1407,-7.1485,-7.1562,-7.1756,-7.2258,-7.2375,-7.2607,-7.2839,-7.3319,-7.3771,-7.3338,-7.3121,-7.3058,-7.3072,-7.3228,-7.3047,-7.2621,-7.2867,-7.2816,-7.2932,-7.2906,-7.2675,-7.2404,-7.2171,-7.1898,-6.6052,-6.6091,-6.6091,-6.6165,-6.6254,-6.6303,-6.6358,-6.6428,-6.6445,-6.6469,-6.6462,-6.6485,-6.6492,-6.6492,-6.6514,-6.6535,-6.6549,-6.6555,-6.6562,-6.6692,-6.6932,-6.7223,-6.7403,-6.7554,-6.7612,-6.7262,-6.7178,-6.7347,-6.771,-6.7794,-6.8093,-6.8456,-6.8475,-6.8455,-6.844,-6.8411,-6.8194,-6.7852,-6.7681,-6.7673,-6.7687,-6.7623,-6.7605,-6.7587,-6.756,-6.7484,-6.7503,-6.7482,-6.7413,-6.7343,-6.731,-6.683,-6.6129,-6.6001,-6.6013,-6.6001,-6.6001,-6.6001,-6.6001,-6.6001,-6.5963,-6.6052,-6.6001,-6.599,-6.6171,-6.6314,-6.6572,-6.6663,-6.6921,-6.7383,-6.7807,-6.8602,-6.9102,-6.9295,-6.9936,-7.0423,-7.0409,-7.0025,-6.9847,-7.0409,-7.0498,-7.0714,-7.1047,-7.1186,-7.1236,-7.1247,-7.1324,-7.1369,-7.1319,-7.1369,-7.1678,-7.1833,-7.1949,-7.2258,-7.2955,-7.3342,-7.3612,-7.3922,-7.4297,-7.4839,-7.4982,-7.4792,-7.4652,-7.4408,-7.4009,-7.3751,-7.3466,-7.379,-7.392,-7.3586,-7.3472,-7.3626,-7.3536,-7.3058,-7.2863,-6.6102,-6.6254,-6.6205,-6.6312,-6.6394,-6.6403,-6.6453,-6.6524,-6.6524,-6.6521,-6.6614,-6.6588,-6.6627,-6.6639,-6.6606,-6.6606,-6.6696,-6.6891,-6.6986,-6.7064,-6.7804,-6.8099,-6.8315,-6.8627,-6.8844,-6.8331,-6.8182,-6.8532,-6.8921,-6.9227,-6.9095,-6.9344,-6.9409,-6.937,-6.9403,-6.939,-6.9168,-6.8868,-6.8822,-6.8846,-6.8886,-6.8854,-6.8782,-6.873,-6.8682,-6.8655,-6.8617,-6.8636,-6.8743,-6.8847,-6.8837,-6.7972,-6.6941,-6.6422,-6.6422,-6.6499,-6.6664,-6.6753,-6.6791,-6.6664,-6.6626,-6.6422,-6.6499,-6.6499,-6.6692,-6.7105,-6.7413,-6.7749,-6.8085,-6.8663,-6.888,-6.9586,-7.0011,-7.0204,-7.0744,-7.1089,-7.119,-7.1166,-7.1062,-7.1085,-7.1031,-7.112,-7.1181,-7.128,-7.1291,-7.133,-7.1446,-7.1485,-7.1523,-7.1756,-7.2258,-7.2529,-7.2723,-7.3148,-7.3806,-7.4502,-7.4734,-7.485,-7.5237,-7.5546,-7.6011,-7.5806,-7.5434,-7.4943,-7.4556,-7.4452,-7.4479,-7.4738,-7.4637,-7.42,-7.4318,-7.4642,-7.4436,-7.396,-7.3776,-6.6264,-6.6358,-6.6358,-6.6411,-6.6485,-6.6485,-6.6538,-6.6562,-6.6601,-6.6569,-6.6627,-6.6651,-6.668,-6.6696,-6.6683,-6.6741,-6.6941,-6.7374,-6.7768,-6.7963,-6.8665,-6.9064,-6.9146,-6.9463,-6.9692,-6.9848,-6.9566,-6.9333,-6.9406,-6.9298,-6.9865,-7.022,-7.0307,-7.0286,-7.0269,-7.0239,-6.9987,-6.9584,-6.9493,-6.9434,-6.9405,-6.9352,-6.9313,-6.9248,-6.9287,-6.9213,-6.9061,-6.8965,-6.8887,-6.8878,-6.8878,-6.8752,-6.8472,-6.8362,-6.8281,-6.8116,-6.8038,-6.7961,-6.7989,-6.8154,-6.8281,-6.832,-6.8154,-6.8171,-6.8188,-6.837,-6.8474,-6.871,-6.9162,-6.9702,-6.969,-7.0394,-7.0881,-7.1047,-7.1147,-7.1413,-7.1424,-7.149,-7.1518,-7.1645,-7.1501,-7.1396,-7.1562,-7.1717,-7.191,-7.2104,-7.2258,-7.2336,-7.2375,-7.28,-7.338,-7.3574,-7.369,-7.4193,-7.4734,-7.543,-7.5895,-7.5779,-7.5933,-7.5933,-7.6281,-7.632,-7.6049,-7.5546,-7.5546,-7.5662,-7.574,-7.5701,-7.5624,-7.5357,-7.5553,-7.5735,-7.5337,-7.4886,-7.4651,-6.6367,-6.6445,-6.6453,-6.6501,-6.656,-6.6528,-6.6601,-6.6645,-6.6651,-6.6669,-6.6652,-6.6707,-6.6727,-6.675,-6.6763,-6.7009,-6.7524,-6.784,-6.8308,-6.8777,-6.9553,-6.999,-7.0114,-7.0387,-7.0863,-7.1104,-7.0873,-7.0625,-7.0645,-7.0684,-7.0801,-7.1148,-7.1243,-7.1234,-7.1229,-7.1199,-7.0937,-7.0536,-7.0512,-7.0486,-7.0413,-7.0406,-7.0377,-7.0378,-7.0354,-7.036,-7.0308,-7.029,-7.032,-7.0302,-7.0292,-7.0253,-7.0205,-7.006,-6.9778,-6.91,-6.8896,-6.8847,-6.8816,-6.8777,-6.8728,-6.8766,-6.8816,-6.8766,-6.89,-6.9082,-6.9496,-6.9988,-7.0208,-7.0633,-7.0633,-7.1081,-7.1402,-7.1838,-7.1977,-7.2181,-7.2491,-7.2568,-7.2529,-7.2413,-7.2336,-7.2247,-7.2181,-7.2375,-7.2607,-7.28,-7.3032,-7.3148,-7.3264,-7.3728,-7.4309,-7.4541,-7.4657,-7.5044,-7.5469,-7.5895,-7.6397,-7.6397,-7.6397,-7.6397,-7.6397,-7.6397,-7.6397,-7.6165,-7.6359,-7.6397,-7.632,-7.6049,-7.6281,-7.6397,-7.6219,-7.6055,-7.607,-7.589,-7.5501,-6.6453,-6.6524,-6.6492,-6.6535,-6.6627,-6.6633,-6.6657,-6.6686,-6.673,-6.6717,-6.6716,-6.672,-6.6728,-6.6826,-6.7067,-6.7461,-6.8163,-6.8359,-6.9103,-6.965,-7.0469,-7.0902,-7.1146,-7.1501,-7.1819,-7.1747,-7.1789,-7.1972,-7.1721,-7.1675,-7.187,-7.1831,-7.1866,-7.1897,-7.1815,-7.1755,-7.1853,-7.1833,-7.1806,-7.1809,-7.1738,-7.1718,-7.1704,-7.1675,-7.1668,-7.1599,-7.1395,-7.1409,-7.1392,-7.1365,-7.1386,-7.1454,-7.1523,-7.1523,-7.0883,-6.9721,-6.9392,-6.9352,-6.9409,-6.9477,-6.9642,-6.9642,-6.9417,-6.9378,-6.9484,-7.0064,-7.0518,-7.1175,-7.1523,-7.1551,-7.159,-7.1794,-7.2181,-7.2607,-7.2916,-7.3071,-7.3458,-7.3612,-7.3535,-7.338,-7.3226,-7.3148,-7.3071,-7.2993,-7.3226,-7.3496,-7.3728,-7.4038,-7.4154,-7.4541,-7.5044,-7.543,-7.5701,-7.5972,-7.6165,-7.6088,-7.6397,-7.6397,-7.6397,-7.6397,-7.6397,-7.6397,-7.6436,-7.6514,-7.6397,-7.6397,-7.6397,-7.6397,-7.6397,-7.6397,-7.6397,-7.6323,-7.6211,-7.6147,-7.5914,-6.6524,-6.6606,-6.6594,-6.6633,-6.6702,-6.6708,-6.6696,-6.6697,-6.6702,-6.6716,-6.6779,-6.6779,-6.6791,-6.7042,-6.7679,-6.7997,-6.8583,-6.9519,-7.0219,-7.0609,-7.1315,-7.1666,-7.1789,-7.1906,-7.1987,-7.2032,-7.2068,-7.1987,-7.2099,-7.2096,-7.2057,-7.2093,-7.2161,-7.1998,-7.2271,-7.2292,-7.1889,-7.192,-7.1975,-7.1978,-7.1932,-7.19,-7.1881,-7.1874,-7.1867,-7.1931,-7.2025,-7.2042,-7.1941,-7.1863,-7.1714,-7.1667,-7.1581,-7.1581,-7.1556,-7.1317,-7.1242,-7.1174,-7.1,-7.0874,-7.0835,-7.0787,-7.0883,-7.1066,-7.1046,-7.113,-7.138,-7.1253,-7.1949,-7.2413,-7.2568,-7.3071,-7.3496,-7.3651,-7.3728,-7.3806,-7.4077,-7.4579,-7.4502,-7.4502,-7.4386,-7.4193,-7.4038,-7.3922,-7.3883,-7.4154,-7.4425,-7.4773,-7.5044,-7.5353,-7.5585,-7.5895,-7.6127,-7.6397,-7.6784,-7.6707,-7.6862,-7.6707,-7.6784,-7.6784,-7.6939,-7.7055,-7.6707,-7.6746,-7.6668,-7.6746,-7.6939,-7.6862,-7.6552,-7.6397,-7.6397,-7.6362,-7.6313,-7.625,-7.6224,-6.6614,-6.6672,-6.6645,-6.668,-6.6678,-6.6717,-6.6736,-6.6763,-6.6767,-6.6783,-6.6798,-6.6801,-6.7045,-6.7604,-6.8432,-6.9137,-6.9645,-7.0387,-7.1011,-7.1324,-7.1795,-7.1987,-7.199,-7.1995,-7.2,-7.2156,-7.2473,-7.2791,-7.2748,-7.2737,-7.2729,-7.2807,-7.3114,-7.3462,-7.3189,-7.3328,-7.3396,-7.3427,-7.341,-7.3354,-7.3324,-7.3219,-7.3196,-7.3217,-7.3166,-7.3146,-7.3126,-7.3183,-7.3175,-7.3168,-7.3099,-7.3076,-7.3068,-7.309,-7.3065,-7.3087,-7.307,-7.252,-7.1659,-7.1572,-7.162,-7.1533,-7.1552,-7.162,-7.2075,-7.2538,-7.2777,-7.2855,-7.3132,-7.3303,-7.3342,-7.369,-7.4115,-7.4386,-7.4579,-7.4889,-7.5044,-7.5276,-7.5508,-7.5508,-7.5508,-7.5314,-7.516,-7.5237,-7.516,-7.5198,-7.5469,-7.5779,-7.5895,-7.5972,-7.6127,-7.6243,-7.6397,-7.6591,-7.7016,-7.7287,-7.7751,-7.7829,-7.8061,-7.8061,-7.8022,-7.7945,-7.7597,-7.7674,-7.8022,-7.7983,-7.7751,-7.721,-7.6784,-7.6552,-7.6397,-7.6567,-7.6724,-7.6417,-7.634,-6.6724,-6.673,-6.6696,-6.6717,-6.6711,-6.6716,-6.6771,-6.6791,-6.6791,-6.6801,-6.6892,-6.7052,-6.7643,-6.8471,-6.9294,-6.9999,-7.0626,-7.0899,-7.137,-7.18,-7.1997,-7.2,-7.2002,-7.2008,-7.2127,-7.2323,-7.2912,-7.3345,-7.3656,-7.3844,-7.3952,-7.3676,-7.403,-7.4343,-7.4455,-7.4369,-7.4317,-7.4261,-7.4289,-7.4316,-7.4347,-7.4333,-7.4314,-7.4371,-7.4427,-7.4365,-7.4334,-7.4243,-7.4236,-7.4177,-7.4109,-7.397,-7.4009,-7.3939,-7.3954,-7.3945,-7.3929,-7.3544,-7.2762,-7.2395,-7.2191,-7.2191,-7.2172,-7.2599,-7.3006,-7.3713,-7.4002,-7.377,-7.4143,-7.4188,-7.4293,-7.4436,-7.4928,-7.5276,-7.543,-7.5856,-7.6165,-7.6127,-7.6049,-7.5972,-7.6088,-7.6397,-7.6397,-7.6591,-7.6591,-7.6436,-7.6552,-7.6784,-7.69,-7.69,-7.7094,-7.7287,-7.7365,-7.7519,-7.7751,-7.8138,-7.8564,-7.8834,-7.9067,-7.9028,-7.8834,-7.8757,-7.8564,-7.8796,-7.9144,-7.8834,-7.837,-7.7674,-7.7094,-7.7365,-7.7558,-7.7326,-7.7225,-7.6905,-7.6829,-6.6722,-6.6707,-6.6707,-6.6707,-6.6716,-6.6771,-6.6794,-6.6811,-6.6811,-6.6859,-6.7027,-6.769,-6.8588,-6.9374,-7.0155,-7.0668,-7.0796,-7.1577,-7.1852,-7.1936,-7.1978,-7.1977,-7.2016,-7.2173,-7.2448,-7.3034,-7.3585,-7.4054,-7.452,-7.5263,-7.5065,-7.4674,-7.4945,-7.4712,-7.4788,-7.5013,-7.4962,-7.4909,-7.4896,-7.4808,-7.4796,-7.4745,-7.4698,-7.4659,-7.4576,-7.445,-7.4426,-7.4628,-7.4722,-7.4736,-7.4696,-7.4676,-7.4746,-7.467,-7.4693,-7.4678,-7.4653,-7.4395,-7.4058,-7.3739,-7.3873,-7.3903,-7.3885,-7.3771,-7.3976,-7.3995,-7.4102,-7.4363,-7.4894,-7.5094,-7.5343,-7.5708,-7.5879,-7.5945,-7.5984,-7.6088,-7.6359,-7.6552,-7.6475,-7.6397,-7.6707,-7.7171,-7.7403,-7.7597,-7.7481,-7.7287,-7.7442,-7.7674,-7.8099,-7.8216,-7.8409,-7.8564,-7.8641,-7.8718,-7.8796,-7.9105,-7.926,-7.9492,-7.9685,-7.9531,-7.9299,-7.926,-7.9569,-7.9492,-7.9685,-7.9337,-7.9144,-7.895,-7.8796,-7.8834,-7.8718,-7.8254,-7.8114,-7.8026,-7.8013,-6.6702,-6.6711,-6.674,-6.6752,-6.6791,-6.6798,-6.6811,-6.6787,-6.6787,-6.7141,-6.7732,-6.902,-6.9884,-7.0358,-7.1063,-7.1499,-7.1545,-7.1781,-7.1978,-7.198,-7.198,-7.198,-7.2137,-7.2532,-7.3002,-7.355,-7.4255,-7.4961,-7.5428,-7.6211,-7.6445,-7.6248,-7.6009,-7.6162,-7.6159,-7.5963,-7.5996,-7.6028,-7.6058,-7.605,-7.6083,-7.6099,-7.6088,-7.6088,-7.6033,-7.6028,-7.6054,-7.603,-7.6014,-7.5947,-7.5827,-7.5768,-7.5715,-7.5726,-7.5697,-7.5635,-7.5611,-7.5633,-7.5366,-7.4861,-7.42,-7.4356,-7.4611,-7.4942,-7.4915,-7.5294,-7.5585,-7.5799,-7.5769,-7.5922,-7.6105,-7.6256,-7.6377,-7.6444,-7.6471,-7.6487,-7.6757,-7.7028,-7.7171,-7.721,-7.7713,-7.8293,-7.8409,-7.8486,-7.8332,-7.8177,-7.837,-7.8641,-7.9067,-7.9299,-7.9415,-7.9453,-7.9453,-7.9608,-7.9685,-7.9801,-7.9956,-8.015,-8.0343,-8.0227,-8.015,-8.0575,-8.0769,-8.0575,-8.0382,-8.0382,-8.0382,-8.0498,-8.0266,-7.9685,-7.926,-7.8873,-7.8875,-7.9057,-7.9055,-6.672,-6.6736,-6.6762,-6.6811,-6.6811,-6.6817,-6.6787,-6.6834,-6.7107,-6.7849,-6.8942,-7.0194,-7.0865,-7.1225,-7.1659,-7.1938,-7.1904,-7.1984,-7.1985,-7.1986,-7.1987,-7.2143,-7.2535,-7.3005,-7.3553,-7.418,-7.5078,-7.5898,-7.6328,-7.6914,-7.7031,-7.7031,-7.7146,-7.7027,-7.7026,-7.7141,-7.7139,-7.7097,-7.7093,-7.7089,-7.7046,-7.6995,-7.6978,-7.6978,-7.6887,-7.6872,-7.6821,-7.6765,-7.6824,-7.6804,-7.681,-7.6858,-7.6878,-7.689,-7.6901,-7.684,-7.6817,-7.6793,-7.641,-7.5793,-7.4939,-7.5249,-7.5521,-7.5793,-7.6018,-7.6388,-7.6409,-7.6516,-7.6594,-7.6642,-7.6632,-7.6553,-7.6831,-7.6936,-7.7047,-7.7102,-7.7593,-7.7941,-7.7995,-7.8099,-7.8602,-7.895,-7.9492,-7.9569,-7.9492,-7.9299,-7.926,-7.9569,-8.0111,-8.0227,-8.015,-8.015,-8.0111,-8.0304,-8.0498,-8.0575,-8.0691,-8.0807,-8.1001,-8.1155,-8.1233,-8.1491,-8.1491,-8.1155,-8.1117,-8.1414,-8.1336,-8.1078,-8.0614,-8.0111,-7.9918,-7.9879,-8.0048,-8.019,-7.997,-6.6736,-6.6811,-6.6811,-6.6811,-6.6814,-6.679,-6.6834,-6.7071,-6.7852,-6.9023,-7.0311,-7.0753,-7.1227,-7.1737,-7.1939,-7.1985,-7.1989,-7.1989,-7.199,-7.1992,-7.2226,-7.2578,-7.3047,-7.3555,-7.4375,-7.5508,-7.6094,-7.6484,-7.707,-7.7148,-7.7187,-7.7226,-7.7187,-7.7187,-7.7187,-7.7186,-7.7183,-7.7139,-7.7099,-7.7215,-7.7293,-7.7368,-7.7517,-7.7315,-7.731,-7.7335,-7.7082,-7.7067,-7.7047,-7.7019,-7.7004,-7.6978,-7.696,-7.6923,-7.6904,-7.689,-7.6908,-7.6879,-7.6754,-7.6635,-7.6424,-7.6259,-7.6337,-7.6415,-7.657,-7.6678,-7.6678,-7.6699,-7.6836,-7.6817,-7.675,-7.6807,-7.732,-7.7571,-7.7711,-7.7833,-7.8336,-7.8805,-7.8909,-7.9091,-7.9117,-7.9337,-8.015,-8.0653,-8.0614,-8.0459,-8.0266,-8.0459,-8.0923,-8.1001,-8.0807,-8.0769,-8.073,-8.0846,-8.1039,-8.1259,-8.1414,-8.153,-8.1491,-8.1491,-8.1491,-8.1491,-8.1491,-8.153,-8.1491,-8.1491,-8.1491,-8.1452,-8.1039,-8.073,-8.1039,-8.1104,-8.1285,-8.1182,-8.0821,-6.6762,-6.6814,-6.6823,-6.679,-6.679,-6.6795,-6.7107,-6.7852,-6.9147,-7.0167,-7.0755,-7.127,-7.1669,-7.1945,-7.1986,-7.1992,-7.1992,-7.1992,-7.1992,-7.207,-7.2539,-7.293,-7.3515,-7.4453,-7.5273,-7.5898,-7.6367,-7.6797,-7.7187,-7.7226,-7.7226,-7.7226,-7.7344,-7.7226,-7.7187,-7.7226,-7.7187,-7.7303,-7.7614,-7.7963,-7.8041,-7.8429,-7.8503,-7.7993,-7.7987,-7.7744,-7.7338,-7.7323,-7.7301,-7.7281,-7.7263,-7.7199,-7.7183,-7.7155,-7.7053,-7.6995,-7.6968,-7.6915,-7.684,-7.6754,-7.6721,-7.6773,-7.6803,-7.6803,-7.6726,-7.6687,-7.6687,-7.692,-7.7368,-7.7476,-7.7553,-7.8127,-7.8573,-7.8641,-7.8716,-7.8684,-7.9011,-7.9548,-7.9873,-8.0082,-8.0186,-8.0445,-8.1013,-8.1154,-8.1192,-8.1335,-8.1141,-8.0962,-8.131,-8.1349,-8.1259,-8.1298,-8.1298,-8.1375,-8.153,-8.1736,-8.189,-8.1968,-8.1736,-8.1491,-8.1491,-8.1813,-8.1762,-8.1929,-8.1684,-8.153,-8.1813,-8.1968,-8.162,-8.1452,-8.1852,-8.1736,-8.1452,-8.1401,-8.1298,-6.6814,-6.682,-6.6792,-6.6798,-6.6798,-6.6798,-6.7422,-6.8637,-7.0091,-7.0837,-7.1233,-7.1786,-7.1986,-7.1989,-7.199,-7.1991,-7.1992,-7.1992,-7.2344,-7.2422,-7.2969,-7.3672,-7.4492,-7.5273,-7.5898,-7.6367,-7.6797,-7.7226,-7.7226,-7.7226,-7.7422,-7.7656,-7.7656,-7.7969,-7.7969,-7.8008,-7.793,-7.8203,-7.8671,-7.8866,-7.8983,-7.9216,-7.937,-7.9015,-7.8777,-7.8614,-7.8174,-7.7966,-7.7983,-7.793,-7.7909,-7.7882,-7.7867,-7.7885,-7.7857,-7.7832,-7.7806,-7.7831,-7.7888,-7.7851,-7.789,-7.7809,-7.7395,-7.7153,-7.727,-7.758,-7.7697,-7.793,-7.8163,-7.8318,-7.8542,-7.9204,-7.9398,-7.9457,-7.9631,-7.9639,-8.0084,-8.0622,-8.0705,-8.0954,-8.1097,-8.1422,-8.1642,-8.1654,-8.1639,-8.1848,-8.1978,-8.1877,-8.1709,-8.1736,-8.1774,-8.1762,-8.1774,-8.1852,-8.1968,-8.2122,-8.2238,-8.2393,-8.2277,-8.2161,-8.2471,-8.2896,-8.2587,-8.2393,-8.2587,-8.2703,-8.2548,-8.2509,-8.2509,-8.2548,-8.2703,-8.2355,-8.1697,-8.1568,-8.1594,-6.682,-6.6795,-6.6798,-6.6798,-6.6798,-6.6993,-6.7976,-6.9468,-7.0368,-7.1233,-7.1981,-7.1949,-7.199,-7.199,-7.1992,-7.1992,-7.2109,-7.207,-7.2578,-7.3164,-7.3594,-7.4531,-7.5312,-7.5937,-7.6445,-7.6914,-7.7226,-7.7226,-7.7226,-7.7461,-7.7851,-7.8359,-7.8515,-7.8906,-7.914,-7.914,-7.9023,-7.9219,-7.957,-7.9687,-7.9844,-7.9961,-8.0039,-7.9841,-7.9722,-7.9559,-7.9317,-7.9306,-7.9368,-7.9431,-7.9491,-7.9505,-7.9525,-7.9544,-7.9522,-7.9454,-7.9306,-7.9221,-7.9169,-7.9024,-7.9065,-7.8831,-7.8556,-7.822,-7.8163,-7.8513,-7.8629,-7.8823,-7.9095,-7.9212,-7.9445,-7.9708,-7.998,-8.0233,-8.0524,-8.0854,-8.1349,-8.1589,-8.1558,-8.1613,-8.1719,-8.194,-8.2007,-8.2045,-8.246,-8.272,-8.289,-8.2673,-8.2494,-8.2277,-8.2277,-8.2238,-8.2277,-8.2277,-8.2432,-8.278,-8.2935,-8.3167,-8.3438,-8.3438,-8.3786,-8.3786,-8.3476,-8.336,-8.3786,-8.3824,-8.3438,-8.3476,-8.3747,-8.3747,-8.3476,-8.2935,-8.2238,-8.1929,-8.1826,-6.6792,-6.6798,-6.6798,-6.6798,-6.6993,-6.8132,-6.931,-7.0368,-7.1239,-7.1831,-7.1988,-7.1991,-7.1992,-7.1992,-7.1992,-7.1992,-7.2265,-7.2578,-7.2969,-7.3594,-7.4453,-7.5273,-7.5937,-7.6484,-7.6914,-7.7109,-7.7226,-7.7265,-7.7422,-7.7695,-7.8555,-7.9219,-7.9336,-7.9883,-8.0273,-8.039,-8.0117,-8.0039,-8.039,-8.0586,-8.082,-8.1054,-8.0976,-8.0781,-8.0625,-8.0425,-8.007,-7.9942,-7.989,-7.9843,-7.9779,-7.9674,-7.9613,-7.9593,-7.9567,-7.9493,-7.9481,-7.9475,-7.9514,-7.9487,-7.9577,-7.9788,-7.9719,-7.9506,-7.9286,-7.926,-7.9493,-7.9726,-8.0028,-8.0183,-8.0339,-8.0572,-8.0805,-8.1028,-8.1243,-8.1437,-8.1844,-8.1786,-8.1794,-8.2104,-8.221,-8.2615,-8.2693,-8.3031,-8.3447,-8.3707,-8.3773,-8.3634,-8.3355,-8.3152,-8.2921,-8.287,-8.2973,-8.3089,-8.336,-8.3708,-8.3824,-8.3979,-8.4289,-8.4443,-8.4327,-8.4289,-8.4173,-8.4289,-8.4559,-8.4405,-8.4018,-8.425,-8.4637,-8.425,-8.394,-8.336,-8.2857,-8.2625,-8.2316,-6.6798,-6.6798,-6.6798,-6.719,-6.8017,-6.9319,-7.0417,-7.1239,-7.1792,-7.199,-7.1991,-7.1992,-7.1992,-7.1992,-7.2031,-7.2187,-7.2617,-7.3008,-7.3594,-7.4765,-7.539,-7.5976,-7.6523,-7.6875,-7.7109,-7.7226,-7.7265,-7.7422,-7.7851,-7.8555,-7.9375,-8.0156,-8.0234,-8.0742,-8.125,-8.1445,-8.125,-8.1133,-8.1211,-8.1445,-8.1719,-8.1992,-8.1797,-8.164,-8.1484,-8.1092,-8.0778,-8.0652,-8.0686,-8.0717,-8.0732,-8.0712,-8.0649,-8.0656,-8.0619,-8.0668,-8.0662,-8.0695,-8.0734,-8.0689,-8.0552,-8.0571,-8.0861,-8.0824,-8.0659,-8.0586,-8.056,-8.0659,-8.0921,-8.1154,-8.1349,-8.1543,-8.1698,-8.1854,-8.1892,-8.1892,-8.1883,-8.1864,-8.2087,-8.2427,-8.2844,-8.3367,-8.3744,-8.4122,-8.4432,-8.4676,-8.4937,-8.502,-8.4665,-8.4207,-8.3861,-8.3643,-8.3811,-8.3979,-8.4327,-8.465,-8.4792,-8.5024,-8.5372,-8.541,-8.5062,-8.5101,-8.5294,-8.5294,-8.5256,-8.5101,-8.5024,-8.5178,-8.5372,-8.4985,-8.483,-8.4598,-8.4134,-8.3592,-8.3244,-6.6798,-6.6837,-6.6876,-6.7859,-6.9394,-7.0266,-7.113,-7.1951,-7.199,-7.1991,-7.1992,-7.1992,-7.1992,-7.2031,-7.2187,-7.2617,-7.3164,-7.3633,-7.4531,-7.5898,-7.6055,-7.6484,-7.6875,-7.7226,-7.7226,-7.7226,-7.75,-7.8008,-7.8789,-7.9492,-8.0234,-8.1054,-8.1094,-8.1445,-8.1992,-8.2109,-8.1953,-8.1914,-8.1953,-8.2109,-8.2148,-8.2304,-8.2304,-8.2265,-8.2226,-8.2148,-8.2186,-8.2221,-8.2296,-8.2285,-8.2193,-8.2101,-8.1992,-8.187,-8.1873,-8.1889,-8.1682,-8.1675,-8.1636,-8.163,-8.1734,-8.1799,-8.1973,-8.1796,-8.1524,-8.1406,-8.1334,-8.1307,-8.1493,-8.1552,-8.1669,-8.1737,-8.1854,-8.2048,-8.2126,-8.2242,-8.232,-8.2505,-8.2922,-8.3311,-8.3883,-8.4378,-8.4572,-8.495,-8.5455,-8.567,-8.5815,-8.6055,-8.5868,-8.5336,-8.4979,-8.4595,-8.4817,-8.5062,-8.5243,-8.5552,-8.5797,-8.6068,-8.6261,-8.6261,-8.5913,-8.6145,-8.6532,-8.6223,-8.5875,-8.6184,-8.6261,-8.6145,-8.6068,-8.6107,-8.5952,-8.5991,-8.5526,-8.4753,-8.4031,-6.6798,-6.6876,-6.7507,-6.8416,-6.9441,-7.0346,-7.121,-7.1953,-7.1992,-7.1992,-7.1992,-7.1992,-7.2031,-7.2148,-7.2695,-7.3164,-7.3555,-7.4531,-7.539,-7.6094,-7.6484,-7.6797,-7.7148,-7.7226,-7.7226,-7.7422,-7.793,-7.8945,-7.9961,-8.0586,-8.1094,-8.1875,-8.1914,-8.2109,-8.2265,-8.2304,-8.2304,-8.2304,-8.2304,-8.2304,-8.2304,-8.2304,-8.2304,-8.2304,-8.2304,-8.2304,-8.2304,-8.2303,-8.2299,-8.229,-8.2281,-8.226,-8.2187,-8.2143,-8.2073,-8.2101,-8.2083,-8.211,-8.2104,-8.2104,-8.2098,-8.2098,-8.2046,-8.2026,-8.1998,-8.1999,-8.1959,-8.1926,-8.1899,-8.192,-8.1941,-8.1941,-8.2009,-8.2203,-8.2475,-8.2669,-8.2825,-8.333,-8.3796,-8.434,-8.4923,-8.5272,-8.5467,-8.5816,-8.636,-8.6593,-8.6632,-8.6728,-8.6669,-8.6316,-8.6145,-8.5906,-8.604,-8.6235,-8.6249,-8.6185,-8.6288,-8.6377,-8.6455,-8.6532,-8.661,-8.661,-8.661,-8.661,-8.6532,-8.661,-8.661,-8.6571,-8.6532,-8.661,-8.6571,-8.6377,-8.6364,-8.5784,-8.4984,-6.6798,-6.6954,-6.8182,-6.9168,-7.0033,-7.0896,-7.1562,-7.1953,-7.1992,-7.1992,-7.1992,-7.2031,-7.2187,-7.25,-7.3125,-7.3945,-7.4414,-7.539,-7.6055,-7.6562,-7.6836,-7.707,-7.7226,-7.7305,-7.7617,-7.789,-7.9101,-8.0234,-8.1015,-8.1484,-8.1914,-8.2265,-8.2304,-8.2304,-8.2304,-8.2304,-8.2344,-8.2304,-8.2344,-8.2383,-8.2383,-8.2344,-8.2304,-8.2304,-8.2304,-8.2344,-8.2304,-8.2304,-8.2302,-8.2296,-8.2324,-8.226,-8.2234,-8.2166,-8.2138,-8.2117,-8.2095,-8.2083,-8.211,-8.2104,-8.2104,-8.2104,-8.2104,-8.2085,-8.2085,-8.2051,-8.2014,-8.1983,-8.1926,-8.1899,-8.2085,-8.2153,-8.2446,-8.2708,-8.3213,-8.3641,-8.3951,-8.434,-8.469,-8.5039,-8.5622,-8.6205,-8.6321,-8.636,-8.6787,-8.6826,-8.6943,-8.6943,-8.6972,-8.6951,-8.6909,-8.6866,-8.6797,-8.6698,-8.6545,-8.6481,-8.6533,-8.6597,-8.661,-8.661,-8.661,-8.661,-8.661,-8.661,-8.661,-8.661,-8.661,-8.661,-8.661,-8.661,-8.661,-8.6571,-8.6596,-8.6583,-8.5871,-6.6876,-6.7193,-6.8694,-6.9876,-7.0779,-7.1601,-7.1992,-7.1992,-7.1992,-7.1992,-7.207,-7.2148,-7.2656,-7.3086,-7.3711,-7.4765,-7.5586,-7.6055,-7.6601,-7.6914,-7.7148,-7.7422,-7.75,-7.75,-7.8125,-7.9023,-8.0156,-8.0781,-8.1328,-8.1836,-8.2148,-8.2304,-8.2304,-8.2304,-8.2304,-8.2461,-8.2617,-8.2734,-8.2773,-8.2773,-8.2617,-8.2383,-8.2344,-8.2304,-8.2383,-8.2461,-8.2461,-8.2617,-8.2617,-8.2651,-8.2718,-8.262,-8.244,-8.2382,-8.2157,-8.2133,-8.2112,-8.2095,-8.2077,-8.2104,-8.2104,-8.2104,-8.2104,-8.2182,-8.2221,-8.2325,-8.2291,-8.238,-8.2326,-8.2206,-8.2431,-8.2754,-8.3086,-8.3408,-8.4029,-8.469,-8.5039,-8.535,-8.5583,-8.5855,-8.6282,-8.6904,-8.6943,-8.6982,-8.6982,-8.6982,-8.6982,-8.6982,-8.6972,-8.6951,-8.692,-8.6899,-8.6854,-8.6797,-8.6737,-8.67,-8.6675,-8.6636,-8.661,-8.661,-8.661,-8.661,-8.661,-8.661,-8.661,-8.661,-8.661,-8.661,-8.661,-8.661,-8.661,-8.661,-8.6596,-8.6569,-8.6486,-6.7232,-6.7943,-6.901,-6.9915,-7.0779,-7.164,-7.1992,-7.1992,-7.1992,-7.1992,-7.2265,-7.2812,-7.3203,-7.3398,-7.4883,-7.5781,-7.6015,-7.6523,-7.6875,-7.7187,-7.7344,-7.7734,-7.8125,-7.8359,-7.9258,-8.0117,-8.0898,-8.1328,-8.1719,-8.2109,-8.2344,-8.2383,-8.2383,-8.2422,-8.25,-8.2812,-8.3359,-8.3476,-8.3867,-8.4101,-8.375,-8.332,-8.2422,-8.2539,-8.2969,-8.3203,-8.3515,-8.4062,-8.4297,-8.4214,-8.3735,-8.3448,-8.3158,-8.2827,-8.2604,-8.2621,-8.2562,-8.2496,-8.2518,-8.2539,-8.2578,-8.2494,-8.2572,-8.2727,-8.2883,-8.3156,-8.3331,-8.376,-8.3594,-8.3159,-8.329,-8.384,-8.4241,-8.4514,-8.4962,-8.5661,-8.6205,-8.636,-8.6515,-8.6593,-8.671,-8.6982,-8.6982,-8.6982,-8.6982,-8.6972,-8.6941,-8.693,-8.692,-8.692,-8.692,-8.6899,-8.6877,-8.6854,-8.6797,-8.6725,-8.6687,-8.6636,-8.661,-8.661,-8.661,-8.661,-8.661,-8.661,-8.661,-8.661,-8.661,-8.661,-8.661,-8.661,-8.661,-8.6596,-8.6596,-8.6542,-8.6457]},{"header":{"parameterUnit":"m.s-1","parameterCategory":1,"la1":31.0,"la2":29.5877,"lo1":-88.7671,"lo2":-86.6584,"dx":0.0162,"dy":0.0185,"nx":115,"ny":88,"refTime":"2023-02-14T06:00:00:Z","depth":0,"parameterNumber":3,"parameterNumberName":"V-component_of_WINDS"},"data":[0.0,0.0,0.0,0.0,0.0,0.0,0.0,0.0,0.0,0.0,0.0,0.0,0.0,0.0,0.0,0.0,0.0,0.0,0.0,0.0,0.0,0.0,0.0,0.0,0.0,0.0,0.0,0.0,0.0,0.0,0.0,0.0,0.0,0.0,0.0,0.0,0.0,0.0,0.0,0.0,0.0,0.0,0.0,0.0,0.0,0.0,0.0,0.0,0.0,0.0,0.0,0.0,0.0,0.0,0.0,0.0,0.0,0.0,0.0,0.0,0.0,0.0,0.0,0.0,0.0,0.0,0.0,0.0,0.0,0.0,0.0,0.0,0.0,0.0,0.0,0.0,0.0,0.0,0.0,0.0,0.0,0.0,0.0,0.0,0.0,0.0,0.0,0.0,0.0,0.0,0.0,0.0,0.0,0.0,0.0,0.0,0.0,0.0,0.0,0.0,0.0,0.0,0.0,0.0,0.0,0.0,0.0,0.0,0.0,0.0,0.0,0.0,0.0,0.0,0.0,0.0,0.0,0.0,0.0,0.0,0.0,0.0,0.0,0.0,0.0,0.0,0.0,0.0,0.0,0.0,0.0,0.0,0.0,0.0,0.0,0.0,0.0,0.0,0.0,0.0,0.0,0.0,0.0,0.0,0.0,0.0,0.0,0.0,0.0,0.0,0.0,0.0,0.0,0.0,0.0,0.0,0.0,0.0,0.0,0.0,0.0,0.0,0.0,0.0,0.0,0.0,0.0,0.0,0.0,0.0,0.0,0.0,0.0,0.0,0.0,0.0,0.0,0.0,0.0,0.0,0.0,0.0,0.0,0.0,0.0,0.0,0.0,0.0,0.0,0.0,0.0,0.0,0.0,0.0,0.0,0.0,0.0,0.0,0.0,0.0,0.0,0.0,0.0,0.0,0.0,0.0,0.0,0.0,0.0,0.0,0.0,0.0,0.0,0.0,0.0,0.0,0.0,0.0,0.0,0.0,0.0,0.0,0.0,0.0,0.0,0.0,0.0,0.0,0.0,0.0,0.0,0.0,0.0,0.0,0.0,0.0,0.0,0.0,0.0,0.0,0.0,0.0,0.0,0.0,0.0,0.0,0.0,0.0,0.0,0.0,0.0,0.0,0.0,0.0,0.0,0.0,0.0,0.0,0.0,0.0,0.0,0.0,0.0,0.0,0.0,0.0,0.0,0.0,0.0,0.0,0.0,0.0,0.0,0.0,0.0,0.0,0.0,0.0,0.0,0.0,0.0,0.0,0.0,0.0,0.0,0.0,0.0,0.0,0.0,0.0,0.0,0.0,0.0,0.0,0.0,0.0,0.0,0.0,0.0,0.0,0.0,0.0,0.0,0.0,0.0,0.0,0.0,0.0,0.0,0.0,0.0,0.0,0.0,0.0,0.0,0.0,0.0,0.0,0.0,0.0,0.0,0.0,0.0,0.0,0.0,0.0,0.0,0.0,0.0,0.0,0.0,0.0,0.0,0.0,0.0,0.0,0.0,0.0,0.0,0.0,0.0,0.0,0.0,0.0,0.0,0.0,0.0,0.0,0.0,0.0,0.0,0.0,0.0,0.0,0.0,0.0,0.0,0.0,0.0,0.0,0.0,0.0,0.0,0.0,0.0,0.0,0.0,0.0,0.0,0.0,0.0,0.0,0.0,0.0,0.0,0.0,0.0,0.0,0.0,0.0,0.0,0.0,0.0,0.0,0.0,0.0,0.0,0.0,0.0,0.0,0.0,0.0,0.0,0.0,0.0,0.0,0.0,0.0,0.0,0.0,0.0,0.0,0.0,0.0,0.0,0.0,0.0,0.0,0.0,0.0,0.0,0.0,0.0,0.0,0.0,0.0,0.0,0.0,0.0,0.0,0.0,0.0,0.0,0.0,0.0,0.0,0.0,0.0,0.0,0.0,0.0,0.0,0.0,0.0,0.0,0.0,0.0,0.0,0.0,0.0,0.0,0.0,0.0,0.0,0.0,0.0,0.0,0.0,0.0,0.0,0.0,0.0,0.0,0.0,0.0,0.0,0.0,0.0,0.0,0.0,0.0,0.0,0.0,0.0,0.0,0.0,0.0,0.0,0.0,0.0,0.0,0.0,0.0,0.0,0.0,0.0,0.0,0.0,0.0,0.0,0.0,0.0,0.0,0.0,0.0,0.0,0.0,0.0,0.0,0.0,0.0,0.0,0.0,0.0,0.0,0.0,0.0,0.0,0.0,0.0,0.0,0.0,0.0,0.0,0.0,0.0,0.0,0.0,0.0,0.0,0.0,0.0,0.0,0.0,0.0,0.0,0.0,0.0,0.0,0.0,0.0,0.0,0.0,0.0,0.0,0.0,0.0,0.0,0.0,0.0,0.0,0.0,0.0,0.0,0.0,0.0,0.0,0.0,0.0,0.0,0.0,0.0,0.0,0.0,0.0,0.0,0.0,0.0,0.0,0.0,0.0,0.0,0.0,0.0,0.0,0.0,0.0,0.0,0.0,0.0,0.0,0.0,0.0,0.0,0.0,0.0,0.0,0.0,0.0,0.0,0.0,0.0,0.0,0.0,0.0,0.0,0.0,0.0,0.0,0.0,0.0,0.0,0.0,0.0,0.0,0.0,0.0,0.0,0.0,0.0,0.0,0.0,0.0,0.0,0.0,0.0,0.0,0.0,0.0,0.0,0.0,0.0,0.0,0.0,0.0,0.0,0.0,0.0,0.0,0.0,0.0,0.0,0.0,0.0,0.0,0.0,0.0,0.0,0.0,0.0,0.0,0.0,0.0,0.0,0.0,0.0,0.0,0.0,0.0,0.0,0.0,0.0,0.0,0.0,0.0,0.0,0.0,0.0,0.0,0.0,0.0,0.0,0.0,0.0,0.0,0.0,0.0,0.0,0.0,0.0,0.0,0.0,0.0,0.0,0.0,0.0,0.0,0.0,0.0,0.0,0.0,0.0,0.0,0.0,0.0,0.0,0.0,0.0,0.0,0.0,0.0,0.0,0.0,0.0,0.0,0.0,0.0,0.0,0.0,0.0,0.0,0.0,0.0,0.0,0.0,0.0,0.0,0.0,0.0,0.0,0.0,0.0,0.0,0.0,0.0,0.0,0.0,0.0,0.0,0.0,0.0,0.0,0.0,0.0,0.0,0.0,0.0,0.0,0.0,0.0,0.0,0.0,0.0,0.0,0.0,0.0,0.0,0.0,0.0,0.0,0.0,0.0,0.0,0.0,0.0,0.0,0.0,0.0,0.0,0.0,0.0,0.0,0.0,0.0,0.0,0.0,0.0,0.0,0.0,0.0,0.0,0.0,0.0,0.0,0.0,0.0,0.0,0.0,0.0,0.0,0.0,0.0,0.0,0.0,0.0,0.0,0.0,0.0,0.0,0.0,0.0,0.0,0.0,0.0,0.0,0.0,0.0,0.0,0.0,0.0,0.0,0.0,0.0,0.0,0.0,0.0,0.0,0.0,0.0,0.0,0.0,0.0,0.0,0.0,0.0,0.0,0.0,0.0,0.0,0.0,0.0,0.0,0.0,0.0,0.0,0.0,0.0,0.0,0.0,0.0,0.0,0.0,0.0,0.0,0.0,0.0,0.0,0.0,0.0,0.0,0.0,0.0,0.0,0.0,0.0,0.0,0.0,0.0,0.0,0.0,0.0,0.0,0.0,0.0,0.0,0.0,0.0,0.0,0.0,0.0,0.0,0.0,0.0,0.0,0.0,0.0,0.0,0.0,0.0,0.0,0.0,0.0,0.0,0.0,0.0,0.0,0.0,0.0,0.0,0.0,0.0,0.0,0.0,0.0,0.0,0.0,0.0,0.0,0.0,0.0,0.0,0.0,0.0,0.0,0.0,0.0,0.0,0.0,0.0,0.0,0.0,0.0,0.0,0.0,0.0,0.0,0.0,0.0,0.0,0.0,0.0,0.0,0.0,0.0,0.0,0.0,0.0,0.0,0.0,0.0,0.0,0.0,0.0,0.0,0.0,0.0,0.0,0.0,0.0,0.0,0.0,0.0,0.0,0.0,0.0,0.0,0.0,0.0,0.0,0.0,0.0,0.0,0.0,0.0,0.0,0.0,0.0,0.0,0.0,0.0,0.0,0.0,0.0,0.0,0.0,0.0,0.0,0.0,0.0,0.0,0.0,0.0,0.0,0.0,0.0,0.0,0.0,0.0,0.0,0.0,0.0,0.0,0.0,0.0,0.0,0.0,0.0,0.0,0.0,0.0,0.0,0.0,0.0,0.0,0.0,0.0,0.0,0.0,0.0,0.0,0.0,0.0,0.0,0.0,0.0,0.0,0.8518,0.0,0.0,0.0,0.0,0.0,0.0,0.0,0.0,0.0,0.0,0.0,0.0,0.0,0.0,0.0,0.0,0.0,0.0,0.0,0.0,0.0,0.0,0.0,0.0,0.0,0.0,0.0,0.0,0.0,0.0,0.0,0.0,0.0,0.0,0.0,0.0,0.0,0.0,0.0,0.0,0.0,0.0,0.0,0.0,0.0,0.0,0.0,0.0,0.0,0.0,0.0,0.0,0.0,0.0,0.0,0.0,0.0,0.0,0.0,0.0,0.0,0.0,0.0,0.0,0.0,0.0,0.0,0.0,0.0,0.0,0.0,0.0,0.0,0.0,0.0,0.0,0.0,0.0,0.0,0.0,0.0,0.0,0.0,0.0,0.0,0.0,0.0,0.0,0.0,0.0,0.0,0.0,0.0,0.0,0.0,0.0,0.0,0.0,0.0,0.0,0.0,0.0,0.0,0.0,0.0,0.0,0.0,0.0,0.0,0.0,0.8917,0.9117,0.8784,0.859,0.8584,0.0,0.0,0.0,0.0,0.0,0.0,0.0,0.0,0.0,0.0,0.0,0.0,0.0,0.0,0.0,0.0,0.0,0.0,0.0,0.0,0.0,0.0,0.0,0.0,0.0,0.0,0.0,0.0,0.0,0.0,0.0,0.0,0.0,0.0,0.0,0.0,0.0,0.0,0.0,0.0,0.0,0.0,0.0,0.0,0.0,0.0,0.0,0.0,0.0,0.0,0.0,0.0,0.0,0.0,0.0,0.0,0.0,0.0,0.0,0.0,0.0,0.0,0.0,0.0,0.0,0.0,0.0,0.0,0.0,0.0,0.0,0.0,0.0,0.0,0.0,0.0,0.0,0.0,0.0,0.0,0.0,0.0,0.0,0.0,0.0,0.0,0.0,0.0,0.0,0.0,0.0,0.0,0.0,0.0,0.0,0.0,0.0,0.0,0.0,0.0,0.0,0.0,0.0,0.0,0.0,0.0,0.0,0.0,0.0,0.0,0.0,0.0,0.8917,0.8629,0.8503,0.0,0.0,0.0,0.0,0.0,0.0,0.0,0.0,0.0,0.0,0.0,0.0,0.0,0.0,0.0,0.0,0.0,0.0,0.0,0.0,0.0,0.0,0.0,0.0,0.0,0.0,0.0,0.0,0.0,0.0,0.0,0.0,0.0,0.0,0.0,0.0,0.0,0.0,0.0,0.0,0.0,0.0,0.0,0.0,0.0,0.0,0.0,0.0,0.0,0.0,0.0,0.0,0.0,0.0,0.0,0.0,0.0,0.0,0.0,0.0,0.0,0.0,0.0,0.0,0.0,0.0,0.0,0.0,0.0,0.0,0.0,0.0,0.0,0.0,0.0,0.0,0.0,0.0,0.0,0.0,0.0,0.0,0.0,0.0,0.0,0.0,0.0,0.0,0.0,0.0,0.0,0.0,0.0,0.0,0.0,0.0,0.0,0.0,0.0,0.0,0.0,0.0,0.0,0.0,0.0,0.0,0.0,0.0,0.0,0.0,0.9794,1.006,0.9383,0.0,0.828,0.0,0.0,0.0,0.0,0.0,0.0,0.0,0.0,0.0,0.0,0.0,0.0,0.0,0.0,0.0,0.0,0.0,0.0,0.0,0.0,0.0,0.0,0.0,0.0,0.0,0.0,0.0,0.0,0.0,0.0,0.0,0.0,0.0,0.0,0.0,0.0,0.0,0.0,0.0,0.0,0.0,0.0,0.0,0.0,0.0,0.0,0.0,0.0,0.0,0.0,0.0,0.0,0.0,0.0,0.0,0.0,0.0,0.0,0.0,0.0,0.0,0.0,0.0,0.0,0.0,0.0,0.0,0.0,0.0,0.0,0.0,0.0,0.0,0.0,0.0,0.0,0.0,0.0,0.0,0.0,0.0,0.0,0.0,0.0,0.0,0.0,0.0,0.0,0.0,0.0,0.0,0.0,0.0,0.0,0.0,0.0,0.0,0.0,0.0,0.0,0.0,0.0,0.0,0.0,0.0,0.0,0.0,0.0,0.0,0.0,1.006,1.0193,0.9575,0.9116,0.0,0.0,0.0,0.0,0.0,0.0,0.0,0.0,0.0,0.0,0.0,0.0,0.0,0.0,0.0,0.0,0.0,0.0,0.0,0.0,0.0,0.0,0.0,0.0,0.0,0.0,0.0,0.0,0.0,0.0,0.0,0.0,0.0,0.0,0.0,0.0,0.0,0.0,0.0,0.0,0.0,0.0,0.0,0.0,0.0,0.0,0.0,0.0,0.0,0.0,0.0,0.0,0.0,0.0,0.0,0.0,0.0,0.0,0.0,0.0,0.0,0.0,0.0,0.0,0.0,0.0,0.0,0.0,0.0,0.0,0.0,0.0,0.0,0.0,0.0,0.0,0.0,0.0,0.0,0.0,0.0,0.0,0.0,0.0,0.0,0.0,0.0,0.0,0.0,0.0,0.0,0.0,0.0,0.0,0.0,0.0,0.0,0.0,0.0,0.0,0.0,0.0,0.0,0.0,0.0,0.0,0.0,0.0,0.0,0.0,1.0084,1.0143,1.0064,0.9707,0.9395,0.9203,0.0,0.0,0.0,0.0,0.0,0.0,0.0,0.0,0.0,0.0,0.0,0.0,0.0,0.0,0.0,0.0,0.0,0.0,0.0,0.0,0.0,0.0,0.0,0.0,0.0,0.0,0.0,0.0,0.0,0.0,0.0,0.0,0.0,0.0,0.0,0.0,0.0,0.0,0.0,0.0,0.0,0.0,0.0,0.0,0.0,0.0,0.0,0.0,0.0,0.0,0.0,0.0,0.0,0.0,0.0,0.0,0.0,0.0,0.0,0.0,0.0,0.0,0.0,0.0,0.0,0.0,0.0,0.0,0.0,0.0,0.0,0.0,0.0,0.0,0.0,0.0,0.0,0.0,0.0,0.0,0.0,0.0,0.0,0.0,0.0,0.0,0.0,0.0,0.0,0.0,0.0,0.0,0.0,0.0,0.0,0.0,0.0,0.0,0.0,0.0,0.0,0.0,0.0,0.0,0.0,0.0,0.0,0.0,0.9697,1.0099,1.0106,0.978,0.9767,0.9513,0.0,0.0,0.0,0.0,0.0,0.0,0.0,0.0,0.0,0.0,0.0,0.0,0.0,0.0,0.0,0.0,0.0,0.0,0.0,0.0,0.0,0.0,0.0,0.0,0.0,0.0,0.0,0.0,0.0,0.0,0.0,0.0,0.0,0.0,0.0,0.0,0.0,0.0,0.0,0.0,0.0,0.0,0.0,0.0,0.0,0.0,0.0,0.0,0.0,0.0,0.0,0.0,0.0,0.0,0.0,0.0,0.0,0.0,0.0,0.0,0.0,0.0,0.0,0.0,0.0,0.0,0.0,0.0,0.0,0.0,0.0,0.0,0.0,0.0,0.0,0.0,0.0,0.0,0.0,0.0,0.0,0.0,0.0,0.0,0.0,0.0,0.0,0.0,0.0,0.0,0.0,0.0,0.0,0.0,0.0,0.0,0.0,0.0,0.0,0.0,0.0,0.0,0.0,0.0,0.0,0.0,0.0,0.0,0.0,0.9876,1.0166,1.0213,1.0079,0.9992,0.9857,0.0,0.0,0.0,0.0,0.0,0.0,0.0,0.0,0.0,0.0,0.0,0.0,0.0,0.0,0.0,0.0,0.0,0.0,0.0,0.0,0.0,0.0,0.0,0.0,0.0,0.0,0.0,0.0,0.0,0.0,0.0,0.0,0.0,0.0,0.0,0.0,0.0,0.0,0.0,0.0,0.0,0.0,0.0,0.0,0.0,0.0,0.0,0.0,0.0,0.0,0.0,0.0,0.0,0.0,0.0,0.0,0.0,0.0,0.0,0.0,0.0,0.0,0.0,0.0,0.0,0.0,0.0,0.0,0.0,0.0,0.0,0.0,0.0,0.0,0.0,0.0,0.0,0.0,0.0,0.0,0.0,0.0,0.0,0.0,0.0,0.0,0.0,0.0,0.0,0.0,0.0,0.0,0.0,0.0,0.0,0.0,0.0,0.0,0.0,0.0,0.0,0.0,0.0,0.0,0.0,0.0,0.0,0.0,0.0,1.0225,0.0,1.0307,1.0322,1.008,0.9963,0.0,0.0,0.0,0.0,0.0,0.0,0.0,0.0,0.0,0.0,0.0,0.0,0.0,0.0,0.0,0.0,0.0,0.0,0.0,0.0,0.0,0.0,0.0,0.0,0.0,0.0,0.0,0.0,0.0,0.0,0.0,0.0,0.0,0.0,0.0,0.0,0.0,0.0,0.0,0.0,0.0,0.0,0.0,0.0,0.0,0.0,0.0,0.0,0.0,0.0,0.0,0.0,0.0,0.0,0.0,0.0,0.0,0.0,0.0,0.0,0.0,0.0,0.0,0.0,0.0,0.0,0.0,0.0,0.0,0.0,0.0,0.0,0.0,0.0,0.0,0.0,0.0,0.0,0.0,0.0,0.0,0.0,0.0,0.0,0.0,0.0,0.0,0.0,0.0,0.0,0.0,0.0,0.0,0.0,0.0,0.0,0.0,0.0,0.0,0.0,0.0,0.0,0.0,0.0,0.0,0.0,0.0,0.0,1.0126,1.0739,1.058,1.041,1.0322,1.0095,0.9909,0.0,0.0,0.0,0.0,0.0,0.0,0.0,0.0,0.0,0.0,0.0,0.0,0.0,0.0,0.0,0.0,0.0,0.0,0.0,0.0,0.0,0.0,0.0,0.0,0.0,0.0,0.0,0.0,0.0,0.0,0.0,0.0,0.0,0.0,0.0,0.0,0.0,0.0,0.0,0.0,0.0,0.0,0.0,0.0,0.0,0.0,0.0,0.0,0.0,0.0,0.0,0.0,0.0,0.0,0.0,0.0,0.0,0.0,0.0,0.0,0.0,0.0,0.0,0.0,0.0,0.0,0.0,0.0,0.0,0.0,0.0,0.0,0.0,0.0,0.0,0.0,0.0,0.0,0.0,0.0,0.0,0.0,0.0,0.0,0.0,0.0,0.0,0.0,0.0,0.0,0.0,0.0,0.0,0.0,0.0,0.0,0.0,0.0,0.0,0.0,0.0,0.0,0.0,0.0,0.0,0.0,0.0,0.0,0.0,1.0793,1.0716,1.0601,1.0308,1.0229,1.0114,0.0,0.0,0.0,0.0,0.0,0.0,0.0,0.0,0.0,0.0,0.0,0.0,0.0,0.0,0.0,0.0,0.0,0.0,0.0,0.0,0.0,0.0,0.0,0.0,0.0,0.0,0.0,0.0,0.0,0.0,0.0,0.0,0.0,0.0,0.0,0.0,0.0,0.0,0.0,0.0,0.0,0.0,0.0,0.0,0.0,0.0,0.0,0.0,0.0,0.0,0.0,0.0,0.0,0.0,0.0,0.0,0.0,0.0,0.0,0.0,0.0,0.0,0.0,0.0,0.0,0.0,0.0,0.0,0.0,0.0,0.0,0.0,0.0,0.0,0.0,0.0,0.0,0.0,0.0,0.0,0.0,0.0,0.0,0.0,0.0,0.0,0.0,0.0,0.0,0.0,0.0,0.0,0.0,0.0,0.0,0.0,0.0,0.0,0.0,0.0,0.0,0.0,0.0,0.0,0.0,0.0,0.0,0.0,0.0,1.1484,1.1187,1.0913,1.0664,1.0487,1.0304,1.0004,0.0,0.0,0.0,0.0,0.0,0.0,0.0,0.0,0.0,0.0,0.0,0.0,0.0,0.0,0.0,0.0,0.0,0.0,0.0,0.0,0.0,0.0,0.0,0.0,0.0,0.0,0.0,0.0,0.0,0.0,0.0,0.0,0.0,0.0,0.0,0.0,0.0,0.0,0.0,0.0,0.0,0.0,0.0,0.0,0.0,0.0,0.0,0.0,0.0,0.0,0.0,0.0,0.0,0.0,0.0,0.0,0.0,0.0,0.0,0.0,0.0,0.0,0.0,0.0,0.0,0.0,0.0,0.0,0.0,0.0,0.0,0.0,0.0,0.0,0.0,0.0,0.0,0.0,0.0,0.0,0.0,0.0,0.0,0.0,0.0,0.0,0.0,0.0,0.0,0.0,0.0,0.0,0.0,0.0,0.0,0.0,0.0,0.0,0.0,0.0,0.0,0.0,0.0,0.0,0.0,0.0,0.0,0.0,1.2583,1.1974,1.1533,1.1376,1.0917,1.0547,0.0,0.0,0.0,0.0,0.0,0.0,0.0,0.0,0.0,0.0,0.0,0.0,0.0,0.0,0.0,0.0,0.0,0.0,0.0,0.0,0.0,0.0,0.0,0.0,0.0,0.0,0.0,0.0,0.0,0.0,0.0,0.0,0.0,0.0,0.0,0.0,0.0,0.0,0.0,0.0,0.0,0.0,0.0,0.0,0.0,0.0,0.0,0.0,0.0,0.0,0.0,0.0,0.0,0.0,0.0,0.0,0.0,0.0,0.0,0.0,0.0,0.0,0.0,0.0,0.0,0.0,0.0,0.0,0.0,0.0,0.0,0.0,0.0,0.0,0.0,0.0,0.0,0.0,0.0,0.0,0.0,0.0,0.0,0.0,0.0,0.0,0.0,0.0,0.0,0.0,0.0,0.0,0.0,0.0,0.0,0.0,0.0,0.0,0.0,0.0,0.0,0.0,0.0,0.0,0.0,0.0,0.0,0.0,0.0,1.2882,1.2843,1.2574,1.2025,1.1705,1.115,0.0,0.0,0.0,0.0,0.0,0.0,0.0,0.0,0.0,0.0,0.0,0.0,0.0,0.0,0.0,0.0,0.0,0.0,0.0,0.0,0.0,0.0,0.0,0.0,0.0,0.0,0.0,0.0,0.0,0.0,0.0,0.0,0.0,0.0,0.0,0.0,0.0,0.0,0.0,0.0,0.0,0.0,0.0,0.0,0.0,0.0,0.0,0.0,0.0,0.0,0.0,0.0,0.0,0.0,0.0,0.0,0.0,0.0,0.0,0.0,0.0,0.0,0.0,0.0,0.0,0.0,0.0,0.0,0.0,0.0,0.0,0.0,0.0,0.0,0.0,0.0,0.0,0.0,0.0,0.0,0.0,0.0,0.0,0.0,0.0,0.0,0.0,0.0,0.0,0.0,0.0,0.0,0.0,0.0,0.0,0.0,0.0,0.0,0.0,0.0,0.0,0.0,0.0,0.0,0.0,0.0,0.0,0.0,1.3118,1.3738,1.3742,1.3627,1.3413,1.2578,1.1854,0.0,0.0,0.0,0.0,0.0,0.0,0.0,0.0,0.0,0.0,0.0,0.0,0.0,0.0,0.0,0.0,0.0,0.0,0.0,0.0,0.0,0.0,0.0,0.0,0.0,0.0,0.0,0.0,0.0,0.0,0.0,0.0,0.0,0.0,0.0,0.0,0.0,0.0,0.0,0.0,0.0,0.0,0.0,0.0,0.0,0.0,0.0,0.0,0.0,0.0,0.0,0.0,0.0,0.0,0.0,0.0,0.0,0.0,0.0,0.0,0.0,0.0,0.0,0.0,0.0,0.0,0.0,0.0,0.0,0.0,0.0,0.0,0.0,0.0,0.0,0.0,0.0,0.0,0.0,0.0,0.0,0.0,0.0,0.0,0.0,0.0,0.0,0.0,0.0,0.0,0.0,0.0,0.0,0.0,0.0,0.0,0.0,0.0,0.0,0.0,0.0,0.0,0.0,0.0,0.0,0.0,0.0,0.0,1.3957,1.4831,1.4558,1.4569,1.4968,1.3522,1.249,0.0,0.0,0.0,0.0,0.0,0.0,0.0,0.0,0.0,0.0,0.0,0.0,0.0,0.0,0.0,0.0,0.0,0.0,0.0,0.0,0.0,0.0,0.0,0.0,0.0,0.0,0.0,0.0,0.0,0.0,0.0,0.0,0.0,0.0,0.0,0.0,0.0,0.0,0.0,0.0,0.0,0.0,0.0,0.0,0.0,0.0,0.0,0.0,0.0,0.0,0.0,0.0,0.0,0.0,0.0,0.0,0.0,0.0,0.0,0.0,0.0,0.0,0.0,0.0,0.0,0.0,0.0,0.0,0.0,0.0,0.0,0.0,0.0,0.0,0.0,0.0,0.0,0.0,0.0,0.0,0.0,0.0,0.0,0.0,0.0,0.0,0.0,0.0,0.0,0.0,0.0,0.0,0.0,0.0,0.0,0.0,0.0,0.0,0.0,0.0,0.0,0.0,0.0,0.0,0.0,0.0,0.0,0.0,1.446,1.5152,1.512,1.5329,1.5769,1.411,1.2936,0.0,0.0,0.0,0.0,0.0,0.0,0.0,0.0,0.0,0.0,0.0,0.0,0.0,0.0,0.0,0.0,0.0,0.0,0.0,0.0,0.0,0.0,0.0,0.0,0.0,0.0,0.0,0.0,0.0,0.0,0.0,0.0,0.0,0.0,0.0,0.0,0.0,0.0,0.0,0.0,0.0,0.0,0.0,0.0,0.0,0.0,0.0,0.0,0.7172,0.0,0.0,0.0,0.0,0.0,0.0,0.0,0.0,0.0,0.0,0.0,0.0,0.0,0.0,0.0,0.0,0.0,0.0,0.0,0.0,0.0,0.0,0.0,0.0,0.0,0.0,0.0,0.0,0.0,0.0,0.0,0.0,0.0,0.0,0.0,0.0,0.0,0.0,0.0,0.0,0.0,0.0,0.0,0.0,0.0,0.0,0.0,0.0,0.0,0.0,0.0,0.0,0.0,0.0,0.0,0.0,0.0,0.0,0.0,1.5283,1.5959,1.5867,1.5961,1.6398,1.4931,1.3764,0.0,0.0,0.0,0.0,0.0,0.0,0.0,0.0,0.0,0.0,0.0,0.0,0.0,0.0,0.0,0.0,0.0,0.0,0.0,0.0,0.0,0.0,0.0,0.0,0.0,0.0,0.0,0.0,0.0,0.0,0.0,0.0,0.0,0.0,0.0,0.0,0.0,0.0,0.0,0.0,0.0,0.0,0.0,0.0,0.0,0.0,0.0,0.0,0.0,0.0,0.0,0.0,0.0,0.0,0.0,0.0,0.0,0.0,0.0,0.0,0.0,0.0,0.0,0.0,0.0,0.0,0.0,0.0,0.0,0.0,0.0,0.0,0.0,0.0,0.0,0.0,0.0,0.0,0.0,0.0,0.0,0.0,0.0,0.0,0.0,0.0,0.0,0.0,0.0,0.0,0.0,0.0,0.0,0.0,0.0,0.0,0.0,0.0,0.0,0.0,0.0,0.0,0.0,0.0,0.0,0.0,0.0,1.5218,1.6157,1.6825,1.6622,1.6664,1.7055,1.5804,1.4833,1.4075,0.0,0.0,0.0,0.0,0.0,0.0,0.0,0.0,0.0,0.0,0.0,0.0,0.0,0.0,0.0,0.0,0.0,0.0,0.0,0.0,0.0,0.0,0.0,0.0,0.0,0.0,0.0,0.0,0.0,0.0,0.0,0.0,0.0,0.0,0.0,0.0,0.0,0.0,0.8183,0.8391,0.0,0.0,0.0,0.0,0.0,0.0,0.0,0.0,0.7826,0.0,0.0,0.0,0.0,0.0,0.0,0.0,0.0,0.0,0.0,0.0,0.0,0.0,0.0,0.0,0.0,0.0,0.0,0.0,0.0,0.0,0.0,0.0,0.0,0.0,0.0,0.0,0.0,0.0,0.0,0.0,0.0,0.0,0.0,0.0,0.0,0.0,0.0,0.0,0.0,0.0,0.0,0.0,0.0,0.0,0.0,0.0,0.0,0.0,0.0,0.0,0.0,0.0,0.0,0.0,0.0,1.4721,1.5613,1.6395,1.7156,1.7179,1.7229,1.7378,1.6754,1.5886,1.4755,0.0,0.0,0.0,0.0,0.0,0.0,0.0,0.0,0.0,0.0,0.0,0.0,0.0,0.0,0.0,0.0,0.0,0.0,0.0,0.0,0.0,0.0,0.0,0.0,0.0,0.0,0.0,0.0,0.0,0.0,0.0,0.0,0.0,0.0,0.0,0.0,0.0,0.0,0.0,0.8796,0.8768,0.0,0.0,0.0,0.0,0.0,0.0,0.0,0.0,0.7826,0.0,0.0,0.0,0.0,0.0,0.0,0.0,0.0,0.0,0.0,0.0,0.0,0.0,0.0,0.0,0.0,0.0,0.0,0.0,0.0,0.0,0.0,0.0,0.0,0.0,0.0,0.0,0.0,0.0,0.0,0.0,0.0,0.0,0.0,0.0,0.0,0.0,0.0,0.0,0.0,0.0,0.0,0.0,0.0,0.0,0.0,0.0,0.0,0.0,0.0,0.0,0.0,0.0,0.0,0.0,1.4912,1.5821,1.6729,1.7526,1.7538,1.7718,1.8022,1.7169,1.6234,0.0,0.0,0.0,0.0,0.0,0.0,0.0,0.0,0.0,0.0,0.0,0.0,0.0,0.0,0.0,0.0,0.0,0.0,0.0,0.0,0.0,0.0,0.0,0.0,0.0,0.0,0.0,0.0,0.0,0.0,0.0,0.0,0.0,0.0,0.0,0.0,0.0,0.0,0.0,0.0,0.9001,0.8993,0.8874,0.0,0.0,0.0,0.0,0.0,0.0,0.8585,0.8288,0.0,0.0,0.0,0.0,0.0,0.0,0.0,0.0,0.0,0.0,0.0,0.0,0.0,0.0,0.0,0.0,0.0,0.0,0.0,0.0,0.0,0.0,0.0,0.0,0.0,0.0,0.0,0.0,0.0,0.0,0.0,0.0,0.0,0.0,0.0,0.0,0.0,0.0,0.0,0.0,0.0,0.0,0.0,0.0,0.0,0.0,0.0,0.0,0.0,0.0,0.0,0.0,0.0,0.0,0.0,1.5061,1.5984,1.6957,1.7883,1.7907,1.8105,1.8547,1.7442,1.6432,0.0,0.0,0.0,0.0,0.0,0.0,0.0,0.0,0.0,0.0,0.0,0.0,0.0,0.0,0.0,0.0,0.0,0.0,0.0,0.0,0.0,0.0,0.0,0.0,0.0,0.0,0.0,0.0,0.0,0.0,0.0,0.0,0.0,0.0,0.0,0.0,0.0,0.0,0.0,0.0,0.0,0.9264,0.9264,0.9121,0.0,0.0,0.0,0.0,1.0028,0.9405,0.0,0.0,0.0,0.0,0.0,0.0,0.0,0.0,0.0,0.0,0.0,0.0,0.0,0.0,0.0,0.0,0.0,0.0,0.0,0.0,0.0,0.0,0.0,0.0,0.0,0.0,0.0,0.0,0.0,0.0,0.0,0.0,0.0,0.0,0.0,0.0,0.0,0.0,0.0,0.0,0.0,0.0,0.0,0.0,0.0,0.0,0.0,0.0,0.0,0.0,0.0,0.0,0.0,0.0,0.0,0.0,1.5626,1.6228,1.7088,1.8202,1.8226,1.8354,1.8547,1.7725,1.6892,0.0,0.0,0.0,0.0,0.0,0.0,0.0,0.0,0.0,0.0,0.0,0.0,0.0,0.0,0.0,0.0,0.0,0.0,0.0,0.0,0.0,0.0,0.0,0.0,0.0,0.0,0.0,0.0,0.0,0.0,0.0,0.0,0.0,0.0,0.0,0.0,0.0,0.0,0.0,0.0,0.0,0.9546,0.9546,0.9896,1.0163,0.0,0.0,1.0133,1.0271,1.0072,0.0,0.0,0.0,0.0,0.0,0.0,0.0,0.0,0.0,0.0,0.0,0.0,0.0,0.0,0.0,0.0,0.0,0.0,0.0,0.0,0.0,0.0,0.0,0.0,0.0,0.0,0.0,0.0,0.0,0.0,0.0,0.0,0.0,0.0,0.0,0.0,0.0,0.0,0.0,0.0,0.0,0.0,0.0,0.0,0.0,0.0,0.0,0.0,0.0,0.0,0.0,0.0,0.0,0.0,0.0,1.4358,1.5727,1.6149,1.6948,1.8263,1.83,1.8407,1.8653,1.7921,1.7234,0.0,0.0,0.0,0.0,0.0,0.0,0.0,0.0,0.0,0.0,0.0,0.0,0.0,0.0,0.0,0.0,0.0,0.0,0.0,0.0,0.0,0.0,0.0,0.0,0.0,0.0,0.0,0.0,0.0,0.0,0.0,0.0,0.0,0.0,0.0,0.0,0.0,0.0,0.0,0.0,0.0,0.0,0.9738,1.0164,0.0,0.0,0.0,1.0446,1.0895,0.0,0.0,0.0,0.0,0.0,0.0,0.0,0.0,0.0,0.0,0.0,0.0,0.0,0.0,0.0,0.0,0.0,0.0,0.0,0.0,0.0,0.0,0.0,0.0,0.0,0.0,0.0,0.0,0.0,0.0,0.0,0.0,0.0,0.0,0.0,0.0,0.0,0.0,0.0,0.0,0.0,0.0,0.0,0.0,0.0,0.0,0.0,0.0,0.0,0.0,0.0,0.0,0.0,0.0,0.0,0.0,0.0,1.5772,1.6035,1.6868,1.8155,1.8251,1.8384,1.8577,1.8075,0.0,0.0,0.0,0.0,0.0,0.0,0.0,0.0,0.0,0.0,0.0,0.0,0.0,0.0,0.0,0.0,0.0,0.0,0.0,0.0,0.0,0.0,0.0,0.0,0.0,0.0,0.0,0.8364,0.0,0.0,0.0,0.0,0.0,0.0,0.0,0.0,0.0,0.0,0.0,0.0,0.0,0.0,1.0033,1.0186,1.0568,1.0979,0.0,0.0,1.0883,1.149,1.0949,1.0547,0.0,0.0,0.0,0.0,0.0,0.0,0.0,0.0,0.0,0.0,0.0,0.0,0.0,0.0,0.0,0.0,0.0,0.0,0.0,0.0,0.0,0.0,0.0,0.0,0.0,0.0,0.0,0.0,0.0,0.0,0.0,0.0,0.0,0.0,0.0,0.0,0.0,0.0,0.0,0.0,0.0,0.0,0.0,0.0,0.0,0.0,0.0,0.0,0.0,0.0,0.0,0.0,0.0,0.0,1.4075,1.5716,1.6046,1.6774,1.7889,1.8155,1.83,1.8312,1.798,1.7666,0.0,0.0,0.0,0.0,0.0,0.0,0.0,0.0,0.0,0.0,0.0,0.0,0.0,0.0,0.0,0.0,0.0,0.0,0.0,0.0,0.0,0.0,0.0,0.0,0.0,0.0,0.0,0.0,0.0,0.0,0.0,0.0,0.0,0.0,0.0,0.0,0.0,0.0,0.0,0.0,0.0,1.0477,1.093,1.1407,1.17,0.0,1.1744,1.1744,1.1752,1.153,1.1294,1.0844,0.0,0.0,0.0,0.0,0.0,0.0,0.0,0.0,0.0,0.0,0.0,0.0,0.0,0.0,0.0,0.0,0.0,0.0,0.0,0.0,0.0,0.0,0.0,0.0,0.0,0.0,0.0,0.0,0.0,0.0,0.0,0.0,0.0,0.0,0.0,0.0,0.0,0.0,0.0,0.0,0.0,0.0,0.0,0.0,0.0,0.0,0.0,0.0,0.0,0.0,0.0,0.0,0.0,1.4106,1.5772,1.5875,1.6599,1.7841,1.8167,1.8288,1.8034,1.8107,1.7853,0.0,0.0,0.0,0.0,0.0,0.0,0.0,0.0,0.0,0.0,0.0,0.0,0.0,0.0,0.0,0.0,0.0,0.0,0.0,0.0,0.0,0.0,0.0,0.0,0.0,0.0,0.0,0.0,0.9242,0.9422,0.9466,0.0,0.0,0.0,0.0,0.0,0.0,0.0,0.0,0.0,0.0,1.0709,1.1063,1.1483,0.0,0.0,1.1837,1.1837,1.1837,1.1524,1.1247,1.1059,1.0819,0.0,0.0,0.0,0.0,0.0,0.0,0.0,0.0,0.0,0.0,0.0,0.0,0.0,0.0,0.0,0.0,0.0,0.0,0.0,0.0,0.0,0.0,0.0,0.0,0.0,0.0,0.0,0.0,0.0,0.0,0.0,0.0,0.0,0.0,0.0,0.0,0.0,0.0,0.0,0.0,0.0,0.0,0.0,0.0,0.0,0.0,0.0,0.0,0.0,0.0,0.0,0.0,1.4132,1.5772,1.5896,1.6574,1.7935,1.8212,1.8272,1.7947,1.8272,1.8007,0.0,0.0,0.0,0.0,0.0,0.0,0.0,0.0,0.0,0.0,0.0,0.0,0.0,0.0,0.0,0.0,0.0,0.0,0.0,0.0,0.0,0.0,0.0,0.0,0.0,0.0,0.0,0.0,0.9617,0.9716,0.9823,0.0,0.0,0.0,0.0,0.0,0.0,0.0,0.0,0.0,0.0,1.0907,1.1252,1.1575,1.1837,1.1837,1.1837,1.1837,1.1837,1.1557,1.137,1.1313,0.0,0.0,0.0,0.0,0.0,0.0,0.0,0.0,0.0,0.0,0.0,0.0,0.0,0.0,0.0,0.0,0.0,0.0,0.0,0.0,0.0,0.0,0.0,0.0,0.0,0.0,0.0,1.182,0.0,0.0,1.2715,0.0,0.0,0.0,0.0,0.0,0.0,0.0,0.0,0.0,0.0,0.0,0.0,0.0,0.0,0.0,0.0,0.0,0.0,0.0,0.0,0.0,0.0,1.4143,1.5772,1.6133,1.6846,1.7972,1.8233,1.8304,1.8009,1.8292,1.8114,1.7491,0.0,0.0,0.0,0.0,0.0,0.0,0.0,0.0,0.0,0.0,0.0,0.0,0.0,0.0,0.0,0.0,0.0,0.0,0.0,0.0,0.0,0.0,0.0,0.0,0.0,0.0,1.0007,1.0206,1.0375,0.0,0.0,0.0,0.0,0.0,0.0,0.0,0.0,0.0,1.0708,1.082,1.1062,1.1659,1.1776,1.1837,1.1837,1.1837,1.1837,1.1837,1.176,1.1703,0.0,0.0,0.0,0.0,0.0,0.0,0.0,0.0,0.0,0.0,0.0,0.0,0.0,0.0,0.0,0.0,0.0,0.0,0.0,0.0,0.0,0.0,0.0,0.0,0.0,0.0,0.0,1.2603,1.2423,0.0,0.0,0.0,0.0,0.0,0.0,0.0,0.0,0.0,0.0,0.0,1.6006,1.5917,0.0,0.0,0.0,0.0,0.0,0.0,0.0,0.0,0.0,0.0,0.0,0.0,1.4679,1.5761,1.6296,1.7014,1.796,1.8282,1.8294,1.8031,1.8282,1.8018,1.7225,0.0,0.0,0.0,0.0,0.0,0.0,0.0,0.0,0.0,0.0,0.0,0.0,0.0,0.0,0.0,0.0,0.0,0.0,0.0,0.0,0.0,0.0,0.0,0.0,0.0,1.0343,0.0,0.0,0.0,0.0,0.0,0.0,0.0,0.0,0.0,0.0,1.0382,1.0548,1.1003,1.1051,1.1237,1.1727,1.1837,1.1837,0.0,0.0,0.0,0.0,0.0,0.0,0.0,0.0,0.0,0.0,0.0,0.0,0.0,0.0,1.2443,1.2073,1.2144,1.2184,1.2122,0.0,0.0,0.0,0.0,0.0,0.0,0.0,0.0,0.0,0.0,0.0,0.0,0.0,0.0,1.3504,1.3264,1.3204,0.0,0.0,0.0,0.0,0.0,0.0,0.0,0.0,1.6832,1.6809,1.6646,1.6564,1.6367,1.6079,1.5829,1.4953,0.0,0.0,0.0,0.0,0.0,0.0,0.0,0.0,1.5144,1.5952,1.6549,1.7271,1.8123,1.8311,1.8311,1.8148,1.8135,1.7765,1.7105,1.6753,1.6222,0.0,0.0,0.0,0.0,0.0,0.0,0.0,0.0,0.0,0.0,0.0,0.0,0.0,0.0,0.0,0.0,0.0,0.0,0.0,0.0,0.0,0.0,0.0,1.0531,0.0,0.0,0.0,0.0,0.0,0.0,0.0,0.0,0.0,1.0607,1.0712,1.0899,1.1183,1.1281,1.1427,1.1736,0.0,0.0,0.0,0.0,0.0,0.0,0.0,1.1717,1.2005,1.2072,1.2197,1.2736,1.2922,1.3066,1.3256,0.0,0.0,1.2651,1.2637,1.2678,1.2614,1.2889,1.3138,1.3413,1.3693,1.4094,0.0,0.0,0.0,0.0,1.5421,0.0,0.0,0.0,1.465,1.4471,0.0,1.4172,0.0,0.0,0.0,0.0,1.6478,1.6844,0.0,0.0,1.7479,1.7479,1.7467,1.7225,1.699,1.6736,1.6455,1.6144,1.5772,1.4441,0.0,0.0,0.0,0.0,0.0,0.0,1.5477,1.6301,1.6858,1.7526,1.8344,1.8357,1.8357,1.8369,1.783,1.7416,1.7129,1.7092,1.6738,1.5959,1.5308,0.0,0.0,0.0,0.0,0.0,0.0,0.0,0.0,0.0,0.0,0.0,0.0,0.0,0.0,0.0,0.0,0.0,0.0,0.0,0.0,1.0688,0.0,0.0,0.0,0.0,0.0,0.0,0.0,0.0,0.0,1.0647,1.0455,1.0761,1.1037,1.1208,0.0,0.0,0.0,0.0,1.1837,1.1837,1.1837,1.1837,1.1784,1.1784,1.1897,1.2199,0.0,0.0,1.3854,1.4014,1.401,1.427,1.4226,1.406,1.3356,1.3463,1.3655,1.3485,1.374,1.4051,1.4219,1.4475,1.4935,1.8712,0.0,0.0,0.0,0.0,1.7218,1.6886,1.6564,1.5853,1.5416,1.5104,1.466,0.0,0.0,0.0,0.0,0.0,0.0,1.7197,1.7479,1.7479,1.7479,1.7479,1.7406,1.7312,1.7241,1.7169,1.705,1.6687,1.616,1.5389,1.4538,0.0,0.0,0.0,0.0,1.6051,1.6325,1.7026,1.7652,1.8077,1.8077,1.8135,1.8135,1.7726,1.7443,1.737,1.7189,1.6822,1.6207,1.562,0.0,0.0,0.0,0.0,0.0,0.0,0.0,0.0,0.0,0.0,0.0,0.0,0.0,0.0,0.0,0.0,0.0,0.0,0.0,1.0962,1.0962,1.0962,0.0,0.0,0.0,0.0,0.0,0.0,0.0,0.0,0.0,1.0988,1.098,1.1078,0.0,0.0,1.1565,1.1752,1.1837,1.1837,1.1837,1.1837,0.0,1.1939,1.1955,1.2127,1.2561,1.3075,1.3651,1.4151,1.4222,1.4241,1.4307,1.4317,1.4207,1.4042,1.4066,1.4109,1.4071,1.4147,1.4275,1.4599,1.4749,1.4942,2.0223,1.9181,1.8945,1.8787,1.8763,1.8322,1.803,1.7711,1.6997,1.6398,1.5875,1.5615,1.5498,1.5531,1.5957,0.0,0.0,0.0,1.7315,1.7479,1.7479,1.7479,1.7479,1.7479,1.7479,1.7479,1.7479,1.7406,1.7249,1.6968,1.6525,1.5816,0.0,1.5163,1.5295,1.6074,1.6511,1.6637,1.7203,1.7667,1.7972,1.8031,1.8031,1.7972,1.7667,1.7479,1.7479,1.7334,1.7023,1.6494,1.6037,1.5352,0.0,0.0,0.0,0.0,0.0,0.0,0.0,0.0,0.0,0.0,0.0,1.0852,1.14,0.0,0.0,0.0,1.119,1.108,1.1126,1.1236,0.0,0.0,0.0,0.0,0.0,0.0,0.0,1.1045,1.107,1.1135,1.1305,1.124,1.1256,1.1476,1.1565,1.1654,1.176,0.0,1.1801,1.1866,1.1882,1.1939,1.2109,1.2142,1.2237,1.2729,1.3241,1.3708,1.3988,1.4114,1.4269,1.4343,1.4435,1.4553,1.4553,1.4553,1.4487,1.4345,1.4383,1.4566,1.4881,1.5013,1.5199,2.1235,2.089,2.0093,1.9787,1.9674,1.9124,1.8705,1.8385,1.7942,1.7311,1.6596,1.6744,1.6597,1.6146,1.6737,0.0,1.7479,1.7479,1.7491,1.7479,1.742,1.742,1.7479,1.7432,1.7479,1.7479,1.7479,1.7479,1.7467,1.7249,1.7117,1.7117,1.6353,1.6055,1.6313,1.6606,1.6851,1.7092,1.7346,1.7667,1.7972,1.7972,1.7972,1.7972,1.7667,1.7479,1.7479,1.7479,1.7249,1.6767,1.6426,1.5788,1.4721,0.0,0.0,0.0,0.0,0.0,0.0,0.0,0.0,0.0,0.0,0.0,0.0,0.0,0.0,0.0,1.1618,0.0,1.1181,1.14,0.0,0.0,0.0,1.1054,1.1004,1.1037,1.1053,1.1224,0.0,0.0,1.15,1.1524,1.1524,1.1541,1.1679,1.1837,1.1792,1.1801,1.1857,1.2028,1.199,1.2117,1.2296,1.2345,1.2496,1.283,1.3104,1.3363,1.3649,1.3877,1.4152,1.4279,1.4595,1.4791,1.4791,1.4772,1.4688,1.4323,1.4461,1.4721,1.4968,1.5232,1.5489,2.1149,2.0872,2.0462,2.0323,2.0371,1.9928,1.9575,1.9171,1.816,1.7513,1.7077,1.6459,1.6298,1.6419,1.6844,1.7197,1.7479,1.7256,1.7138,1.7138,1.6832,1.6891,1.7138,1.7138,1.7256,1.7479,1.7479,1.7479,1.7479,1.7418,1.7394,1.7382,1.7205,1.692,1.6606,1.6846,1.7035,1.7092,1.7346,1.755,1.7608,1.7608,1.7608,1.7608,1.755,1.7479,1.7479,1.7479,1.7334,1.702,1.6577,1.5981,1.5283,1.4754,0.0,0.0,0.0,0.0,0.0,0.0,0.0,0.0,0.0,1.2609,1.2989,0.0,1.25,0.0,1.1837,1.1618,1.1782,1.1673,0.0,0.0,1.1372,1.1251,1.102,1.1086,1.1232,1.1411,1.1435,1.1508,1.1687,1.1711,1.176,1.1882,1.1833,1.1825,1.1939,1.1963,1.2036,1.2199,1.2239,1.2304,1.2475,1.2621,1.2767,1.3175,1.3297,1.3509,1.3805,1.3879,1.3953,1.3997,1.4071,1.4137,1.4137,1.4137,1.4119,1.4086,1.4438,1.4865,1.492,1.5033,1.5062,2.1162,2.1019,2.0621,2.0343,2.0079,1.9774,1.952,1.9304,1.8279,1.7628,1.719,1.6525,1.6353,1.6697,1.6772,1.6891,1.7067,1.6844,1.6785,1.6785,1.6596,1.6596,1.6785,1.6785,1.6903,1.7067,1.7067,1.7126,1.7256,1.7256,1.7373,1.7479,1.7479,1.7346,1.7068,1.7189,1.7261,1.7261,1.7406,1.7479,1.7479,1.7479,1.7479,1.7479,1.7479,1.7479,1.7479,1.7479,1.737,1.7105,1.6834,1.6357,1.5661,1.5226,1.4722,0.0,0.0,0.0,0.0,0.0,0.0,0.0,0.0,0.0,0.0,0.0,1.2881,1.2446,1.2164,1.1928,1.1917,1.1926,1.1842,1.1651,1.1586,1.1452,1.1249,1.1289,1.1419,1.1598,1.1622,1.1663,1.1768,1.1841,1.1922,1.202,1.202,1.2044,1.2125,1.215,1.2215,1.2393,1.2418,1.2483,1.2661,1.2767,1.284,1.3104,1.3104,1.3235,1.3358,1.3555,1.3687,1.3687,1.3818,1.3875,1.3875,1.3875,1.3875,1.394,1.4202,1.4473,1.467,1.467,1.4735,2.1059,2.1057,2.0446,1.9844,1.9316,1.9052,1.8944,1.888,1.8226,1.7641,1.713,1.6624,1.6608,1.6877,1.6638,1.6524,1.6524,1.649,1.6419,1.6419,1.636,1.636,1.636,1.6419,1.6419,1.6537,1.6537,1.6667,1.6903,1.6903,1.7079,1.7361,1.7361,1.7361,1.7361,1.7361,1.742,1.7479,1.7479,1.7479,1.7479,1.7479,1.7479,1.7479,1.7479,1.7479,1.7479,1.7479,1.7382,1.7153,1.7117,1.6774,1.6042,1.5673,1.5206,0.0,1.4148,0.0,0.0,0.0,0.0,0.0,0.0,0.0,0.0,1.3478,1.3108,1.2583,1.2484,1.2293,1.1936,1.2123,1.2138,1.1716,1.171,1.162,1.1535,1.1516,1.1598,1.176,1.1837,1.1784,1.1817,1.1947,1.1966,1.2117,1.2239,1.2337,1.2377,1.2361,1.2402,1.2572,1.2596,1.2653,1.2783,1.2766,1.284,1.2766,1.2832,1.2766,1.2832,1.3104,1.3301,1.3367,1.3555,1.3744,1.3744,1.3752,1.3744,1.3678,1.3744,1.3875,1.4202,1.4342,1.4408,2.0176,1.9915,1.9385,1.8928,1.8542,1.8029,1.798,1.8162,1.7787,1.7268,1.6772,1.6428,1.6484,1.677,1.6536,1.6545,1.6834,1.6343,1.6016,1.5779,1.5472,1.5472,1.5779,1.5769,1.6005,1.6478,1.6537,1.6537,1.6596,1.6596,1.6596,1.6714,1.6714,1.6714,1.6714,0.0,0.0,0.0,1.7479,1.7479,1.7479,1.7479,1.7479,1.7479,1.7479,0.0,1.7479,1.7479,1.7467,1.7406,1.7201,0.0,0.0,0.0,0.0,0.0,0.0,0.0,0.0,0.0,0.0,0.0,1.4083,1.4029,1.4083,1.365,1.3331,1.3337,1.2979,1.2674,1.2472,1.2262,1.2051,1.1742,1.1595,1.1518,1.15,1.163,1.1744,1.1828,1.1837,1.1833,1.1963,1.2012,1.2142,1.2402,1.2555,1.258,1.271,1.2596,1.2588,1.2743,1.2767,1.2791,1.2766,1.2766,1.2766,1.2766,1.2766,1.2766,1.2766,1.284,1.2906,1.2906,1.2964,1.303,1.303,1.2972,1.303,1.303,1.303,1.3227,1.3875,1.4006,1.4006,1.975,1.9623,1.8948,1.844,0.0,1.7423,1.712,1.7001,1.7012,1.6754,1.637,1.6076,1.6045,1.6212,1.5979,1.5934,1.6108,1.5817,1.5582,1.546,1.5267,1.5267,1.545,1.5345,1.5473,1.5763,1.5596,1.5709,1.6065,1.6076,1.6183,1.6478,1.6537,1.6537,1.6537,1.6537,1.6655,1.7009,1.7009,1.7009,1.7009,1.7009,1.7067,1.7256,1.7256,0.0,0.0,0.0,0.0,0.0,0.0,0.0,0.0,1.6144,0.0,1.5032,1.4636,1.4353,1.4191,1.4191,1.4191,1.4191,1.4299,1.4309,1.4202,1.3744,1.3462,1.3573,1.3067,1.2652,1.2499,1.2226,1.192,1.1778,1.17,1.1638,1.1646,1.1719,1.1809,1.189,1.1898,1.1971,1.215,1.2247,1.2361,1.254,1.2645,1.2735,1.2808,1.2759,1.2743,1.2758,1.2766,1.2766,1.2766,1.2766,1.2766,1.2766,1.2766,1.2766,1.2766,1.2766,1.2766,1.2766,1.2766,1.2766,1.2766,1.2766,1.2766,1.2766,1.2766,1.2898,1.3293,1.349,1.3687,1.9471,1.9309,1.8658,1.8107,1.763,1.702,1.645,1.5909,1.6234,0.0,0.0,1.5782,1.5637,1.5691,1.5458,1.5357,1.5357,1.5317,1.5297,1.5234,1.5182,1.5244,1.5234,1.5063,1.4952,1.4973,1.4801,1.4929,1.5423,1.5423,1.5661,1.6124,1.6183,1.6183,1.6183,1.6183,1.6183,1.6183,1.636,1.6537,1.6537,1.6537,1.6655,1.6903,1.6903,1.702,1.7303,1.7303,1.7303,1.7303,1.7303,1.709,1.6576,1.6092,1.5648,1.5177,1.4625,1.431,1.4256,1.4213,1.4213,1.4191,1.4361,1.4393,1.4212,1.3909,1.3664,1.3638,1.3013,1.2623,1.2469,1.2141,1.1903,1.182,1.1837,1.1837,1.1776,1.1809,1.1882,1.1942,1.2052,1.2087,1.2202,1.2331,1.2451,1.2491,1.2473,1.2642,1.2634,1.2626,1.2626,1.2568,1.251,1.2576,1.2634,1.2576,1.2634,1.2568,1.2568,1.2642,1.2708,1.2708,1.2774,1.2766,1.2766,1.2766,1.2766,1.2766,1.2766,1.2774,1.2865,1.2881,1.2881,1.3178,1.3468,1.8843,1.8552,1.7898,1.7448,1.7042,1.6557,1.6054,1.5603,1.5909,1.6039,1.5964,1.5944,1.5923,1.5913,1.5691,1.5536,1.5516,1.5388,1.5182,1.488,1.488,1.488,1.487,1.485,1.4928,1.4993,1.4953,1.4902,1.4729,1.4709,1.4769,1.4888,1.4888,1.4888,1.4888,1.4888,1.4888,1.4888,1.5946,1.6537,1.6537,1.6537,1.6537,1.6537,1.6537,1.6596,1.6655,1.6655,1.6655,1.6655,1.6655,1.6573,1.6539,1.6182,1.5919,1.5588,1.5121,1.4768,1.4482,1.4309,1.4168,1.414,1.4316,1.4347,1.4127,1.4035,1.3898,1.378,1.3189,1.2772,1.2653,1.2312,1.2028,1.1828,1.1837,1.1837,1.1784,1.1914,1.2012,1.199,1.2174,1.2202,1.2106,1.2097,1.2053,1.1972,1.2018,1.1982,1.1997,1.2173,1.2239,1.2048,1.1916,1.1916,1.2064,1.1982,1.2013,1.1909,1.1997,1.2153,1.2351,1.2418,1.2484,1.2716,1.274,1.2798,1.279,1.2766,1.2798,1.2823,1.297,1.3051,1.3068,1.3241,1.3374,1.7942,1.7791,1.7477,1.7086,1.6599,1.5962,1.5585,1.5356,1.5371,1.5388,1.5388,1.5388,1.5388,1.5378,1.5281,1.5242,1.5242,1.5135,1.4968,1.484,1.4648,1.4583,1.4574,1.428,1.4178,1.4264,1.4232,1.4192,1.4278,1.4351,1.4471,1.46,1.4771,1.4832,1.4842,1.4943,1.4942,1.4993,1.5301,1.5542,1.5709,1.5769,1.5887,1.6253,1.6253,1.6371,1.6478,1.6537,1.6537,1.6537,1.6537,1.6419,1.6301,1.6018,1.5756,1.5467,1.515,1.4785,1.4449,1.4187,1.3998,1.3989,1.4204,1.4229,1.3956,1.3921,1.3799,1.3547,1.3054,1.2687,1.2475,1.2122,1.1949,1.1837,1.1857,1.1914,1.1931,1.2069,1.2152,1.2051,1.2075,1.2057,1.1904,1.1861,1.1876,1.1835,1.1784,1.1747,1.1636,1.1777,1.1881,1.1806,1.1858,1.1911,1.1918,1.1993,1.203,1.2045,1.1977,1.2112,1.224,1.224,1.2307,1.2442,1.2442,1.2585,1.2712,1.2787,1.2855,1.3133,1.3173,1.3238,1.3262,1.3392,1.3474,1.7238,1.7168,1.7168,1.6827,1.6254,1.5517,1.5194,1.5091,1.4866,1.4716,1.467,1.48,1.4866,1.48,1.48,1.4735,1.467,1.467,1.466,1.467,1.4408,1.4268,1.4259,1.3855,1.3638,1.3576,1.3537,1.3624,1.3797,1.3962,1.4077,1.4328,1.4546,1.4625,1.4625,1.4782,1.486,1.4841,1.4475,1.453,1.508,1.5069,1.5298,1.5731,1.5731,1.5839,1.6065,1.6065,1.6065,1.6065,1.6065,1.6016,1.5779,1.5547,1.5322,1.5067,1.4866,1.4603,1.4334,1.409,1.3939,1.3881,1.4023,1.4035,1.3732,1.3614,1.3497,1.329,1.2875,1.2475,1.2242,1.199,1.1833,1.1841,1.1926,1.1969,1.1985,1.2067,1.2027,1.1895,1.1949,1.1896,1.1739,1.1644,1.1666,1.1563,1.157,1.1569,1.1436,1.1403,1.1482,1.1627,1.1731,1.1803,1.1818,1.1898,1.1895,1.1986,1.1978,1.1956,1.2032,1.2047,1.2116,1.217,1.2246,1.2307,1.2597,1.2666,1.2795,1.2993,1.3101,1.338,1.3506,1.3604,1.3631,1.7087,1.6805,1.6734,1.6467,1.5936,1.5473,1.5115,1.4736,1.4423,1.4174,1.408,1.4604,1.4735,1.4473,1.4473,1.4277,1.4006,1.4006,1.4006,1.4006,1.394,1.394,1.3949,1.3857,1.3761,1.362,1.355,1.349,1.3403,1.343,1.343,1.3439,1.3448,1.3528,1.3528,1.3483,1.3492,1.3492,1.3448,1.397,1.4963,1.5004,1.4912,1.4719,1.4779,1.4769,1.4839,1.4769,1.4769,1.4769,1.4828,1.4769,1.4769,1.4748,1.4679,1.4669,1.4455,1.4252,1.3966,1.4164,1.4101,1.382,1.376,1.3586,1.3287,1.2988,1.2937,1.3006,1.2595,1.2311,1.2191,1.2028,1.1942,1.1958,1.1854,1.1838,1.1799,1.1667,1.1573,1.1523,1.1723,1.1696,1.1314,1.1262,1.1185,1.1117,1.113,1.1186,1.1248,1.1283,1.1289,1.1262,1.1283,1.1351,1.1358,1.1289,1.1407,1.14,1.131,1.1476,1.1698,1.1753,1.1786,1.208,1.2168,1.2175,1.2237,1.2268,1.2291,1.2558,1.2913,1.331,1.3728,1.3847,1.3855,1.6532,1.6391,1.6169,1.5769,1.5343,1.5086,1.4802,1.4544,1.4285,1.4059,1.3958,1.4211,1.4211,1.4137,1.408,1.4006,1.394,1.3875,1.3875,1.3875,1.3687,1.3621,1.3555,1.3358,1.3185,1.3175,1.3203,1.3229,1.3144,1.323,1.3295,1.3313,1.3409,1.3479,1.3479,1.3585,1.3638,1.3638,1.3638,1.387,1.4194,1.4428,1.4703,1.4972,1.4912,1.4842,1.4832,1.466,1.459,1.459,1.459,1.459,1.459,1.459,1.459,1.459,1.4391,1.4114,1.379,1.3691,1.3492,1.3195,1.315,1.3024,1.2904,1.2708,1.2656,1.2717,1.2525,1.2281,1.2114,1.1961,1.1885,1.1838,1.1718,1.1626,1.1626,1.164,1.1607,1.1352,1.1402,1.1314,1.0996,1.0999,1.1049,1.1036,1.1077,1.1138,1.1267,1.1301,1.1341,1.1409,1.1436,1.1389,1.1328,1.1382,1.1409,1.143,1.143,1.15,1.1557,1.1642,1.1712,1.1847,1.1903,1.1973,1.215,1.2206,1.2284,1.2489,1.2856,1.3326,1.3531,1.3753,1.3825,1.5904,1.5834,1.5541,1.5257,1.4964,1.4753,1.4579,1.4379,1.4129,1.3871,1.3699,1.3638,1.3613,1.3621,1.3687,1.3752,1.3613,1.3621,1.3613,1.3555,1.3367,1.3235,1.3169,1.2972,1.2766,1.2816,1.2898,1.2961,1.2945,1.3093,1.3144,1.3169,1.3281,1.335,1.3431,1.3561,1.3621,1.3613,1.3621,1.3552,1.3617,1.3861,1.4295,1.4673,1.4589,1.4511,1.4502,1.4317,1.414,1.414,1.4141,1.4052,1.4112,1.4052,1.4112,1.4052,1.3933,1.3693,1.3444,1.3204,1.2964,1.2724,1.2707,1.2621,1.2647,1.2488,1.2411,1.2296,1.2337,1.2228,1.2001,1.183,1.1734,1.1685,1.1565,1.1395,1.141,1.1512,1.1372,1.1122,1.1091,1.1066,1.0913,1.0941,1.1063,1.1192,1.1226,1.128,1.1409,1.1457,1.1491,1.1606,1.1613,1.1572,1.1484,1.1525,1.1613,1.1619,1.1592,1.1586,1.1619,1.1613,1.1613,1.1745,1.1592,1.1678,1.1844,1.2015,1.218,1.2538,1.2824,1.3103,1.3325,1.3539,1.3753,1.5052,1.5052,1.5044,1.4981,1.4972,1.4608,1.4348,1.4145,1.3709,1.3322,1.3193,1.2979,1.2906,1.2898,1.3235,1.3235,1.2898,1.2898,1.2898,1.2898,1.2832,1.284,1.284,1.284,1.2766,1.27,1.2684,1.2742,1.2742,1.2808,1.2816,1.28,1.28,1.2816,1.2816,1.2824,1.2832,1.2832,1.284,1.303,1.3284,1.3399,1.3406,1.3428,1.3421,1.3474,1.3457,1.3234,1.3128,1.3066,1.2968,1.2862,1.2853,1.2862,1.2871,1.2862,1.2853,1.2793,1.2802,1.2759,1.269,1.2638,1.2551,1.2513,1.246,1.2316,1.2162,1.1854,1.1979,1.1946,1.1782,1.1626,1.1516,1.1523,1.133,1.1219,1.1174,1.0989,1.079,1.0758,1.0927,1.105,1.1111,1.1214,1.1226,1.1335,1.1382,1.143,1.1545,1.1592,1.1606,1.1606,1.1619,1.1613,1.1606,1.1606,1.1613,1.1619,1.1619,1.1619,1.1619,1.1619,1.1619,1.1619,1.1619,1.1619,1.1619,1.1691,1.1835,1.2122,1.2266,1.2545,1.2975,1.3182,1.3412,1.491,1.4688,1.4697,1.4546,1.4261,1.4118,1.4019,1.3776,1.3641,1.3376,1.3116,1.3027,1.2805,1.2503,1.2642,1.2708,1.2766,1.2766,1.2708,1.251,1.251,1.2371,1.2173,1.218,1.2173,1.2173,1.2173,1.218,1.2173,1.2173,1.218,1.2173,1.218,1.2173,1.2173,1.218,1.2173,1.2173,1.2173,1.2246,1.2379,1.2379,1.2374,1.2386,1.3101,1.3488,1.3488,1.3304,1.3198,1.3198,1.3119,1.3093,1.3093,1.3093,1.3093,1.3084,1.3084,1.2969,1.2792,1.273,1.2668,1.2482,1.2228,1.2081,1.1988,1.1917,1.1762,1.1664,1.1525,1.1446,1.1439,1.133,1.1293,1.13,1.108,1.0965,1.0974,1.0934,1.09,1.0982,1.1056,1.1145,1.1267,1.1307,1.1369,1.1504,1.1538,1.1558,1.1599,1.1619,1.1626,1.1619,1.1619,1.1619,1.1619,1.1613,1.1619,1.1619,1.1619,1.1619,1.1619,1.1619,1.1619,1.1619,1.1619,1.1619,1.1619,1.164,1.1784,1.1784,1.2,1.2258,1.2545,1.2899,1.3225,1.4546,1.4332,1.4332,1.4189,1.3904,1.3753,1.3626,1.3506,1.3318,1.3082,1.2954,1.2867,1.2569,1.2283,1.2268,1.2401,1.2586,1.25,1.2379,1.218,1.2168,1.2058,1.1858,1.1858,1.1858,1.1851,1.1806,1.1784,1.1784,1.1784,1.1784,1.185,1.1784,1.1784,1.1784,1.1784,1.1784,1.1784,1.1784,1.1784,1.1784,1.1784,1.1784,1.1894,1.2588,1.3108,1.3172,1.3114,1.3075,1.3066,1.3024,1.2926,1.28,1.2674,1.2611,1.2603,1.2603,1.2548,1.2304,1.2304,1.217,1.1996,1.1789,1.1685,1.1701,1.1645,1.1532,1.1439,1.13,1.1188,1.1112,1.1126,1.1126,1.1059,1.0925,1.0853,1.0995,1.1016,1.109,1.1192,1.1233,1.1307,1.143,1.1457,1.1511,1.1613,1.1619,1.1619,1.1619,1.1667,1.1687,1.1694,1.1755,1.1782,1.1803,1.1816,1.1694,1.1667,1.166,1.1647,1.1653,1.1647,1.164,1.1633,1.1626,1.1619,1.1633,1.166,1.1681,1.1687,1.1921,1.2216,1.2466,1.2583,1.2999,1.3904,1.3904,1.3904,1.3904,1.3825,1.3468,1.3325,1.3215,1.2801,1.2655,1.2579,1.2328,1.2246,1.217,1.2133,1.217,1.2103,1.1948,1.1836,1.1844,1.197,1.1962,1.1895,1.1895,1.1895,1.1887,1.1807,1.174,1.1696,1.1637,1.1629,1.174,1.1629,1.1578,1.1733,1.1615,1.1666,1.1666,1.16,1.1718,1.1784,1.1718,1.1718,1.1718,1.1828,1.2025,1.2289,1.2458,1.2564,1.2548,1.2418,1.2194,1.1909,1.1655,1.1314,1.1464,1.1314,1.1307,1.1314,1.1393,1.1408,1.1359,1.1449,1.1466,1.1553,1.1599,1.1497,1.1254,1.1195,1.1119,1.0988,1.0948,1.0948,1.088,1.0948,1.1009,1.1124,1.1172,1.1226,1.1355,1.1396,1.1457,1.1565,1.1592,1.1599,1.1606,1.1633,1.1647,1.1667,1.1755,1.1823,1.1784,1.1757,1.1797,1.1925,1.2033,1.1864,1.1662,1.1721,1.1708,1.1735,1.1742,1.1755,1.1755,1.1755,1.1755,1.1769,1.1796,1.183,1.1857,1.2093,1.2215,1.2328,1.2529,1.2734,1.3904,1.3833,1.3611,1.3468,1.3468,1.3111,1.2968,1.296,1.2772,1.2619,1.2522,1.2462,1.2234,1.1938,1.1848,1.1717,1.1496,1.1398,1.15,1.1718,1.1761,1.1646,1.1509,1.144,1.144,1.1365,1.1118,1.0954,1.0948,1.0743,1.0545,1.0545,1.0607,1.0545,1.0594,1.0448,1.0463,1.0456,1.0632,1.0724,1.0717,1.0923,1.1056,1.1056,1.1247,1.1446,1.1578,1.1856,1.203,1.2022,1.1984,1.1888,1.1823,1.1693,1.1627,1.1627,1.1627,1.1627,1.1627,1.1555,1.1555,1.157,1.141,1.13,1.1242,1.116,1.1112,1.0987,1.1015,1.1002,1.1056,1.1097,1.1097,1.1097,1.1097,1.1158,1.1301,1.1409,1.1491,1.1531,1.1552,1.1572,1.1606,1.1626,1.1633,1.1653,1.1708,1.1689,1.1716,1.1824,1.1837,1.1628,1.1681,1.1577,1.1603,1.1697,1.1612,1.1643,1.1744,1.1837,1.1843,1.1857,1.187,1.1877,1.1884,1.1891,1.1904,1.1938,1.1979,1.1999,1.2121,1.2216,1.2284,1.24,1.2681,1.3611,1.3468,1.3253,1.3111,1.3039,1.276,1.2617,1.2545,1.2259,1.2059,1.191,1.1825,1.1564,1.1264,1.1251,1.1118,1.0977,1.0977,1.1047,1.1244,1.133,1.1177,1.0829,1.0829,1.079,1.0757,1.0474,1.0398,1.0335,1.0127,0.9989,0.9989,0.9989,1.0052,0.9983,0.991,0.9855,0.9912,1.0054,1.0145,1.0145,1.0348,1.0415,1.0483,1.082,1.0947,1.1022,1.1358,1.1636,1.174,1.1652,1.1578,1.1585,1.1446,1.138,1.138,1.138,1.138,1.138,1.1365,1.1416,1.1385,1.1206,1.1101,1.1135,1.0954,1.0941,1.1009,1.1029,1.109,1.1212,1.1316,1.1267,1.1328,1.128,1.1321,1.1457,1.1558,1.1606,1.1613,1.1613,1.164,1.1681,1.1701,1.1728,1.1775,1.171,1.1623,1.1649,1.1599,1.1508,1.1334,1.1397,1.1264,1.11,1.1176,1.1327,1.1566,1.1733,1.1884,1.1993,1.1986,1.1993,1.1986,1.1993,1.1979,1.1993,1.2088,1.2149,1.2155,1.2176,1.2319,1.236,1.2347,1.254,1.3111,1.2824,1.2753,1.2753,1.2681,1.2259,1.2051,1.1979,1.1332,1.1038,1.0959,1.0796,1.0581,1.0515,1.0628,1.0556,1.0449,1.0497,1.0413,1.0388,1.0469,1.0414,1.0343,1.0343,1.0287,1.0125,0.9968,0.9892,0.9846,0.9771,0.9874,0.9765,0.9701,0.988,0.9765,0.9874,0.9787,0.9856,0.9908,0.9959,0.9959,1.0034,1.0034,1.0034,1.0373,1.0573,1.0636,1.0973,1.1349,1.1659,1.1385,1.1259,1.1157,1.0944,1.0845,1.0852,1.0751,1.0838,1.0758,1.0925,1.09,1.1009,1.1029,1.1009,1.1166,1.1173,1.1193,1.1172,1.1179,1.124,1.1362,1.1402,1.1463,1.1558,1.1477,1.1477,1.1586,1.1619,1.1626,1.164,1.164,1.1687,1.175,1.177,1.1831,1.1837,1.1593,1.1395,1.1352,1.1277,1.1054,1.1033,1.1069,1.0922,1.075,1.091,1.1057,1.1186,1.1524,1.1776,1.2018,1.2087,1.2162,1.2149,1.2046,1.2101,1.2135,1.2244,1.2298,1.2305,1.2366,1.2467,1.2474,1.2427,1.2406,1.2896,1.2753,1.2474,1.2187,1.1893,1.1469,1.1181,1.0966,1.075,1.0606,1.0606,1.0527,1.0383,1.0455,1.0455,1.0311,1.0095,1.0023,0.9663,0.923,0.9208,0.9761,1.0263,1.04,1.0239,0.9912,0.9538,0.9358,0.9,0.8836,0.8698,0.8571,0.8693,0.8775,0.899,0.8975,0.9084,0.9349,0.955,0.9585,0.9654,0.9862,0.9989,0.9989,1.0134,1.0203,1.0197,1.0543,1.0931,1.1337,1.1255,1.118,1.1166,1.1098,1.1016,1.1023,1.1029,1.1043,1.1036,1.1029,1.1063,1.1097,1.1111,1.1124,1.122,1.1234,1.1219,1.1294,1.1335,1.1389,1.1518,1.1558,1.1586,1.1606,1.1592,1.1586,1.1613,1.1619,1.1653,1.1676,1.1703,1.1777,1.1804,1.1709,1.158,1.1557,1.1334,1.1087,1.1118,1.1097,1.0945,1.0738,1.069,1.0546,1.0474,1.063,1.0779,1.0845,1.113,1.158,1.1856,1.2149,1.2316,1.24,1.2109,1.2076,1.2276,1.2433,1.244,1.2259,1.2377,1.2424,1.2501,1.2474,1.2467,1.233,1.2036,1.1763,1.1469,1.1103,1.0894,1.0606,1.0239,1.0023,0.9879,0.9735,0.9518,0.9518,0.9518,0.9446,0.9379,0.9157,0.9163,0.8874,0.8584,0.8507,0.8868,0.9374,0.9518,0.9374,0.9157,0.8946,0.8724,0.8435,0.8222,0.8082,0.8145,0.8082,0.8222,0.843,0.8385,0.8417,0.8698,0.885,0.8889,0.8959,0.9242,0.9383,0.9524,0.973,1.0012,1.0223,1.0434,1.0671,1.0922,1.1089,1.1234,1.1234,1.1234,1.1234,1.1234,1.1234,1.1227,1.1234,1.1234,1.1261,1.124,1.126,1.1301,1.1341,1.1355,1.1409,1.147,1.1484,1.1531,1.1599,1.1667,1.1708,1.1721,1.1762,1.1775,1.1721,1.1775,1.1763,1.1683,1.1636,1.1615,1.1684,1.1403,1.1283,1.1258,1.1033,1.091,1.0851,1.0839,1.0719,1.0563,1.0408,1.0258,1.0264,1.0347,1.0453,1.0526,1.0806,1.1263,1.1545,1.1927,1.1979,1.205,1.2044,1.205,1.207,1.2147,1.2024,1.2011,1.2192,1.236,1.2444,1.2535,1.2528,1.1619,1.0972,1.0972,1.075,1.0383,1.0383,1.0095,0.9663,0.9302,0.9013,0.8729,0.8222,0.8222,0.8005,0.8222,0.8005,0.7933,0.7933,0.786,0.7715,0.7715,0.786,0.786,0.8222,0.815,0.8005,0.7933,0.786,0.7643,0.7715,0.7801,0.767,0.7742,0.7956,0.7965,0.8024,0.8092,0.814,0.8198,0.8256,0.8328,0.8544,0.8683,0.8827,0.933,0.9839,1.0132,1.0347,1.0482,1.0531,1.0928,1.1024,1.1087,1.108,1.1087,1.1101,1.1044,1.1038,1.1087,1.1044,1.1134,1.1171,1.1197,1.1393,1.1409,1.1422,1.1429,1.1586,1.1613,1.1619,1.1602,1.1696,1.1697,1.173,1.1831,1.1851,1.1791,1.1918,1.1843,1.1408,1.1333,1.1252,1.1118,1.1021,1.1051,1.0986,1.0738,1.0512,1.044,1.0391,1.033,1.0175,1.0103,1.003,1.0041,1.0057,1.0168,1.0196,1.051,1.0922,1.1106,1.1312,1.1432,1.1504,1.1723,1.1729,1.1619,1.1594,1.157,1.1823,1.2043,1.2233,1.242,1.2512,1.2589,1.0966,1.0606,1.0606,1.0167,0.959,0.959,0.9157,0.8512,0.8367,0.8295,0.815,0.786,0.7711,0.7638,0.7353,0.7063,0.6841,0.6841,0.6624,0.6337,0.6261,0.6337,0.6559,0.7144,0.7285,0.6994,0.6769,0.6627,0.6413,0.6505,0.637,0.65,0.6875,0.7019,0.7317,0.7534,0.7861,0.8024,0.8087,0.8024,0.8029,0.8174,0.8242,0.8314,0.8744,0.9168,0.9518,0.9879,0.9994,1.0174,1.037,1.0649,1.0702,1.0702,1.0702,1.0695,1.0708,1.0643,1.0649,1.0702,1.0655,1.0746,1.083,1.079,1.1103,1.1122,1.1266,1.1476,1.1619,1.1615,1.1636,1.1556,1.1473,1.1444,1.139,1.1315,1.1202,1.1364,1.1459,1.122,1.1106,1.1149,1.1195,1.0815,1.0767,1.0719,1.0486,1.0175,1.0097,1.0097,1.0036,1.0047,1.0057,1.0085,1.0155,1.0172,1.0204,1.0237,1.0467,1.0614,1.0879,1.101,1.1163,1.1329,1.1598,1.1488,1.1177,1.1378,1.1451,1.1714,1.1874,1.208,1.2279,1.2482,1.2678,1.0462,0.9951,0.9951,0.9446,0.8796,0.8729,0.8295,0.7715,0.757,0.7353,0.7059,0.6841,0.6769,0.6769,0.6551,0.6333,0.6188,0.6116,0.6043,0.5908,0.5856,0.566,0.5379,0.591,0.6138,0.6107,0.6173,0.604,0.5924,0.5857,0.6032,0.5914,0.6141,0.6365,0.6515,0.6813,0.7017,0.7281,0.7412,0.7486,0.7712,0.7929,0.8076,0.8224,0.8445,0.8735,0.9187,0.9334,0.9549,0.9764,0.9985,1.0286,1.0474,1.0527,1.0455,1.0527,1.0527,1.0527,1.0527,1.0527,1.0521,1.0462,1.0527,1.0599,1.0703,1.08,1.0916,1.1081,1.1199,1.1276,1.1347,1.1326,1.1177,1.1208,1.1155,1.1075,1.0916,1.1091,1.1219,1.0916,1.0851,1.0726,1.0618,1.048,1.0408,1.033,1.0342,1.003,1.0103,1.003,1.0074,1.0095,1.0112,1.0155,1.0253,1.0307,1.0346,1.0389,1.0524,1.0601,1.0705,1.0928,1.1074,1.112,1.1143,1.1022,1.0816,1.1028,1.1212,1.1326,1.1555,1.1826,1.2141,1.239,1.2602,0.9879,0.909,0.9157,0.8657,0.8005,0.7933,0.7498,0.6845,0.6845,0.6478,0.5901,0.5752,0.5756,0.561,0.5535,0.5535,0.5396,0.5411,0.5198,0.5204,0.5262,0.4986,0.4702,0.4724,0.4965,0.5528,0.5441,0.5469,0.55,0.56,0.5286,0.561,0.5767,0.5764,0.5843,0.5995,0.628,0.6555,0.6627,0.6781,0.7164,0.7465,0.7761,0.8211,0.8281,0.8506,0.8805,0.896,0.905,0.9446,0.9521,0.978,1.0079,1.0372,1.0372,1.0384,1.0335,1.0274,1.028,1.0335,1.0329,1.0372,1.0384,1.0384,1.0414,1.0553,1.0602,1.073,1.086,1.0952,1.0832,1.0866,1.0932,1.0962,1.1047,1.0862,1.0719,1.0874,1.0779,1.0624,1.0457,1.0391,1.0241,1.0097,1.0019,1.0025,1.0041,1.0047,1.0052,1.0085,1.0155,1.0193,1.0221,1.028,1.0373,1.0471,1.0503,1.052,1.0574,1.0617,1.0683,1.0738,1.0853,1.0699,1.0644,1.0546,1.0633,1.0753,1.0905,1.0924,1.119,1.1655,1.1956,1.2211,1.2594,0.9018,0.8295,0.8295,0.786,0.7208,0.7208,0.67,0.6043,0.6047,0.597,0.5756,0.5465,0.5101,0.4883,0.4517,0.4228,0.4168,0.4121,0.4071,0.4082,0.4125,0.3997,0.3926,0.3868,0.3957,0.3966,0.4103,0.4089,0.4169,0.4011,0.435,0.4295,0.4762,0.5069,0.5299,0.5682,0.5892,0.6011,0.6156,0.638,0.6683,0.6831,0.7209,0.7813,0.7818,0.8115,0.8403,0.8544,0.8535,0.861,0.861,0.867,0.9014,0.9532,0.9824,0.9876,0.9865,0.9854,0.9934,0.9882,0.9824,0.983,0.9882,1.0036,1.0191,1.0294,1.0386,1.0652,1.08,1.0884,1.096,1.0756,1.0672,1.0618,1.0474,1.0275,1.0197,1.0286,1.037,1.0308,1.0208,1.0114,1.0057,1.0079,1.0106,1.0134,1.0155,1.0166,1.0172,1.0231,1.0313,1.034,1.0356,1.0427,1.0503,1.0601,1.0666,1.065,1.0672,1.0672,1.0721,1.0726,1.0688,1.0617,1.0617,1.0634,1.0645,1.0639,1.0628,1.0842,1.1123,1.1488,1.1764,1.2112,1.2576,0.8222,0.757,0.7498,0.7063,0.6482,0.6406,0.6047,0.5538,0.5465,0.5247,0.4953,0.4738,0.4447,0.4083,0.3864,0.3658,0.3539,0.3481,0.3505,0.3529,0.3645,0.3515,0.3368,0.3381,0.3249,0.3104,0.3017,0.3315,0.3702,0.3704,0.3711,0.3807,0.4201,0.4357,0.4435,0.4901,0.5272,0.5396,0.5704,0.6012,0.6393,0.6469,0.6777,0.7164,0.7395,0.7706,0.8166,0.8319,0.8401,0.8554,0.8631,0.8626,0.8698,0.8913,0.9264,0.9327,0.9376,0.9446,0.9671,0.9666,0.9736,0.9741,0.9671,0.9741,0.9913,1.0016,1.0154,1.0304,1.0414,1.0477,1.0477,1.0385,1.0353,1.0336,1.0196,1.0144,1.0188,1.0199,1.0193,1.0177,1.0166,1.0234,1.0144,1.0172,1.0204,1.0231,1.0264,1.028,1.0297,1.0362,1.0443,1.0476,1.0492,1.0547,1.0606,1.0666,1.0737,1.0737,1.0737,1.0737,1.0737,1.0737,1.0737,1.0704,1.0732,1.0737,1.0726,1.0688,1.0721,1.0737,1.0882,1.1197,1.1623,1.202,1.2465,0.7498,0.6845,0.6769,0.6333,0.5756,0.5683,0.5392,0.5029,0.4959,0.4592,0.4007,0.3935,0.3789,0.3429,0.3295,0.324,0.3274,0.3283,0.3244,0.3269,0.3308,0.3251,0.3029,0.2966,0.2822,0.2662,0.2585,0.2906,0.3288,0.3443,0.3452,0.345,0.3531,0.3689,0.3764,0.4153,0.4473,0.4787,0.5179,0.5651,0.604,0.6275,0.6431,0.6744,0.6822,0.7131,0.7583,0.7821,0.7976,0.821,0.837,0.8457,0.8544,0.8544,0.8625,0.8792,0.8905,0.9207,0.9369,0.9455,0.94,0.94,0.9602,0.9596,0.9688,0.9769,0.9911,1.0003,1.0052,1.0135,1.0141,1.009,1.0144,1.0204,1.0248,1.0269,1.0324,1.0346,1.0335,1.0313,1.0291,1.028,1.0269,1.0259,1.0291,1.0329,1.0362,1.0405,1.0422,1.0476,1.0547,1.0601,1.0639,1.0677,1.0704,1.0693,1.0737,1.0737,1.0737,1.0737,1.0737,1.0737,1.0742,1.0753,1.0737,1.0737,1.0737,1.0737,1.0737,1.0737,1.0737,1.0981,1.1475,1.189,1.2363,0.6845,0.6413,0.6119,0.5683,0.5323,0.525,0.4883,0.4299,0.4226,0.4007,0.3573,0.3573,0.3354,0.3,0.2733,0.2597,0.262,0.2655,0.2759,0.2774,0.2724,0.2737,0.2585,0.259,0.2514,0.2358,0.2438,0.2514,0.2675,0.2754,0.2752,0.2833,0.3072,0.3222,0.3234,0.3631,0.3846,0.4005,0.4402,0.4954,0.5582,0.5974,0.621,0.6288,0.6367,0.653,0.6777,0.7016,0.7244,0.7236,0.7537,0.7612,0.7681,0.7681,0.7916,0.8283,0.859,0.8818,0.8954,0.9016,0.9011,0.9084,0.9253,0.9356,0.9511,0.9759,0.9952,1.0014,1.0112,1.0177,1.0199,1.0269,1.0329,1.0351,1.0362,1.0373,1.0411,1.0481,1.0471,1.0471,1.0454,1.0427,1.0405,1.0389,1.0384,1.0422,1.046,1.0509,1.0547,1.059,1.0623,1.0666,1.0699,1.0737,1.0791,1.078,1.0802,1.078,1.0791,1.0791,1.0813,1.0829,1.078,1.0786,1.0775,1.0786,1.0813,1.0802,1.0759,1.0737,1.0737,1.0987,1.132,1.1736,1.2158,0.5901,0.5686,0.5538,0.5101,0.4589,0.4592,0.4301,0.3864,0.3791,0.35,0.3209,0.3136,0.2927,0.2656,0.2464,0.2414,0.2432,0.2458,0.248,0.2491,0.2429,0.2514,0.2435,0.2278,0.2121,0.2126,0.1977,0.1747,0.1905,0.2302,0.254,0.2542,0.2713,0.2806,0.2796,0.3202,0.3445,0.3607,0.3928,0.4246,0.4726,0.512,0.5439,0.5682,0.5839,0.6078,0.6317,0.6564,0.6643,0.6723,0.7039,0.7278,0.7358,0.7521,0.776,0.7924,0.8083,0.8423,0.8719,0.8788,0.8715,0.8783,0.8944,0.9032,0.9169,0.955,0.9824,0.9834,1.0115,1.0302,1.0307,1.0356,1.0416,1.0454,1.0481,1.0525,1.0547,1.0579,1.0612,1.0612,1.0612,1.0585,1.0563,1.0574,1.0563,1.0568,1.0606,1.065,1.0666,1.0677,1.0699,1.0715,1.0737,1.0764,1.0824,1.0862,1.0927,1.0938,1.0971,1.0971,1.0965,1.0954,1.0905,1.0916,1.0965,1.096,1.0927,1.0851,1.0791,1.0759,1.0737,1.0931,1.121,1.1421,1.192,0.5032,0.4959,0.4883,0.4592,0.408,0.4007,0.3718,0.3354,0.3354,0.3136,0.2847,0.2781,0.2658,0.2466,0.242,0.2368,0.2312,0.2321,0.2258,0.2272,0.22,0.2121,0.2043,0.1807,0.1731,0.1736,0.1591,0.144,0.1527,0.1853,0.2179,0.2251,0.2181,0.219,0.2356,0.2597,0.292,0.3323,0.3568,0.3813,0.3978,0.4221,0.4545,0.4875,0.5204,0.5526,0.5932,0.6088,0.6169,0.6408,0.6728,0.696,0.6963,0.7282,0.7528,0.7609,0.777,0.8054,0.8371,0.8488,0.8544,0.8544,0.8702,0.8753,0.8964,0.9296,0.9496,0.9467,0.9926,1.0179,1.0276,1.0379,1.053,1.0579,1.0601,1.0661,1.0704,1.0699,1.0688,1.0677,1.0693,1.0737,1.0737,1.0764,1.0764,1.0742,1.0759,1.0791,1.0808,1.0808,1.0835,1.0862,1.0873,1.0895,1.0927,1.0982,1.1041,1.1079,1.1112,1.1107,1.1079,1.1069,1.1041,1.1074,1.1123,1.1079,1.1014,1.0916,1.0835,1.0873,1.09,1.0867,1.1025,1.1322,1.1825,0.4519,0.4153,0.4153,0.4153,0.4007,0.3718,0.3281,0.2917,0.2917,0.27,0.2414,0.2438,0.247,0.2347,0.2373,0.2236,0.1854,0.1874,0.1803,0.157,0.1413,0.1492,0.1493,0.1417,0.1344,0.1355,0.1124,0.1131,0.1301,0.1232,0.1392,0.1385,0.1554,0.1467,0.155,0.1964,0.2372,0.278,0.3106,0.3348,0.3593,0.3835,0.3996,0.3994,0.4072,0.4228,0.4634,0.5137,0.5471,0.58,0.6289,0.6533,0.6622,0.7026,0.7192,0.7355,0.7599,0.7819,0.8029,0.8076,0.7927,0.8012,0.8173,0.8487,0.8756,0.8922,0.9017,0.9131,0.9611,0.9886,1.0086,1.0303,1.0495,1.0589,1.0594,1.0693,1.0732,1.0759,1.0748,1.0737,1.078,1.0846,1.0878,1.0905,1.0889,1.0862,1.0884,1.0916,1.0976,1.0992,1.102,1.1041,1.1052,1.1063,1.1074,1.1118,1.1139,1.1172,1.1199,1.1177,1.1145,1.1139,1.1183,1.1172,1.1199,1.115,1.1123,1.1096,1.1074,1.1079,1.1063,1.0998,1.1152,1.1487,1.2095,0.4226,0.408,0.3571,0.3352,0.3354,0.3209,0.2917,0.2551,0.2551,0.2491,0.2365,0.241,0.2288,0.215,0.2094,0.1872,0.1561,0.1488,0.1413,0.1335,0.1335,0.1335,0.1259,0.1029,0.0876,0.0802,0.0648,0.0,0.0494,0.0,0.0,0.0582,0.0995,0.1246,0.1412,0.1409,0.1741,0.1991,0.2324,0.2573,0.274,0.3323,0.3572,0.3572,0.3902,0.3984,0.4235,0.465,0.4899,0.5311,0.5884,0.6129,0.6291,0.6625,0.6956,0.72,0.7447,0.7616,0.7921,0.7868,0.7799,0.7815,0.8006,0.8208,0.8453,0.8579,0.8779,0.8971,0.9219,0.9574,0.9682,1.0039,1.031,1.0404,1.0492,1.0664,1.0702,1.074,1.0846,1.0851,1.0922,1.1003,1.102,1.1031,1.1009,1.0987,1.1014,1.1052,1.1112,1.1145,1.1161,1.1166,1.1166,1.1188,1.1199,1.1215,1.1237,1.1264,1.1291,1.1275,1.1264,1.1324,1.1351,1.1324,1.1297,1.1297,1.1297,1.1313,1.1281,1.1199,1.1139,1.1085,1.1349,1.1727,1.2256,0.3935,0.3644,0.3134,0.2917,0.2917,0.2771,0.2551,0.2334,0.2343,0.2369,0.2408,0.2375,0.2165,0.1865,0.172,0.1491,0.1177,0.1099,0.1021,0.0942,0.0864,0.0866,0.0791,0.0637,0.0401,0.0,0.0,0.0,0.0,0.0,0.0,0.0,0.0589,0.0756,0.0924,0.1094,0.1178,0.1346,0.1598,0.1766,0.1933,0.2352,0.2856,0.2856,0.3189,0.3524,0.3774,0.4107,0.4446,0.4782,0.5287,0.5712,0.5966,0.6305,0.6643,0.6892,0.7143,0.7394,0.7694,0.7966,0.7876,0.7909,0.7938,0.7966,0.8074,0.8282,0.8452,0.8549,0.8896,0.9156,0.924,0.9569,0.9859,0.9958,1.0314,1.0493,1.0646,1.0694,1.0875,1.0976,1.1047,1.1096,1.1172,1.1183,1.1172,1.1145,1.1139,1.1183,1.1259,1.1275,1.1264,1.1264,1.1259,1.1286,1.1313,1.1324,1.134,1.1357,1.1384,1.1406,1.1417,1.1543,1.1543,1.1406,1.14,1.1533,1.1522,1.1395,1.133,1.1259,1.1232,1.1226,1.1428,1.1806,1.2219,0.3644,0.2917,0.2917,0.2917,0.2844,0.2478,0.2334,0.2269,0.2295,0.2335,0.2379,0.2007,0.1787,0.1722,0.1413,0.1021,0.0707,0.0628,0.0471,0.0236,0.0,0.0,0.0,0.0,0.0,0.0,0.0,0.0,0.0,0.0,0.0,0.0,0.0,0.0,0.0,0.0505,0.0842,0.1178,0.1262,0.1348,0.1349,0.1519,0.1861,0.2109,0.2278,0.2701,0.3197,0.3533,0.3954,0.4458,0.471,0.513,0.5382,0.5885,0.6137,0.6305,0.656,0.6895,0.7391,0.7801,0.7948,0.8015,0.8023,0.8032,0.8048,0.8144,0.8144,0.8315,0.85,0.8667,0.8914,0.9091,0.9408,0.961,1.0058,1.0333,1.04,1.0725,1.0827,1.094,1.1031,1.115,1.1264,1.1335,1.133,1.1308,1.1281,1.1308,1.1373,1.1384,1.1357,1.1351,1.1346,1.1362,1.1389,1.1511,1.1533,1.1549,1.1543,1.1543,1.1543,1.1543,1.1543,1.1549,1.1543,1.1543,1.1543,1.1538,1.1389,1.1346,1.1389,1.1489,1.1605,1.1771,1.2079,0.3134,0.2844,0.2625,0.2478,0.2478,0.2333,0.2343,0.2295,0.2113,0.1991,0.193,0.1633,0.1251,0.1099,0.0942,0.0,0.0,0.0157,0.0079,0.0,0.0,0.0,0.0,0.0,0.0,0.0,0.0,0.0,0.0,0.0,0.0,0.0,0.0,0.0,0.0,0.0168,0.0337,0.0506,0.0677,0.0936,0.0936,0.1112,0.137,0.1532,0.1787,0.2121,0.2616,0.3038,0.3544,0.3966,0.4303,0.4722,0.4974,0.5395,0.5726,0.5975,0.6311,0.6476,0.6892,0.7391,0.7725,0.7985,0.8072,0.8072,0.8064,0.806,0.806,0.8085,0.8302,0.8399,0.8408,0.8901,0.9126,0.9221,0.9578,0.9836,1.0052,1.0473,1.0693,1.0899,1.1002,1.1127,1.1296,1.1135,1.114,1.125,1.1223,1.1378,1.1427,1.1433,1.1511,1.1516,1.1516,1.1527,1.1549,1.1487,1.1509,1.152,1.1487,1.1543,1.1543,1.1498,1.1582,1.1514,1.1571,1.1549,1.1498,1.152,1.1471,1.1538,1.1504,1.1487,1.1538,1.1621,1.1788,0.2844,0.2698,0.2405,0.226,0.226,0.226,0.2281,0.2172,0.1912,0.1778,0.1554,0.1253,0.0942,0.0628,0.0471,0.0314,0.0,0.0,0.0,0.0,0.0,0.0,0.0,0.0,0.0,0.0,0.0,0.0,0.0,0.0,0.0,0.0,0.0,0.0,0.0,0.0,0.0,0.0,0.0343,0.043,0.0517,0.0691,0.0866,0.1121,0.1375,0.1715,0.2132,0.2552,0.3149,0.3488,0.3913,0.4422,0.4677,0.502,0.5444,0.5784,0.6123,0.6296,0.6558,0.6982,0.7414,0.7835,0.8049,0.8109,0.8121,0.8154,0.8166,0.8191,0.8215,0.8232,0.8342,0.8762,0.8783,0.8965,0.9161,0.9426,0.9656,1.0078,1.0356,1.0568,1.0677,1.09,1.102,1.0931,1.0748,1.0957,1.1157,1.1325,1.1393,1.1487,1.1493,1.1582,1.1493,1.1504,1.152,1.1542,1.1558,1.158,1.1563,1.1547,1.159,1.165,1.1607,1.158,1.1607,1.1623,1.1601,1.1596,1.1596,1.1601,1.1623,1.1574,1.1482,1.1554,1.1649,0.2698,0.2333,0.226,0.226,0.226,0.2266,0.2077,0.1819,0.1766,0.1554,0.1256,0.0785,0.055,0.0471,0.0157,0.0,0.0,0.0,0.0,0.0,0.0,0.0,0.0,0.0,0.0,0.0,0.0,0.0,0.0,0.0,0.0,0.0,0.0,0.0,0.0,0.0,0.0,0.0,0.0,0.0,0.0,0.0,0.0,0.061,0.087,0.1302,0.1731,0.2163,0.2685,0.3121,0.3558,0.408,0.4429,0.4778,0.5125,0.5556,0.598,0.6061,0.6231,0.6566,0.7004,0.7417,0.7824,0.8049,0.8215,0.8252,0.8264,0.8285,0.8313,0.8326,0.835,0.8466,0.8494,0.8698,0.8908,0.9123,0.9268,0.9566,0.9833,1.0021,1.0124,1.0243,1.0342,1.0347,1.049,1.0615,1.0821,1.0976,1.1135,1.1563,1.1563,1.1558,1.1563,1.1563,1.1585,1.1634,1.1656,1.1688,1.1726,1.1726,1.1775,1.1775,1.1732,1.1716,1.1775,1.1781,1.1726,1.1732,1.177,1.177,1.1732,1.1656,1.1558,1.1514,1.1682,0.2405,0.226,0.226,0.226,0.2266,0.2082,0.1891,0.1766,0.1243,0.0862,0.0785,0.0393,0.0,0.0157,0.0,0.0,0.0,0.0,0.0,0.0,0.0,0.0,0.0,0.0,0.0,0.0,0.0,0.0,0.0,0.0,0.0,0.0,0.0,0.0,0.0,0.0,0.0,0.0,0.0,0.0,0.0,0.0,0.0,0.0,0.0,0.0877,0.1136,0.1744,0.2266,0.2527,0.3222,0.3827,0.4259,0.4607,0.5041,0.5559,0.5732,0.5819,0.5822,0.6169,0.6525,0.6805,0.715,0.7743,0.7984,0.8243,0.8267,0.8292,0.8411,0.8428,0.8444,0.8468,0.8493,0.8606,0.8808,0.8829,0.9054,0.9228,0.95,0.9536,0.9639,0.987,0.9879,1.0011,1.0154,1.0278,1.0379,1.0547,1.0881,1.1224,1.1469,1.1554,1.1661,1.1677,1.1716,1.1764,1.1781,1.1803,1.1846,1.1868,1.1851,1.1846,1.183,1.1846,1.1884,1.1862,1.1808,1.1841,1.1895,1.1841,1.1797,1.1716,1.1645,1.1612,1.1569,0.226,0.226,0.226,0.22,0.2004,0.1513,0.1306,0.1243,0.0783,0.055,0.0314,0.0157,0.0,0.0,0.0,0.0,0.0,0.0,0.0,0.0,0.0,0.0,0.0,0.0,0.0,0.0,0.0,0.0,0.0,0.0,0.0,0.0,0.0,0.0,0.0,0.0,0.0,0.0,0.0,0.0,0.0,0.0,0.0,0.0,0.0,0.0442,0.0705,0.1408,0.1673,0.2026,0.2819,0.3348,0.3874,0.4492,0.5107,0.5552,0.564,0.5731,0.5734,0.5819,0.6074,0.6341,0.663,0.7071,0.7589,0.7937,0.8201,0.8389,0.8505,0.853,0.855,0.857,0.8587,0.8603,0.8607,0.8607,0.8697,0.8875,0.899,0.9118,0.9256,0.9498,0.9634,0.977,0.9806,0.9741,0.9865,1.0157,1.0489,1.0993,1.1227,1.1383,1.1593,1.1803,1.1851,1.1803,1.1917,1.1949,1.1998,1.2004,1.1955,1.196,1.1987,1.1987,1.1982,1.196,1.1949,1.1971,1.1998,1.1944,1.1922,1.1889,1.1824,1.1748,1.1699,0.226,0.2261,0.2262,0.2073,0.1666,0.0996,0.0621,0.0549,0.055,0.0314,0.0,0.0,0.0,0.0,0.0,0.0,0.0,0.0,0.0,0.0,0.0,0.0,0.0,0.0,0.0,0.0,0.0,0.0,0.0,0.0,0.0,0.0,0.0,0.0,0.0,0.0,0.0,0.0,0.0,0.0,0.0,0.0,0.0,0.0,0.0,0.0179,0.0538,0.0897,0.1167,0.1795,0.2332,0.2777,0.358,0.447,0.5097,0.5457,0.5622,0.5711,0.5709,0.5798,0.5984,0.6168,0.6451,0.6707,0.7132,0.757,0.7921,0.8187,0.8296,0.8482,0.8494,0.8591,0.8603,0.8624,0.8632,0.8644,0.8652,0.8763,0.8898,0.894,0.9094,0.9241,0.9262,0.9397,0.9453,0.9288,0.9398,0.971,0.9973,1.0478,1.0811,1.1043,1.1449,1.1671,1.1791,1.1833,1.2058,1.2096,1.2123,1.2123,1.2074,1.2107,1.2161,1.2118,1.2069,1.2112,1.2123,1.2107,1.2096,1.2102,1.208,1.2085,1.202,1.1911,1.1997,0.226,0.2262,0.2063,0.1717,0.1288,0.0844,0.0388,0.0157,0.0157,0.0,0.0,0.0,0.0,0.0,0.0,0.0,0.0,0.0,0.0,0.0,0.0,0.0,0.0,0.0,0.0,0.0,0.0,0.0,0.0,0.0,0.0,0.0,0.0,0.0,0.0,0.0,0.0,0.0,0.0,0.0,0.0,0.0,0.0,0.0,0.0,0.0,0.0,0.0539,0.0988,0.1526,0.1975,0.2693,0.3588,0.4485,0.502,0.5201,0.547,0.5652,0.5741,0.5741,0.5831,0.5831,0.6007,0.6276,0.6633,0.7084,0.7531,0.7889,0.8157,0.8339,0.8522,0.8522,0.8619,0.864,0.8668,0.8689,0.8705,0.8758,0.8807,0.8864,0.8926,0.8962,0.8983,0.902,0.9077,0.9101,0.9105,0.9307,0.9492,0.9835,1.0291,1.0643,1.1136,1.1449,1.1642,1.1825,1.1935,1.214,1.215,1.2161,1.2172,1.2172,1.2172,1.2172,1.2161,1.2172,1.2172,1.2167,1.2161,1.2172,1.2167,1.214,1.2234,1.2152,1.2227,0.226,0.2265,0.1711,0.1283,0.0917,0.0541,0.0234,0.0,0.0,0.0,0.0,0.0,0.0,0.0,0.0,0.0,0.0,0.0,0.0,0.0,0.0,0.0,0.0,0.0,0.0,0.0,0.0,0.0,0.0,0.0,0.0,0.0,0.0,0.0,0.0,0.0,0.0,0.0,0.0,0.0,0.0,0.0,0.0,0.0,0.0,0.0,0.0,0.0269,0.0628,0.1167,0.1796,0.2693,0.3411,0.4037,0.4574,0.4933,0.5291,0.547,0.5652,0.5741,0.5741,0.5741,0.5741,0.601,0.601,0.6458,0.6905,0.7263,0.7889,0.8157,0.8265,0.8363,0.8574,0.8693,0.8746,0.8791,0.8824,0.8864,0.8901,0.8938,0.8999,0.906,0.9073,0.9077,0.9122,0.9126,0.9138,0.9138,0.9237,0.9427,0.9806,1.0185,1.0753,1.1222,1.149,1.1673,1.1873,1.1978,1.2172,1.2172,1.2172,1.2172,1.2172,1.2172,1.2172,1.2172,1.2172,1.2172,1.2172,1.2172,1.2172,1.2167,1.2267,1.2361,1.2642,0.2262,0.2126,0.1499,0.0991,0.054,0.0156,0.0,0.0,0.0,0.0,0.0,0.0,0.0,0.0,0.0,0.0,0.0,0.0,0.0,0.0,0.0,0.0,0.0,0.0,0.0,0.0,0.0,0.0,0.0,0.0,0.0,0.0,0.0,0.0,0.0,0.0,0.0,0.0,0.0,0.0,0.0,0.0,0.0,0.0,0.0,0.0,0.0,0.0,0.0,0.0902,0.1624,0.2434,0.3149,0.3597,0.4216,0.4664,0.5022,0.5291,0.5559,0.5741,0.5741,0.5741,0.5741,0.5747,0.5749,0.5937,0.6386,0.6755,0.7384,0.7825,0.7937,0.8242,0.8458,0.8766,0.8832,0.8901,0.8938,0.8971,0.8995,0.9024,0.9069,0.9134,0.9138,0.9142,0.9142,0.9142,0.9142,0.9142,0.9237,0.9427,0.9711,0.9901,1.028,1.0753,1.1227,1.151,1.17,1.1983,1.2172,1.2172,1.2172,1.2172,1.2172,1.2172,1.2172,1.2172,1.2172,1.2172,1.2172,1.2172,1.2172,1.2172,1.2267,1.2456,1.3022,0.2128,0.1853,0.1355,0.0992,0.054,0.0156,0.0,0.0,0.0,0.0,0.0,0.0,0.0,0.0,0.0,0.0,0.0,0.0,0.0,0.0,0.0,0.0,0.0,0.0,0.0,0.0,0.0,0.0,0.0,0.0,0.0,0.0,0.0,0.0,0.0,0.0,0.0,0.0,0.0,0.0,0.0,0.0,0.0,0.0,0.0,0.0,0.0,0.0,0.0,0.0827,0.1553,0.2185,0.2722,0.3254,0.3877,0.433,0.4688,0.5136,0.5409,0.5681,0.5684,0.5769,0.5774,0.5785,0.5796,0.5815,0.6101,0.6133,0.6763,0.7275,0.7562,0.7981,0.8297,0.8696,0.893,0.9003,0.906,0.9077,0.9093,0.9101,0.9114,0.9142,0.9142,0.9142,0.9142,0.9237,0.9522,0.9616,0.9711,0.9711,0.9711,0.9901,1.009,1.028,1.0753,1.1321,1.1605,1.1983,1.2172,1.2172,1.2172,1.2172,1.2172,1.2172,1.2172,1.2172,1.2172,1.2172,1.2172,1.2172,1.2172,1.2267,1.2267,1.2644,1.3211]}]]